Wetterdaten: Samstag, 15.06.2019
Datum Zeit Temp. A. Feuchte A. Luftdruck Regen Wind Richtung Richtung Sonnenschein ET UV Solar Taupunkt Windchill Windböen
15.06.2019 00:00 18,7 °C 83 % 1008,6 hPa 0,0 mm 0,3 km/h (0 Bft) NW 306 ° 0 min 0,000 mm 0,0 UV-I 0 W/m² 15,8 °C 18,7 °C 3,2 km/h (1 Bft)
15.06.2019 00:01 18,7 °C 83 % 1008,6 hPa 0,0 mm 0,0 km/h (0 Bft) NW 306 ° 0 min 0,000 mm 0,0 UV-I 0 W/m² 15,8 °C 18,7 °C 0,0 km/h (0 Bft)
15.06.2019 00:02 18,7 °C 82 % 1008,6 hPa 0,0 mm 0,1 km/h (0 Bft) N-NW 345 ° 0 min 0,000 mm 0,0 UV-I 0 W/m² 15,6 °C 18,7 °C 1,6 km/h (1 Bft)
15.06.2019 00:03 18,7 °C 82 % 1008,5 hPa 0,0 mm 0,0 km/h (0 Bft) N-NW 345 ° 0 min 0,000 mm 0,0 UV-I 0 W/m² 15,6 °C 18,7 °C 0,0 km/h (0 Bft)
15.06.2019 00:04 18,7 °C 82 % 1008,5 hPa 0,0 mm 0,0 km/h (0 Bft) N-NW 345 ° 0 min 0,000 mm 0,0 UV-I 0 W/m² 15,6 °C 18,7 °C 0,0 km/h (0 Bft)
15.06.2019 00:05 18,6 °C 82 % 1008,5 hPa 0,0 mm 0,0 km/h (0 Bft) N-NW 345 ° 0 min 0,000 mm 0,0 UV-I 0 W/m² 15,5 °C 18,6 °C 0,0 km/h (0 Bft)
15.06.2019 00:06 18,6 °C 82 % 1008,5 hPa 0,0 mm 0,0 km/h (0 Bft) N-NW 345 ° 0 min 0,000 mm 0,0 UV-I 0 W/m² 15,5 °C 18,6 °C 0,0 km/h (0 Bft)
15.06.2019 00:07 18,7 °C 82 % 1008,5 hPa 0,0 mm 0,0 km/h (0 Bft) N-NW 345 ° 0 min 0,000 mm 0,0 UV-I 0 W/m² 15,6 °C 18,7 °C 0,0 km/h (0 Bft)
15.06.2019 00:08 18,7 °C 82 % 1008,6 hPa 0,0 mm 0,0 km/h (0 Bft) N-NW 345 ° 0 min 0,000 mm 0,0 UV-I 0 W/m² 15,6 °C 18,7 °C 0,0 km/h (0 Bft)
15.06.2019 00:09 18,8 °C 82 % 1008,6 hPa 0,0 mm 0,0 km/h (0 Bft) N-NW 345 ° 0 min 0,000 mm 0,0 UV-I 0 W/m² 15,7 °C 18,8 °C 0,0 km/h (0 Bft)
15.06.2019 00:10 18,8 °C 81 % 1008,6 hPa 0,0 mm 0,0 km/h (0 Bft) N-NW 345 ° 0 min 0,000 mm 0,0 UV-I 0 W/m² 15,5 °C 18,8 °C 0,0 km/h (0 Bft)
15.06.2019 00:11 18,8 °C 81 % 1008,6 hPa 0,0 mm 0,0 km/h (0 Bft) N-NW 345 ° 0 min 0,000 mm 0,0 UV-I 0 W/m² 15,5 °C 18,8 °C 0,0 km/h (0 Bft)
15.06.2019 00:12 18,9 °C 81 % 1008,7 hPa 0,0 mm 0,0 km/h (0 Bft) N-NW 345 ° 0 min 0,000 mm 0,0 UV-I 0 W/m² 15,6 °C 18,9 °C 0,0 km/h (0 Bft)
15.06.2019 00:13 18,9 °C 81 % 1008,7 hPa 0,0 mm 0,0 km/h (0 Bft) N-NW 345 ° 0 min 0,000 mm 0,0 UV-I 0 W/m² 15,6 °C 18,9 °C 0,0 km/h (0 Bft)
15.06.2019 00:14 18,8 °C 81 % 1008,7 hPa 0,0 mm 0,0 km/h (0 Bft) N-NW 345 ° 0 min 0,000 mm 0,0 UV-I 0 W/m² 15,5 °C 18,8 °C 0,0 km/h (0 Bft)
15.06.2019 00:15 18,9 °C 81 % 1008,6 hPa 0,0 mm 0,0 km/h (0 Bft) N-NW 345 ° 0 min 0,000 mm 0,0 UV-I 0 W/m² 15,6 °C 18,9 °C 0,0 km/h (0 Bft)
15.06.2019 00:16 18,9 °C 80 % 1008,6 hPa 0,0 mm 0,0 km/h (0 Bft) N-NW 345 ° 0 min 0,000 mm 0,0 UV-I 0 W/m² 15,4 °C 18,9 °C 0,0 km/h (0 Bft)
15.06.2019 00:17 19,1 °C 80 % 1008,7 hPa 0,0 mm 0,0 km/h (0 Bft) N-NW 345 ° 0 min 0,000 mm 0,0 UV-I 0 W/m² 15,6 °C 19,1 °C 0,0 km/h (0 Bft)
15.06.2019 00:18 19,1 °C 80 % 1008,7 hPa 0,0 mm 0,0 km/h (0 Bft) N-NW 345 ° 0 min 0,000 mm 0,0 UV-I 0 W/m² 15,6 °C 19,1 °C 0,0 km/h (0 Bft)
15.06.2019 00:19 19,1 °C 79 % 1008,7 hPa 0,0 mm 0,8 km/h (0 Bft) NW 313 ° 0 min 0,000 mm 0,0 UV-I 0 W/m² 15,4 °C 19,1 °C 3,2 km/h (1 Bft)
15.06.2019 00:20 19,1 °C 79 % 1008,7 hPa 0,0 mm 0,6 km/h (0 Bft) N-NW 331 ° 0 min 0,000 mm 0,0 UV-I 0 W/m² 15,4 °C 19,1 °C 3,2 km/h (1 Bft)
15.06.2019 00:21 19,1 °C 80 % 1008,6 hPa 0,0 mm 0,0 km/h (0 Bft) N-NW 331 ° 0 min 0,000 mm 0,0 UV-I 0 W/m² 15,6 °C 19,1 °C 0,0 km/h (0 Bft)
15.06.2019 00:22 19,0 °C 80 % 1008,6 hPa 0,0 mm 0,0 km/h (0 Bft) N-NW 331 ° 0 min 0,000 mm 0,0 UV-I 0 W/m² 15,5 °C 19,0 °C 0,0 km/h (0 Bft)
15.06.2019 00:23 18,9 °C 80 % 1008,6 hPa 0,0 mm 0,0 km/h (0 Bft) N-NW 331 ° 0 min 0,000 mm 0,0 UV-I 0 W/m² 15,4 °C 18,9 °C 0,0 km/h (0 Bft)
15.06.2019 00:24 18,9 °C 80 % 1008,5 hPa 0,0 mm 0,0 km/h (0 Bft) N-NW 331 ° 0 min 0,000 mm 0,0 UV-I 0 W/m² 15,4 °C 18,9 °C 0,0 km/h (0 Bft)
15.06.2019 00:25 18,8 °C 80 % 1008,6 hPa 0,0 mm 0,0 km/h (0 Bft) N-NW 331 ° 0 min 0,000 mm 0,0 UV-I 0 W/m² 15,3 °C 18,8 °C 0,0 km/h (0 Bft)
15.06.2019 00:26 18,8 °C 80 % 1008,4 hPa 0,0 mm 0,0 km/h (0 Bft) N-NW 331 ° 0 min 0,000 mm 0,0 UV-I 0 W/m² 15,3 °C 18,8 °C 0,0 km/h (0 Bft)
15.06.2019 00:27 18,8 °C 80 % 1008,4 hPa 0,0 mm 0,0 km/h (0 Bft) N-NW 331 ° 0 min 0,000 mm 0,0 UV-I 0 W/m² 15,3 °C 18,8 °C 0,0 km/h (0 Bft)
15.06.2019 00:28 18,8 °C 80 % 1008,4 hPa 0,0 mm 0,0 km/h (0 Bft) N-NW 331 ° 0 min 0,000 mm 0,0 UV-I 0 W/m² 15,3 °C 18,8 °C 0,0 km/h (0 Bft)
15.06.2019 00:29 18,9 °C 80 % 1008,3 hPa 0,0 mm 0,1 km/h (0 Bft) N-NW 334 ° 0 min 0,000 mm 0,0 UV-I 0 W/m² 15,4 °C 18,9 °C 1,6 km/h (1 Bft)
15.06.2019 00:30 18,8 °C 80 % 1008,2 hPa 0,0 mm 1,2 km/h (1 Bft) W 260 ° 0 min 0,000 mm 0,0 UV-I 0 W/m² 15,3 °C 18,8 °C 3,2 km/h (1 Bft)
15.06.2019 00:31 18,8 °C 80 % 1008,2 hPa 0,0 mm 0,5 km/h (0 Bft) W 260 ° 0 min 0,000 mm 0,0 UV-I 0 W/m² 15,3 °C 18,8 °C 3,2 km/h (1 Bft)
15.06.2019 00:32 18,8 °C 79 % 1008,2 hPa 0,0 mm 0,0 km/h (0 Bft) W 260 ° 0 min 0,000 mm 0,0 UV-I 0 W/m² 15,1 °C 18,8 °C 0,0 km/h (0 Bft)
15.06.2019 00:33 18,9 °C 79 % 1008,2 hPa 0,0 mm 0,0 km/h (0 Bft) W 260 ° 0 min 0,000 mm 0,0 UV-I 0 W/m² 15,2 °C 18,9 °C 0,0 km/h (0 Bft)
15.06.2019 00:34 18,9 °C 79 % 1008,2 hPa 0,0 mm 0,0 km/h (0 Bft) W 260 ° 0 min 0,000 mm 0,0 UV-I 0 W/m² 15,2 °C 18,9 °C 0,0 km/h (0 Bft)
15.06.2019 00:35 18,9 °C 79 % 1008,2 hPa 0,0 mm 0,0 km/h (0 Bft) W 260 ° 0 min 0,000 mm 0,0 UV-I 0 W/m² 15,2 °C 18,9 °C 0,0 km/h (0 Bft)
15.06.2019 00:36 18,9 °C 78 % 1008,3 hPa 0,0 mm 0,0 km/h (0 Bft) W 260 ° 0 min 0,000 mm 0,0 UV-I 0 W/m² 15,0 °C 18,9 °C 0,0 km/h (0 Bft)
15.06.2019 00:37 18,9 °C 78 % 1008,3 hPa 0,0 mm 0,0 km/h (0 Bft) W 260 ° 0 min 0,000 mm 0,0 UV-I 0 W/m² 15,0 °C 18,9 °C 0,0 km/h (0 Bft)
15.06.2019 00:38 18,9 °C 78 % 1008,3 hPa 0,0 mm 0,0 km/h (0 Bft) W 260 ° 0 min 0,000 mm 0,0 UV-I 0 W/m² 15,0 °C 18,9 °C 0,0 km/h (0 Bft)
15.06.2019 00:39 18,9 °C 78 % 1008,2 hPa 0,0 mm 0,1 km/h (0 Bft) W-NW 298 ° 0 min 0,000 mm 0,0 UV-I 0 W/m² 15,0 °C 18,9 °C 3,2 km/h (1 Bft)
15.06.2019 00:40 18,9 °C 78 % 1008,3 hPa 0,0 mm 1,2 km/h (1 Bft) W-NW 298 ° 0 min 0,000 mm 0,0 UV-I 0 W/m² 15,0 °C 18,9 °C 3,2 km/h (1 Bft)
15.06.2019 00:41 18,8 °C 78 % 1008,3 hPa 0,0 mm 0,3 km/h (0 Bft) W-NW 298 ° 0 min 0,000 mm 0,0 UV-I 0 W/m² 14,9 °C 18,8 °C 3,2 km/h (1 Bft)
15.06.2019 00:42 18,7 °C 79 % 1008,3 hPa 0,0 mm 1,4 km/h (1 Bft) W-NW 298 ° 0 min 0,000 mm 0,0 UV-I 0 W/m² 15,0 °C 18,7 °C 3,2 km/h (1 Bft)
15.06.2019 00:43 18,6 °C 80 % 1008,3 hPa 0,0 mm 2,9 km/h (1 Bft) W 263 ° 0 min 0,000 mm 0,0 UV-I 0 W/m² 15,1 °C 18,6 °C 9,7 km/h (2 Bft)
15.06.2019 00:44 18,5 °C 80 % 1008,4 hPa 0,0 mm 2,0 km/h (1 Bft) W-SW 246 ° 0 min 0,000 mm 0,0 UV-I 0 W/m² 15,0 °C 18,5 °C 4,8 km/h (1 Bft)
15.06.2019 00:45 18,4 °C 80 % 1008,4 hPa 0,0 mm 4,0 km/h (1 Bft) S-SW 197 ° 0 min 0,000 mm 0,0 UV-I 0 W/m² 14,9 °C 18,4 °C 6,4 km/h (2 Bft)
15.06.2019 00:46 18,4 °C 80 % 1008,3 hPa 0,0 mm 4,4 km/h (1 Bft) S 190 ° 0 min 0,000 mm 0,0 UV-I 0 W/m² 14,9 °C 18,4 °C 8,0 km/h (2 Bft)
15.06.2019 00:47 18,4 °C 80 % 1008,4 hPa 0,0 mm 2,1 km/h (1 Bft) S 180 ° 0 min 0,000 mm 0,0 UV-I 0 W/m² 14,9 °C 18,4 °C 4,8 km/h (1 Bft)
15.06.2019 00:48 18,6 °C 80 % 1008,3 hPa 0,0 mm 1,5 km/h (1 Bft) S 185 ° 0 min 0,000 mm 0,0 UV-I 0 W/m² 15,1 °C 18,6 °C 4,8 km/h (1 Bft)
15.06.2019 00:49 18,6 °C 79 % 1008,3 hPa 0,0 mm 0,3 km/h (0 Bft) S-SW 194 ° 0 min 0,000 mm 0,0 UV-I 0 W/m² 14,9 °C 18,6 °C 3,2 km/h (1 Bft)
15.06.2019 00:50 18,7 °C 79 % 1008,3 hPa 0,0 mm 0,7 km/h (0 Bft) S-SW 194 ° 0 min 0,000 mm 0,0 UV-I 0 W/m² 15,0 °C 18,7 °C 3,2 km/h (1 Bft)
15.06.2019 00:51 18,7 °C 79 % 1008,3 hPa 0,0 mm 2,1 km/h (1 Bft) W-SW 247 ° 0 min 0,000 mm 0,0 UV-I 0 W/m² 15,0 °C 18,7 °C 6,4 km/h (2 Bft)
15.06.2019 00:52 18,8 °C 78 % 1008,3 hPa 0,0 mm 3,8 km/h (1 Bft) W-SW 247 ° 0 min 0,000 mm 0,0 UV-I 0 W/m² 14,9 °C 18,8 °C 4,8 km/h (1 Bft)
15.06.2019 00:53 18,9 °C 78 % 1008,3 hPa 0,0 mm 2,1 km/h (1 Bft) W-SW 247 ° 0 min 0,000 mm 0,0 UV-I 0 W/m² 15,0 °C 18,9 °C 4,8 km/h (1 Bft)
15.06.2019 00:54 19,0 °C 77 % 1008,3 hPa 0,0 mm 3,4 km/h (1 Bft) W-SW 248 ° 0 min 0,000 mm 0,0 UV-I 0 W/m² 14,9 °C 19,0 °C 4,8 km/h (1 Bft)
15.06.2019 00:55 19,1 °C 77 % 1008,3 hPa 0,0 mm 2,3 km/h (1 Bft) W-SW 242 ° 0 min 0,000 mm 0,0 UV-I 0 W/m² 15,0 °C 19,1 °C 4,8 km/h (1 Bft)
15.06.2019 00:56 19,2 °C 77 % 1008,3 hPa 0,0 mm 2,2 km/h (1 Bft) S-SW 192 ° 0 min 0,000 mm 0,0 UV-I 0 W/m² 15,1 °C 19,2 °C 6,4 km/h (2 Bft)
15.06.2019 00:57 19,3 °C 77 % 1008,4 hPa 0,0 mm 2,1 km/h (1 Bft) S 190 ° 0 min 0,000 mm 0,0 UV-I 0 W/m² 15,2 °C 19,3 °C 6,4 km/h (2 Bft)
15.06.2019 00:58 19,3 °C 76 % 1008,3 hPa 0,0 mm 4,3 km/h (1 Bft) S-SW 198 ° 0 min 0,000 mm 0,0 UV-I 0 W/m² 15,0 °C 19,3 °C 8,0 km/h (2 Bft)
15.06.2019 00:59 19,3 °C 76 % 1008,4 hPa 0,0 mm 5,9 km/h (2 Bft) SW 219 ° 0 min 0,000 mm 0,0 UV-I 0 W/m² 15,0 °C 19,3 °C 9,7 km/h (2 Bft)
15.06.2019 01:00 19,3 °C 76 % 1008,4 hPa 0,0 mm 4,6 km/h (1 Bft) S 191 ° 0 min 0,025 mm 0,0 UV-I 0 W/m² 15,0 °C 19,3 °C 6,4 km/h (2 Bft)
15.06.2019 01:01 19,2 °C 76 % 1008,5 hPa 0,0 mm 1,5 km/h (1 Bft) S 187 ° 0 min 0,000 mm 0,0 UV-I 0 W/m² 14,9 °C 19,2 °C 6,4 km/h (2 Bft)
15.06.2019 01:02 19,2 °C 77 % 1008,5 hPa 0,0 mm 0,0 km/h (0 Bft) S 187 ° 0 min 0,000 mm 0,0 UV-I 0 W/m² 15,1 °C 19,2 °C 0,0 km/h (0 Bft)
15.06.2019 01:03 19,0 °C 77 % 1008,5 hPa 0,0 mm 0,0 km/h (0 Bft) S 187 ° 0 min 0,000 mm 0,0 UV-I 0 W/m² 14,9 °C 19,0 °C 0,0 km/h (0 Bft)
15.06.2019 01:04 18,9 °C 77 % 1008,5 hPa 0,0 mm 0,0 km/h (0 Bft) S 187 ° 0 min 0,000 mm 0,0 UV-I 0 W/m² 14,8 °C 18,9 °C 0,0 km/h (0 Bft)
15.06.2019 01:05 18,8 °C 78 % 1008,4 hPa 0,0 mm 1,7 km/h (1 Bft) S 187 ° 0 min 0,000 mm 0,0 UV-I 0 W/m² 14,9 °C 18,8 °C 3,2 km/h (1 Bft)
15.06.2019 01:06 18,7 °C 78 % 1008,4 hPa 0,0 mm 3,3 km/h (1 Bft) S 187 ° 0 min 0,000 mm 0,0 UV-I 0 W/m² 14,8 °C 18,7 °C 4,8 km/h (1 Bft)
15.06.2019 01:07 18,7 °C 78 % 1008,4 hPa 0,0 mm 2,7 km/h (1 Bft) S 187 ° 0 min 0,000 mm 0,0 UV-I 0 W/m² 14,8 °C 18,7 °C 4,8 km/h (1 Bft)
15.06.2019 01:08 18,6 °C 78 % 1008,4 hPa 0,0 mm 3,3 km/h (1 Bft) S 187 ° 0 min 0,000 mm 0,0 UV-I 0 W/m² 14,7 °C 18,6 °C 4,8 km/h (1 Bft)
15.06.2019 01:09 18,6 °C 78 % 1008,4 hPa 0,0 mm 1,5 km/h (1 Bft) S 187 ° 0 min 0,000 mm 0,0 UV-I 0 W/m² 14,7 °C 18,6 °C 4,8 km/h (1 Bft)
15.06.2019 01:10 18,4 °C 79 % 1008,5 hPa 0,0 mm 0,6 km/h (0 Bft) S 187 ° 0 min 0,000 mm 0,0 UV-I 0 W/m² 14,7 °C 18,4 °C 3,2 km/h (1 Bft)
15.06.2019 01:11 18,4 °C 79 % 1008,6 hPa 0,0 mm 0,0 km/h (0 Bft) S 187 ° 0 min 0,000 mm 0,0 UV-I 0 W/m² 14,7 °C 18,4 °C 0,0 km/h (0 Bft)
15.06.2019 01:12 18,3 °C 79 % 1008,6 hPa 0,0 mm 0,0 km/h (0 Bft) S 187 ° 0 min 0,000 mm 0,0 UV-I 0 W/m² 14,6 °C 18,3 °C 0,0 km/h (0 Bft)
15.06.2019 01:13 18,2 °C 80 % 1008,6 hPa 0,0 mm 0,8 km/h (0 Bft) N-NO 22 ° 0 min 0,000 mm 0,0 UV-I 0 W/m² 14,7 °C 18,2 °C 4,8 km/h (1 Bft)
15.06.2019 01:14 18,2 °C 80 % 1008,7 hPa 0,0 mm 0,4 km/h (0 Bft) N-NO 22 ° 0 min 0,000 mm 0,0 UV-I 0 W/m² 14,7 °C 18,2 °C 1,6 km/h (1 Bft)
15.06.2019 01:15 18,1 °C 81 % 1008,7 hPa 0,0 mm 0,0 km/h (0 Bft) N-NO 22 ° 0 min 0,000 mm 0,0 UV-I 0 W/m² 14,8 °C 18,1 °C 0,0 km/h (0 Bft)
15.06.2019 01:16 18,1 °C 80 % 1008,7 hPa 0,0 mm 0,9 km/h (0 Bft) O-NO 62 ° 0 min 0,000 mm 0,0 UV-I 0 W/m² 14,6 °C 18,1 °C 3,2 km/h (1 Bft)
15.06.2019 01:17 18,0 °C 80 % 1008,7 hPa 0,0 mm 0,0 km/h (0 Bft) O-NO 62 ° 0 min 0,000 mm 0,0 UV-I 0 W/m² 14,5 °C 18,0 °C 0,0 km/h (0 Bft)
15.06.2019 01:18 18,1 °C 80 % 1008,8 hPa 0,0 mm 0,0 km/h (0 Bft) O-NO 62 ° 0 min 0,000 mm 0,0 UV-I 0 W/m² 14,6 °C 18,1 °C 0,0 km/h (0 Bft)
15.06.2019 01:19 18,1 °C 80 % 1008,8 hPa 0,0 mm 0,0 km/h (0 Bft) O-NO 62 ° 0 min 0,000 mm 0,0 UV-I 0 W/m² 14,6 °C 18,1 °C 0,0 km/h (0 Bft)
15.06.2019 01:20 18,1 °C 80 % 1008,8 hPa 0,0 mm 0,0 km/h (0 Bft) O-NO 62 ° 0 min 0,000 mm 0,0 UV-I 0 W/m² 14,6 °C 18,1 °C 0,0 km/h (0 Bft)
15.06.2019 01:21 18,2 °C 80 % 1008,7 hPa 0,0 mm 0,0 km/h (0 Bft) O-NO 62 ° 0 min 0,000 mm 0,0 UV-I 0 W/m² 14,7 °C 18,2 °C 0,0 km/h (0 Bft)
15.06.2019 01:22 18,2 °C 80 % 1008,7 hPa 0,0 mm 0,0 km/h (0 Bft) O-NO 62 ° 0 min 0,000 mm 0,0 UV-I 0 W/m² 14,7 °C 18,2 °C 0,0 km/h (0 Bft)
15.06.2019 01:23 18,1 °C 80 % 1008,7 hPa 0,0 mm 0,0 km/h (0 Bft) O-NO 62 ° 0 min 0,000 mm 0,0 UV-I 0 W/m² 14,6 °C 18,1 °C 0,0 km/h (0 Bft)
15.06.2019 01:24 18,1 °C 80 % 1008,6 hPa 0,0 mm 0,0 km/h (0 Bft) O-NO 62 ° 0 min 0,000 mm 0,0 UV-I 0 W/m² 14,6 °C 18,1 °C 0,0 km/h (0 Bft)
15.06.2019 01:25 18,2 °C 80 % 1008,7 hPa 0,0 mm 0,0 km/h (0 Bft) O-NO 62 ° 0 min 0,000 mm 0,0 UV-I 0 W/m² 14,7 °C 18,2 °C 0,0 km/h (0 Bft)
15.06.2019 01:26 18,2 °C 80 % 1008,7 hPa 0,0 mm 0,0 km/h (0 Bft) O-NO 62 ° 0 min 0,000 mm 0,0 UV-I 0 W/m² 14,7 °C 18,2 °C 0,0 km/h (0 Bft)
15.06.2019 01:27 18,3 °C 80 % 1008,6 hPa 0,0 mm 2,4 km/h (1 Bft) O-NO 68 ° 0 min 0,000 mm 0,0 UV-I 0 W/m² 14,8 °C 18,3 °C 4,8 km/h (1 Bft)
15.06.2019 01:28 18,3 °C 79 % 1008,6 hPa 0,0 mm 4,9 km/h (1 Bft) O 98 ° 0 min 0,000 mm 0,0 UV-I 0 W/m² 14,6 °C 18,3 °C 6,4 km/h (2 Bft)
15.06.2019 01:29 18,3 °C 79 % 1008,5 hPa 0,0 mm 4,2 km/h (1 Bft) O 98 ° 0 min 0,000 mm 0,0 UV-I 0 W/m² 14,6 °C 18,3 °C 4,8 km/h (1 Bft)
15.06.2019 01:30 18,3 °C 79 % 1008,5 hPa 0,0 mm 3,0 km/h (1 Bft) O 98 ° 0 min 0,000 mm 0,0 UV-I 0 W/m² 14,6 °C 18,3 °C 3,2 km/h (1 Bft)
15.06.2019 01:31 18,4 °C 78 % 1008,5 hPa 0,0 mm 2,8 km/h (1 Bft) O 98 ° 0 min 0,000 mm 0,0 UV-I 0 W/m² 14,5 °C 18,4 °C 4,8 km/h (1 Bft)
15.06.2019 01:32 18,4 °C 78 % 1008,5 hPa 0,0 mm 1,3 km/h (1 Bft) O 98 ° 0 min 0,000 mm 0,0 UV-I 0 W/m² 14,5 °C 18,4 °C 3,2 km/h (1 Bft)
15.06.2019 01:33 18,4 °C 78 % 1008,4 hPa 0,0 mm 0,0 km/h (0 Bft) O 98 ° 0 min 0,000 mm 0,0 UV-I 0 W/m² 14,5 °C 18,4 °C 0,0 km/h (0 Bft)
15.06.2019 01:34 18,4 °C 78 % 1008,4 hPa 0,0 mm 1,4 km/h (1 Bft) O 98 ° 0 min 0,000 mm 0,0 UV-I 0 W/m² 14,5 °C 18,4 °C 3,2 km/h (1 Bft)
15.06.2019 01:35 18,3 °C 79 % 1008,4 hPa 0,0 mm 0,0 km/h (0 Bft) O 98 ° 0 min 0,000 mm 0,0 UV-I 0 W/m² 14,6 °C 18,3 °C 0,0 km/h (0 Bft)
15.06.2019 01:36 18,1 °C 78 % 1008,4 hPa 0,0 mm 0,0 km/h (0 Bft) O 98 ° 0 min 0,000 mm 0,0 UV-I 0 W/m² 14,2 °C 18,1 °C 0,0 km/h (0 Bft)
15.06.2019 01:37 18,0 °C 78 % 1008,4 hPa 0,0 mm 0,0 km/h (0 Bft) O 98 ° 0 min 0,000 mm 0,0 UV-I 0 W/m² 14,1 °C 18,0 °C 0,0 km/h (0 Bft)
15.06.2019 01:38 17,9 °C 79 % 1008,4 hPa 0,0 mm 0,0 km/h (0 Bft) O 98 ° 0 min 0,000 mm 0,0 UV-I 0 W/m² 14,2 °C 17,9 °C 0,0 km/h (0 Bft)
15.06.2019 01:39 17,9 °C 79 % 1008,3 hPa 0,0 mm 0,0 km/h (0 Bft) O 98 ° 0 min 0,000 mm 0,0 UV-I 0 W/m² 14,2 °C 17,9 °C 0,0 km/h (0 Bft)
15.06.2019 01:40 17,8 °C 79 % 1008,3 hPa 0,0 mm 0,0 km/h (0 Bft) O 98 ° 0 min 0,000 mm 0,0 UV-I 0 W/m² 14,1 °C 17,8 °C 0,0 km/h (0 Bft)
15.06.2019 01:41 17,7 °C 79 % 1008,3 hPa 0,0 mm 0,0 km/h (0 Bft) O 98 ° 0 min 0,000 mm 0,0 UV-I 0 W/m² 14,0 °C 17,7 °C 0,0 km/h (0 Bft)
15.06.2019 01:42 17,6 °C 80 % 1008,3 hPa 0,0 mm 0,0 km/h (0 Bft) O 98 ° 0 min 0,000 mm 0,0 UV-I 0 W/m² 14,1 °C 17,6 °C 0,0 km/h (0 Bft)
15.06.2019 01:43 17,5 °C 80 % 1008,3 hPa 0,0 mm 0,0 km/h (0 Bft) O 98 ° 0 min 0,000 mm 0,0 UV-I 0 W/m² 14,0 °C 17,5 °C 0,0 km/h (0 Bft)
15.06.2019 01:44 17,5 °C 80 % 1008,4 hPa 0,0 mm 0,0 km/h (0 Bft) O 98 ° 0 min 0,000 mm 0,0 UV-I 0 W/m² 14,0 °C 17,5 °C 0,0 km/h (0 Bft)
15.06.2019 01:45 17,5 °C 80 % 1008,5 hPa 0,0 mm 0,0 km/h (0 Bft) O 98 ° 0 min 0,000 mm 0,0 UV-I 0 W/m² 14,0 °C 17,5 °C 0,0 km/h (0 Bft)
15.06.2019 01:46 17,5 °C 79 % 1008,5 hPa 0,0 mm 0,0 km/h (0 Bft) O 98 ° 0 min 0,000 mm 0,0 UV-I 0 W/m² 13,8 °C 17,5 °C 0,0 km/h (0 Bft)
15.06.2019 01:47 17,5 °C 79 % 1008,5 hPa 0,0 mm 0,0 km/h (0 Bft) O 98 ° 0 min 0,000 mm 0,0 UV-I 0 W/m² 13,8 °C 17,5 °C 0,0 km/h (0 Bft)
15.06.2019 01:48 17,6 °C 79 % 1008,5 hPa 0,0 mm 0,0 km/h (0 Bft) O 98 ° 0 min 0,000 mm 0,0 UV-I 0 W/m² 13,9 °C 17,6 °C 0,0 km/h (0 Bft)
15.06.2019 01:49 17,6 °C 78 % 1008,6 hPa 0,0 mm 0,0 km/h (0 Bft) O 98 ° 0 min 0,000 mm 0,0 UV-I 0 W/m² 13,7 °C 17,6 °C 0,0 km/h (0 Bft)
15.06.2019 01:50 17,6 °C 78 % 1008,5 hPa 0,0 mm 0,0 km/h (0 Bft) O 98 ° 0 min 0,000 mm 0,0 UV-I 0 W/m² 13,7 °C 17,6 °C 0,0 km/h (0 Bft)
15.06.2019 01:51 17,6 °C 78 % 1008,6 hPa 0,0 mm 0,0 km/h (0 Bft) O 98 ° 0 min 0,000 mm 0,0 UV-I 0 W/m² 13,7 °C 17,6 °C 0,0 km/h (0 Bft)
15.06.2019 01:52 17,5 °C 78 % 1008,6 hPa 0,0 mm 0,0 km/h (0 Bft) O 98 ° 0 min 0,000 mm 0,0 UV-I 0 W/m² 13,6 °C 17,5 °C 0,0 km/h (0 Bft)
15.06.2019 01:53 17,5 °C 80 % 1008,5 hPa 0,0 mm 0,0 km/h (0 Bft) O 98 ° 0 min 0,000 mm 0,0 UV-I 0 W/m² 14,0 °C 17,5 °C 0,0 km/h (0 Bft)
15.06.2019 01:54 17,4 °C 80 % 1008,5 hPa 0,0 mm 0,0 km/h (0 Bft) O 98 ° 0 min 0,000 mm 0,0 UV-I 0 W/m² 13,9 °C 17,4 °C 0,0 km/h (0 Bft)
15.06.2019 01:55 17,3 °C 81 % 1008,5 hPa 0,0 mm 0,0 km/h (0 Bft) O 98 ° 0 min 0,000 mm 0,0 UV-I 0 W/m² 14,0 °C 17,3 °C 0,0 km/h (0 Bft)
15.06.2019 01:56 17,3 °C 81 % 1008,5 hPa 0,0 mm 0,0 km/h (0 Bft) O 98 ° 0 min 0,000 mm 0,0 UV-I 0 W/m² 14,0 °C 17,3 °C 0,0 km/h (0 Bft)
15.06.2019 01:57 17,2 °C 81 % 1008,5 hPa 0,0 mm 0,0 km/h (0 Bft) O 98 ° 0 min 0,000 mm 0,0 UV-I 0 W/m² 13,9 °C 17,2 °C 0,0 km/h (0 Bft)
15.06.2019 01:58 17,2 °C 81 % 1008,5 hPa 0,0 mm 0,0 km/h (0 Bft) O 98 ° 0 min 0,000 mm 0,0 UV-I 0 W/m² 13,9 °C 17,2 °C 0,0 km/h (0 Bft)
15.06.2019 01:59 17,2 °C 81 % 1008,4 hPa 0,0 mm 0,0 km/h (0 Bft) O 98 ° 0 min 0,000 mm 0,0 UV-I 0 W/m² 13,9 °C 17,2 °C 0,0 km/h (0 Bft)
15.06.2019 02:00 17,2 °C 81 % 1008,4 hPa 0,0 mm 0,0 km/h (0 Bft) O 98 ° 0 min 0,000 mm 0,0 UV-I 0 W/m² 13,9 °C 17,2 °C 0,0 km/h (0 Bft)
15.06.2019 02:01 17,2 °C 81 % 1008,4 hPa 0,0 mm 0,0 km/h (0 Bft) O 98 ° 0 min 0,026 mm 0,0 UV-I 0 W/m² 13,9 °C 17,2 °C 0,0 km/h (0 Bft)
15.06.2019 02:02 17,2 °C 81 % 1008,4 hPa 0,0 mm 0,0 km/h (0 Bft) O 98 ° 0 min 0,000 mm 0,0 UV-I 0 W/m² 13,9 °C 17,2 °C 0,0 km/h (0 Bft)
15.06.2019 02:03 17,2 °C 81 % 1008,6 hPa 0,0 mm 0,0 km/h (0 Bft) O 98 ° 0 min 0,000 mm 0,0 UV-I 0 W/m² 13,9 °C 17,2 °C 0,0 km/h (0 Bft)
15.06.2019 02:04 17,2 °C 81 % 1008,6 hPa 0,0 mm 0,0 km/h (0 Bft) O 98 ° 0 min 0,000 mm 0,0 UV-I 0 W/m² 13,9 °C 17,2 °C 0,0 km/h (0 Bft)
15.06.2019 02:05 17,2 °C 81 % 1008,6 hPa 0,0 mm 0,0 km/h (0 Bft) O 98 ° 0 min 0,000 mm 0,0 UV-I 0 W/m² 13,9 °C 17,2 °C 0,0 km/h (0 Bft)
15.06.2019 02:06 17,1 °C 81 % 1008,5 hPa 0,0 mm 0,0 km/h (0 Bft) O 98 ° 0 min 0,000 mm 0,0 UV-I 0 W/m² 13,8 °C 17,1 °C 0,0 km/h (0 Bft)
15.06.2019 02:07 17,2 °C 81 % 1008,5 hPa 0,0 mm 0,0 km/h (0 Bft) O 98 ° 0 min 0,000 mm 0,0 UV-I 0 W/m² 13,9 °C 17,2 °C 0,0 km/h (0 Bft)
15.06.2019 02:08 17,2 °C 81 % 1008,4 hPa 0,0 mm 0,0 km/h (0 Bft) O 98 ° 0 min 0,000 mm 0,0 UV-I 0 W/m² 13,9 °C 17,2 °C 0,0 km/h (0 Bft)
15.06.2019 02:09 17,2 °C 81 % 1008,5 hPa 0,0 mm 0,0 km/h (0 Bft) O 98 ° 0 min 0,000 mm 0,0 UV-I 0 W/m² 13,9 °C 17,2 °C 0,0 km/h (0 Bft)
15.06.2019 02:10 17,3 °C 80 % 1008,6 hPa 0,0 mm 0,7 km/h (0 Bft) N-NO 28 ° 0 min 0,000 mm 0,0 UV-I 0 W/m² 13,8 °C 17,3 °C 3,2 km/h (1 Bft)
15.06.2019 02:11 17,3 °C 80 % 1008,5 hPa 0,0 mm 0,4 km/h (0 Bft) N-NO 28 ° 0 min 0,000 mm 0,0 UV-I 0 W/m² 13,8 °C 17,3 °C 1,6 km/h (1 Bft)
15.06.2019 02:12 17,3 °C 80 % 1008,5 hPa 0,0 mm 0,0 km/h (0 Bft) N-NO 28 ° 0 min 0,000 mm 0,0 UV-I 0 W/m² 13,8 °C 17,3 °C 0,0 km/h (0 Bft)
15.06.2019 02:13 17,2 °C 80 % 1008,5 hPa 0,0 mm 0,0 km/h (0 Bft) N-NO 28 ° 0 min 0,000 mm 0,0 UV-I 0 W/m² 13,7 °C 17,2 °C 0,0 km/h (0 Bft)
15.06.2019 02:14 17,2 °C 80 % 1008,5 hPa 0,0 mm 0,0 km/h (0 Bft) N-NO 28 ° 0 min 0,000 mm 0,0 UV-I 0 W/m² 13,7 °C 17,2 °C 0,0 km/h (0 Bft)
15.06.2019 02:15 17,2 °C 80 % 1008,5 hPa 0,0 mm 0,0 km/h (0 Bft) N-NO 28 ° 0 min 0,000 mm 0,0 UV-I 0 W/m² 13,7 °C 17,2 °C 0,0 km/h (0 Bft)
15.06.2019 02:16 17,3 °C 78 % 1008,5 hPa 0,0 mm 0,0 km/h (0 Bft) N-NO 28 ° 0 min 0,000 mm 0,0 UV-I 0 W/m² 13,4 °C 17,3 °C 0,0 km/h (0 Bft)
15.06.2019 02:17 17,4 °C 78 % 1008,6 hPa 0,0 mm 0,0 km/h (0 Bft) N-NO 28 ° 0 min 0,000 mm 0,0 UV-I 0 W/m² 13,5 °C 17,4 °C 0,0 km/h (0 Bft)
15.06.2019 02:18 17,5 °C 76 % 1008,6 hPa 0,0 mm 0,0 km/h (0 Bft) N-NO 28 ° 0 min 0,000 mm 0,0 UV-I 0 W/m² 13,2 °C 17,5 °C 0,0 km/h (0 Bft)
15.06.2019 02:19 17,6 °C 76 % 1008,6 hPa 0,0 mm 0,0 km/h (0 Bft) N-NO 28 ° 0 min 0,000 mm 0,0 UV-I 0 W/m² 13,3 °C 17,6 °C 0,0 km/h (0 Bft)
15.06.2019 02:20 17,7 °C 76 % 1008,5 hPa 0,0 mm 0,0 km/h (0 Bft) N-NO 28 ° 0 min 0,000 mm 0,0 UV-I 0 W/m² 13,4 °C 17,7 °C 0,0 km/h (0 Bft)
15.06.2019 02:21 17,8 °C 76 % 1008,5 hPa 0,0 mm 0,4 km/h (0 Bft) O-NO 58 ° 0 min 0,000 mm 0,0 UV-I 0 W/m² 13,5 °C 17,8 °C 4,8 km/h (1 Bft)
15.06.2019 02:22 17,8 °C 76 % 1008,4 hPa 0,0 mm 2,3 km/h (1 Bft) O-SO 119 ° 0 min 0,000 mm 0,0 UV-I 0 W/m² 13,5 °C 17,8 °C 6,4 km/h (2 Bft)
15.06.2019 02:23 17,8 °C 76 % 1008,4 hPa 0,0 mm 0,0 km/h (0 Bft) O-SO 119 ° 0 min 0,000 mm 0,0 UV-I 0 W/m² 13,5 °C 17,8 °C 0,0 km/h (0 Bft)
15.06.2019 02:24 17,8 °C 75 % 1008,4 hPa 0,0 mm 0,0 km/h (0 Bft) O-SO 119 ° 0 min 0,000 mm 0,0 UV-I 0 W/m² 13,3 °C 17,8 °C 0,0 km/h (0 Bft)
15.06.2019 02:25 17,8 °C 74 % 1008,4 hPa 0,0 mm 0,0 km/h (0 Bft) O-SO 115 ° 0 min 0,000 mm 0,0 UV-I 0 W/m² 13,1 °C 17,8 °C 0,0 km/h (0 Bft)
15.06.2019 02:26 17,9 °C 73 % 1008,4 hPa 0,0 mm 0,0 km/h (0 Bft) O-SO 115 ° 0 min 0,000 mm 0,0 UV-I 0 W/m² 13,0 °C 17,9 °C 0,0 km/h (0 Bft)
15.06.2019 02:27 17,9 °C 73 % 1008,4 hPa 0,0 mm 1,8 km/h (1 Bft) S-SO 148 ° 0 min 0,000 mm 0,0 UV-I 0 W/m² 13,0 °C 17,9 °C 4,8 km/h (1 Bft)
15.06.2019 02:28 18,1 °C 71 % 1008,3 hPa 0,0 mm 1,3 km/h (1 Bft) S-SO 148 ° 0 min 0,000 mm 0,0 UV-I 0 W/m² 12,8 °C 18,1 °C 4,8 km/h (1 Bft)
15.06.2019 02:29 18,2 °C 71 % 1008,3 hPa 0,0 mm 0,0 km/h (0 Bft) S-SO 148 ° 0 min 0,000 mm 0,0 UV-I 0 W/m² 12,9 °C 18,2 °C 0,0 km/h (0 Bft)
15.06.2019 02:30 18,3 °C 70 % 1008,3 hPa 0,0 mm 0,0 km/h (0 Bft) S-SO 148 ° 0 min 0,000 mm 0,0 UV-I 0 W/m² 12,7 °C 18,3 °C 0,0 km/h (0 Bft)
15.06.2019 02:31 18,3 °C 70 % 1008,2 hPa 0,0 mm 0,0 km/h (0 Bft) S-SO 148 ° 0 min 0,000 mm 0,0 UV-I 0 W/m² 12,7 °C 18,3 °C 0,0 km/h (0 Bft)
15.06.2019 02:32 18,4 °C 70 % 1008,1 hPa 0,0 mm 0,0 km/h (0 Bft) S-SO 148 ° 0 min 0,000 mm 0,0 UV-I 0 W/m² 12,8 °C 18,4 °C 0,0 km/h (0 Bft)
15.06.2019 02:33 18,4 °C 70 % 1008,1 hPa 0,0 mm 0,0 km/h (0 Bft) S-SO 148 ° 0 min 0,000 mm 0,0 UV-I 0 W/m² 12,8 °C 18,4 °C 0,0 km/h (0 Bft)
15.06.2019 02:34 18,5 °C 69 % 1008,0 hPa 0,0 mm 0,0 km/h (0 Bft) S-SO 148 ° 0 min 0,000 mm 0,0 UV-I 0 W/m² 12,7 °C 18,5 °C 0,0 km/h (0 Bft)
15.06.2019 02:35 18,7 °C 68 % 1008,0 hPa 0,0 mm 0,0 km/h (0 Bft) S-SO 148 ° 0 min 0,000 mm 0,0 UV-I 0 W/m² 12,7 °C 18,7 °C 0,0 km/h (0 Bft)
15.06.2019 02:36 18,7 °C 68 % 1008,0 hPa 0,0 mm 0,0 km/h (0 Bft) S-SO 148 ° 0 min 0,000 mm 0,0 UV-I 0 W/m² 12,7 °C 18,7 °C 0,0 km/h (0 Bft)
15.06.2019 02:37 18,7 °C 68 % 1008,0 hPa 0,0 mm 0,0 km/h (0 Bft) S-SO 148 ° 0 min 0,000 mm 0,0 UV-I 0 W/m² 12,7 °C 18,7 °C 0,0 km/h (0 Bft)
15.06.2019 02:38 18,7 °C 67 % 1008,0 hPa 0,0 mm 0,0 km/h (0 Bft) S-SO 148 ° 0 min 0,000 mm 0,0 UV-I 0 W/m² 12,4 °C 18,7 °C 0,0 km/h (0 Bft)
15.06.2019 02:39 18,7 °C 67 % 1007,9 hPa 0,0 mm 0,0 km/h (0 Bft) S-SO 148 ° 0 min 0,000 mm 0,0 UV-I 0 W/m² 12,4 °C 18,7 °C 0,0 km/h (0 Bft)
15.06.2019 02:40 18,7 °C 67 % 1007,9 hPa 0,0 mm 0,3 km/h (0 Bft) S-SO 148 ° 0 min 0,000 mm 0,0 UV-I 0 W/m² 12,4 °C 18,7 °C 1,6 km/h (1 Bft)
15.06.2019 02:41 18,8 °C 67 % 1007,9 hPa 0,0 mm 0,1 km/h (0 Bft) S-SO 148 ° 0 min 0,000 mm 0,0 UV-I 0 W/m² 12,5 °C 18,8 °C 1,6 km/h (1 Bft)
15.06.2019 02:42 18,8 °C 68 % 1007,9 hPa 0,0 mm 0,8 km/h (0 Bft) S-SO 148 ° 0 min 0,000 mm 0,0 UV-I 0 W/m² 12,8 °C 18,8 °C 4,8 km/h (1 Bft)
15.06.2019 02:43 18,7 °C 68 % 1007,9 hPa 0,0 mm 0,0 km/h (0 Bft) S-SO 148 ° 0 min 0,000 mm 0,0 UV-I 0 W/m² 12,7 °C 18,7 °C 0,0 km/h (0 Bft)
15.06.2019 02:44 18,7 °C 69 % 1007,9 hPa 0,0 mm 0,5 km/h (0 Bft) S-SO 148 ° 0 min 0,000 mm 0,0 UV-I 0 W/m² 12,9 °C 18,7 °C 1,6 km/h (1 Bft)
15.06.2019 02:45 18,6 °C 70 % 1007,9 hPa 0,0 mm 2,8 km/h (1 Bft) S-SO 148 ° 0 min 0,000 mm 0,0 UV-I 0 W/m² 13,0 °C 18,6 °C 3,2 km/h (1 Bft)
15.06.2019 02:46 18,4 °C 70 % 1007,9 hPa 0,0 mm 1,9 km/h (1 Bft) S-SO 148 ° 0 min 0,000 mm 0,0 UV-I 0 W/m² 12,8 °C 18,4 °C 3,2 km/h (1 Bft)
15.06.2019 02:47 18,3 °C 70 % 1007,9 hPa 0,0 mm 0,0 km/h (0 Bft) S-SO 148 ° 0 min 0,000 mm 0,0 UV-I 0 W/m² 12,7 °C 18,3 °C 0,0 km/h (0 Bft)
15.06.2019 02:48 18,3 °C 69 % 1007,9 hPa 0,0 mm 0,0 km/h (0 Bft) S-SO 148 ° 0 min 0,000 mm 0,0 UV-I 0 W/m² 12,5 °C 18,3 °C 0,0 km/h (0 Bft)
15.06.2019 02:49 18,3 °C 68 % 1007,8 hPa 0,0 mm 0,0 km/h (0 Bft) S-SO 148 ° 0 min 0,000 mm 0,0 UV-I 0 W/m² 12,3 °C 18,3 °C 0,0 km/h (0 Bft)
15.06.2019 02:50 18,3 °C 69 % 1007,8 hPa 0,0 mm 0,0 km/h (0 Bft) S-SO 148 ° 0 min 0,000 mm 0,0 UV-I 0 W/m² 12,5 °C 18,3 °C 0,0 km/h (0 Bft)
15.06.2019 02:51 18,2 °C 70 % 1007,6 hPa 0,0 mm 0,0 km/h (0 Bft) S-SO 148 ° 0 min 0,000 mm 0,0 UV-I 0 W/m² 12,6 °C 18,2 °C 0,0 km/h (0 Bft)
15.06.2019 02:52 18,2 °C 69 % 1007,6 hPa 0,0 mm 0,0 km/h (0 Bft) S-SO 148 ° 0 min 0,000 mm 0,0 UV-I 0 W/m² 12,4 °C 18,2 °C 0,0 km/h (0 Bft)
15.06.2019 02:53 18,2 °C 68 % 1007,5 hPa 0,0 mm 0,0 km/h (0 Bft) S-SO 148 ° 0 min 0,000 mm 0,0 UV-I 0 W/m² 12,2 °C 18,2 °C 0,0 km/h (0 Bft)
15.06.2019 02:54 18,3 °C 67 % 1007,4 hPa 0,0 mm 0,0 km/h (0 Bft) S-SO 148 ° 0 min 0,000 mm 0,0 UV-I 0 W/m² 12,1 °C 18,3 °C 0,0 km/h (0 Bft)
15.06.2019 02:55 18,3 °C 68 % 1007,4 hPa 0,0 mm 0,0 km/h (0 Bft) S-SO 148 ° 0 min 0,000 mm 0,0 UV-I 0 W/m² 12,3 °C 18,3 °C 0,0 km/h (0 Bft)
15.06.2019 02:56 18,3 °C 68 % 1007,4 hPa 0,0 mm 0,0 km/h (0 Bft) S-SO 148 ° 0 min 0,000 mm 0,0 UV-I 0 W/m² 12,3 °C 18,3 °C 0,0 km/h (0 Bft)
15.06.2019 02:57 18,2 °C 70 % 1007,4 hPa 0,0 mm 0,0 km/h (0 Bft) S-SO 148 ° 0 min 0,000 mm 0,0 UV-I 0 W/m² 12,6 °C 18,2 °C 0,0 km/h (0 Bft)
15.06.2019 02:58 18,1 °C 70 % 1007,4 hPa 0,0 mm 0,0 km/h (0 Bft) S 181 ° 0 min 0,000 mm 0,0 UV-I 0 W/m² 12,5 °C 18,1 °C 0,0 km/h (0 Bft)
15.06.2019 02:59 17,9 °C 71 % 1007,4 hPa 0,0 mm 3,9 km/h (1 Bft) S 181 ° 0 min 0,000 mm 0,0 UV-I 0 W/m² 12,6 °C 17,9 °C 6,4 km/h (2 Bft)
15.06.2019 03:00 17,8 °C 71 % 1007,4 hPa 0,0 mm 4,3 km/h (1 Bft) S 181 ° 0 min 0,000 mm 0,0 UV-I 0 W/m² 12,5 °C 17,8 °C 6,4 km/h (2 Bft)
15.06.2019 03:01 17,7 °C 71 % 1007,4 hPa 0,0 mm 2,9 km/h (1 Bft) S 181 ° 0 min 0,025 mm 0,0 UV-I 0 W/m² 12,4 °C 17,7 °C 4,8 km/h (1 Bft)
15.06.2019 03:02 17,7 °C 71 % 1007,4 hPa 0,0 mm 1,3 km/h (1 Bft) S 181 ° 0 min 0,000 mm 0,0 UV-I 0 W/m² 12,4 °C 17,7 °C 3,2 km/h (1 Bft)
15.06.2019 03:03 17,6 °C 70 % 1007,4 hPa 0,0 mm 1,6 km/h (1 Bft) S 181 ° 0 min 0,000 mm 0,0 UV-I 0 W/m² 12,1 °C 17,6 °C 3,2 km/h (1 Bft)
15.06.2019 03:04 17,6 °C 70 % 1007,4 hPa 0,0 mm 0,0 km/h (0 Bft) S 181 ° 0 min 0,000 mm 0,0 UV-I 0 W/m² 12,1 °C 17,6 °C 0,0 km/h (0 Bft)
15.06.2019 03:05 17,6 °C 71 % 1007,5 hPa 0,0 mm 0,0 km/h (0 Bft) S 181 ° 0 min 0,000 mm 0,0 UV-I 0 W/m² 12,3 °C 17,6 °C 0,0 km/h (0 Bft)
15.06.2019 03:06 17,6 °C 71 % 1007,5 hPa 0,0 mm 0,0 km/h (0 Bft) S 181 ° 0 min 0,000 mm 0,0 UV-I 0 W/m² 12,3 °C 17,6 °C 0,0 km/h (0 Bft)
15.06.2019 03:07 17,5 °C 72 % 1007,6 hPa 0,0 mm 0,0 km/h (0 Bft) S 181 ° 0 min 0,000 mm 0,0 UV-I 0 W/m² 12,4 °C 17,5 °C 0,0 km/h (0 Bft)
15.06.2019 03:08 17,3 °C 73 % 1007,6 hPa 0,0 mm 2,1 km/h (1 Bft) S 181 ° 0 min 0,000 mm 0,0 UV-I 0 W/m² 12,4 °C 17,3 °C 4,8 km/h (1 Bft)
15.06.2019 03:09 17,2 °C 73 % 1007,6 hPa 0,0 mm 1,2 km/h (1 Bft) S 181 ° 0 min 0,000 mm 0,0 UV-I 0 W/m² 12,3 °C 17,2 °C 3,2 km/h (1 Bft)
15.06.2019 03:10 17,1 °C 73 % 1007,5 hPa 0,0 mm 0,0 km/h (0 Bft) S 181 ° 0 min 0,000 mm 0,0 UV-I 0 W/m² 12,2 °C 17,1 °C 0,0 km/h (0 Bft)
15.06.2019 03:11 17,0 °C 73 % 1007,5 hPa 0,0 mm 0,1 km/h (0 Bft) S 181 ° 0 min 0,000 mm 0,0 UV-I 0 W/m² 12,1 °C 17,0 °C 1,6 km/h (1 Bft)
15.06.2019 03:12 16,9 °C 74 % 1007,5 hPa 0,0 mm 0,0 km/h (0 Bft) S 181 ° 0 min 0,000 mm 0,0 UV-I 0 W/m² 12,2 °C 16,9 °C 0,0 km/h (0 Bft)
15.06.2019 03:13 16,9 °C 74 % 1007,5 hPa 0,0 mm 0,9 km/h (0 Bft) S 181 ° 0 min 0,000 mm 0,0 UV-I 0 W/m² 12,2 °C 16,9 °C 1,6 km/h (1 Bft)
15.06.2019 03:14 16,9 °C 74 % 1007,4 hPa 0,0 mm 1,1 km/h (1 Bft) S 181 ° 0 min 0,000 mm 0,0 UV-I 0 W/m² 12,2 °C 16,9 °C 3,2 km/h (1 Bft)
15.06.2019 03:15 16,8 °C 75 % 1007,4 hPa 0,0 mm 0,5 km/h (0 Bft) S 181 ° 0 min 0,000 mm 0,0 UV-I 0 W/m² 12,3 °C 16,8 °C 1,6 km/h (1 Bft)
15.06.2019 03:16 16,7 °C 74 % 1007,4 hPa 0,0 mm 0,0 km/h (0 Bft) S 181 ° 0 min 0,000 mm 0,0 UV-I 0 W/m² 12,0 °C 16,7 °C 0,0 km/h (0 Bft)
15.06.2019 03:17 16,7 °C 73 % 1007,3 hPa 0,0 mm 0,0 km/h (0 Bft) S 181 ° 0 min 0,000 mm 0,0 UV-I 0 W/m² 11,8 °C 16,7 °C 0,0 km/h (0 Bft)
15.06.2019 03:18 16,7 °C 73 % 1007,3 hPa 0,0 mm 0,0 km/h (0 Bft) S 181 ° 0 min 0,000 mm 0,0 UV-I 0 W/m² 11,8 °C 16,7 °C 0,0 km/h (0 Bft)
15.06.2019 03:19 16,8 °C 72 % 1007,3 hPa 0,0 mm 0,0 km/h (0 Bft) S 181 ° 0 min 0,000 mm 0,0 UV-I 0 W/m² 11,7 °C 16,8 °C 0,0 km/h (0 Bft)
15.06.2019 03:20 16,9 °C 71 % 1007,3 hPa 0,0 mm 0,0 km/h (0 Bft) S 181 ° 0 min 0,000 mm 0,0 UV-I 0 W/m² 11,6 °C 16,9 °C 0,0 km/h (0 Bft)
15.06.2019 03:21 16,9 °C 71 % 1007,3 hPa 0,0 mm 0,0 km/h (0 Bft) S 181 ° 0 min 0,000 mm 0,0 UV-I 0 W/m² 11,6 °C 16,9 °C 0,0 km/h (0 Bft)
15.06.2019 03:22 16,9 °C 72 % 1007,2 hPa 0,0 mm 0,0 km/h (0 Bft) S 181 ° 0 min 0,000 mm 0,0 UV-I 0 W/m² 11,8 °C 16,9 °C 0,0 km/h (0 Bft)
15.06.2019 03:23 16,8 °C 72 % 1007,2 hPa 0,0 mm 0,0 km/h (0 Bft) S 181 ° 0 min 0,000 mm 0,0 UV-I 0 W/m² 11,7 °C 16,8 °C 0,0 km/h (0 Bft)
15.06.2019 03:24 16,7 °C 73 % 1007,3 hPa 0,0 mm 0,0 km/h (0 Bft) S 181 ° 0 min 0,000 mm 0,0 UV-I 0 W/m² 11,8 °C 16,7 °C 0,0 km/h (0 Bft)
15.06.2019 03:25 16,5 °C 74 % 1007,2 hPa 0,0 mm 0,0 km/h (0 Bft) S 181 ° 0 min 0,000 mm 0,0 UV-I 0 W/m² 11,8 °C 16,5 °C 0,0 km/h (0 Bft)
15.06.2019 03:26 16,4 °C 74 % 1007,2 hPa 0,0 mm 0,0 km/h (0 Bft) S 181 ° 0 min 0,000 mm 0,0 UV-I 0 W/m² 11,8 °C 16,4 °C 0,0 km/h (0 Bft)
15.06.2019 03:27 16,4 °C 74 % 1007,2 hPa 0,0 mm 0,0 km/h (0 Bft) S 181 ° 0 min 0,000 mm 0,0 UV-I 0 W/m² 11,8 °C 16,4 °C 0,0 km/h (0 Bft)
15.06.2019 03:28 16,3 °C 74 % 1007,3 hPa 0,0 mm 0,0 km/h (0 Bft) S 181 ° 0 min 0,000 mm 0,0 UV-I 0 W/m² 11,7 °C 16,3 °C 0,0 km/h (0 Bft)
15.06.2019 03:29 16,4 °C 74 % 1007,2 hPa 0,0 mm 0,0 km/h (0 Bft) S 181 ° 0 min 0,000 mm 0,0 UV-I 0 W/m² 11,8 °C 16,4 °C 0,0 km/h (0 Bft)
15.06.2019 03:30 16,4 °C 74 % 1007,2 hPa 0,0 mm 0,0 km/h (0 Bft) S 181 ° 0 min 0,000 mm 0,0 UV-I 0 W/m² 11,8 °C 16,4 °C 0,0 km/h (0 Bft)
15.06.2019 03:31 16,3 °C 74 % 1007,2 hPa 0,0 mm 0,0 km/h (0 Bft) S 181 ° 0 min 0,000 mm 0,0 UV-I 0 W/m² 11,7 °C 16,3 °C 0,0 km/h (0 Bft)
15.06.2019 03:32 16,3 °C 73 % 1007,1 hPa 0,0 mm 0,0 km/h (0 Bft) S 181 ° 0 min 0,000 mm 0,0 UV-I 0 W/m² 11,4 °C 16,3 °C 0,0 km/h (0 Bft)
15.06.2019 03:33 16,3 °C 74 % 1007,2 hPa 0,0 mm 0,0 km/h (0 Bft) S 181 ° 0 min 0,000 mm 0,0 UV-I 0 W/m² 11,7 °C 16,3 °C 0,0 km/h (0 Bft)
15.06.2019 03:34 16,3 °C 74 % 1007,2 hPa 0,0 mm 0,0 km/h (0 Bft) S 181 ° 0 min 0,000 mm 0,0 UV-I 0 W/m² 11,7 °C 16,3 °C 0,0 km/h (0 Bft)
15.06.2019 03:35 16,3 °C 76 % 1007,2 hPa 0,0 mm 0,0 km/h (0 Bft) S 181 ° 0 min 0,000 mm 0,0 UV-I 0 W/m² 12,1 °C 16,3 °C 0,0 km/h (0 Bft)
15.06.2019 03:36 16,4 °C 74 % 1007,2 hPa 0,0 mm 0,0 km/h (0 Bft) S 181 ° 0 min 0,000 mm 0,0 UV-I 0 W/m² 11,8 °C 16,4 °C 0,0 km/h (0 Bft)
15.06.2019 03:37 16,4 °C 74 % 1007,3 hPa 0,0 mm 0,0 km/h (0 Bft) S 181 ° 0 min 0,000 mm 0,0 UV-I 0 W/m² 11,8 °C 16,4 °C 0,0 km/h (0 Bft)
15.06.2019 03:38 16,4 °C 74 % 1007,2 hPa 0,0 mm 0,0 km/h (0 Bft) S 182 ° 0 min 0,000 mm 0,0 UV-I 0 W/m² 11,8 °C 16,4 °C 0,0 km/h (0 Bft)
15.06.2019 03:39 16,4 °C 75 % 1007,2 hPa 0,0 mm 0,0 km/h (0 Bft) S 182 ° 0 min 0,000 mm 0,0 UV-I 0 W/m² 12,0 °C 16,4 °C 0,0 km/h (0 Bft)
15.06.2019 03:40 16,3 °C 75 % 1007,2 hPa 0,0 mm 0,0 km/h (0 Bft) S 182 ° 0 min 0,000 mm 0,0 UV-I 0 W/m² 11,9 °C 16,3 °C 0,0 km/h (0 Bft)
15.06.2019 03:41 16,2 °C 75 % 1007,2 hPa 0,0 mm 0,0 km/h (0 Bft) S 182 ° 0 min 0,000 mm 0,0 UV-I 0 W/m² 11,8 °C 16,2 °C 0,0 km/h (0 Bft)
15.06.2019 03:42 16,1 °C 76 % 1007,2 hPa 0,0 mm 0,0 km/h (0 Bft) S 182 ° 0 min 0,000 mm 0,0 UV-I 0 W/m² 11,9 °C 16,1 °C 0,0 km/h (0 Bft)
15.06.2019 03:43 16,1 °C 76 % 1007,2 hPa 0,0 mm 0,0 km/h (0 Bft) S 182 ° 0 min 0,000 mm 0,0 UV-I 0 W/m² 11,9 °C 16,1 °C 0,0 km/h (0 Bft)
15.06.2019 03:44 16,0 °C 76 % 1007,2 hPa 0,0 mm 0,0 km/h (0 Bft) S 182 ° 0 min 0,000 mm 0,0 UV-I 0 W/m² 11,8 °C 16,0 °C 0,0 km/h (0 Bft)
15.06.2019 03:45 15,9 °C 77 % 1007,2 hPa 0,0 mm 0,0 km/h (0 Bft) S 182 ° 0 min 0,000 mm 0,0 UV-I 0 W/m² 11,9 °C 15,9 °C 0,0 km/h (0 Bft)
15.06.2019 03:46 15,8 °C 78 % 1007,3 hPa 0,0 mm 0,0 km/h (0 Bft) S 182 ° 0 min 0,000 mm 0,0 UV-I 0 W/m² 12,0 °C 15,8 °C 0,0 km/h (0 Bft)
15.06.2019 03:47 15,6 °C 78 % 1007,3 hPa 0,0 mm 0,0 km/h (0 Bft) S 182 ° 0 min 0,000 mm 0,0 UV-I 0 W/m² 11,8 °C 15,6 °C 0,0 km/h (0 Bft)
15.06.2019 03:48 15,4 °C 79 % 1007,3 hPa 0,0 mm 0,0 km/h (0 Bft) S 182 ° 0 min 0,000 mm 0,0 UV-I 0 W/m² 11,8 °C 15,4 °C 0,0 km/h (0 Bft)
15.06.2019 03:49 15,4 °C 79 % 1007,3 hPa 0,0 mm 0,0 km/h (0 Bft) S 181 ° 0 min 0,000 mm 0,0 UV-I 0 W/m² 11,8 °C 15,4 °C 0,0 km/h (0 Bft)
15.06.2019 03:50 15,4 °C 80 % 1007,2 hPa 0,0 mm 0,0 km/h (0 Bft) S 181 ° 0 min 0,000 mm 0,0 UV-I 0 W/m² 12,0 °C 15,4 °C 0,0 km/h (0 Bft)
15.06.2019 03:51 15,3 °C 80 % 1007,2 hPa 0,0 mm 0,0 km/h (0 Bft) S 181 ° 0 min 0,000 mm 0,0 UV-I 0 W/m² 11,9 °C 15,3 °C 0,0 km/h (0 Bft)
15.06.2019 03:52 15,2 °C 80 % 1007,2 hPa 0,0 mm 0,0 km/h (0 Bft) S 181 ° 0 min 0,000 mm 0,0 UV-I 0 W/m² 11,8 °C 15,2 °C 0,0 km/h (0 Bft)
15.06.2019 03:53 15,2 °C 81 % 1007,2 hPa 0,0 mm 0,0 km/h (0 Bft) S 181 ° 0 min 0,000 mm 0,0 UV-I 0 W/m² 12,0 °C 15,2 °C 0,0 km/h (0 Bft)
15.06.2019 03:54 15,1 °C 81 % 1007,2 hPa 0,0 mm 0,0 km/h (0 Bft) S 181 ° 0 min 0,000 mm 0,0 UV-I 0 W/m² 11,9 °C 15,1 °C 0,0 km/h (0 Bft)
15.06.2019 03:55 15,1 °C 81 % 1007,2 hPa 0,0 mm 0,0 km/h (0 Bft) S 181 ° 0 min 0,000 mm 0,0 UV-I 0 W/m² 11,9 °C 15,1 °C 0,0 km/h (0 Bft)
15.06.2019 03:56 15,1 °C 81 % 1007,2 hPa 0,0 mm 0,0 km/h (0 Bft) S 181 ° 0 min 0,000 mm 0,0 UV-I 0 W/m² 11,9 °C 15,1 °C 0,0 km/h (0 Bft)
15.06.2019 03:57 15,1 °C 81 % 1007,2 hPa 0,0 mm 0,0 km/h (0 Bft) S 181 ° 0 min 0,000 mm 0,0 UV-I 0 W/m² 11,9 °C 15,1 °C 0,0 km/h (0 Bft)
15.06.2019 03:58 15,2 °C 81 % 1007,2 hPa 0,0 mm 0,0 km/h (0 Bft) S 182 ° 0 min 0,000 mm 0,0 UV-I 0 W/m² 12,0 °C 15,2 °C 0,0 km/h (0 Bft)
15.06.2019 03:59 15,3 °C 80 % 1007,2 hPa 0,0 mm 0,0 km/h (0 Bft) S 182 ° 0 min 0,000 mm 0,0 UV-I 0 W/m² 11,9 °C 15,3 °C 0,0 km/h (0 Bft)
15.06.2019 04:00 15,4 °C 80 % 1007,2 hPa 0,0 mm 0,0 km/h (0 Bft) S 182 ° 0 min 0,000 mm 0,0 UV-I 0 W/m² 12,0 °C 15,4 °C 0,0 km/h (0 Bft)
15.06.2019 04:01 15,5 °C 80 % 1007,3 hPa 0,0 mm 0,0 km/h (0 Bft) S 182 ° 0 min 0,026 mm 0,0 UV-I 0 W/m² 12,1 °C 15,5 °C 0,0 km/h (0 Bft)
15.06.2019 04:02 15,4 °C 80 % 1007,3 hPa 0,0 mm 0,0 km/h (0 Bft) S 181 ° 0 min 0,000 mm 0,0 UV-I 0 W/m² 12,0 °C 15,4 °C 0,0 km/h (0 Bft)
15.06.2019 04:03 15,3 °C 80 % 1007,2 hPa 0,0 mm 0,0 km/h (0 Bft) S 181 ° 0 min 0,000 mm 0,0 UV-I 0 W/m² 11,9 °C 15,3 °C 0,0 km/h (0 Bft)
15.06.2019 04:04 15,3 °C 80 % 1007,1 hPa 0,0 mm 0,0 km/h (0 Bft) S 181 ° 0 min 0,000 mm 0,0 UV-I 0 W/m² 11,9 °C 15,3 °C 0,0 km/h (0 Bft)
15.06.2019 04:05 15,2 °C 80 % 1007,1 hPa 0,0 mm 0,0 km/h (0 Bft) S 181 ° 0 min 0,000 mm 0,0 UV-I 0 W/m² 11,8 °C 15,2 °C 0,0 km/h (0 Bft)
15.06.2019 04:06 15,2 °C 80 % 1007,1 hPa 0,0 mm 0,0 km/h (0 Bft) S 181 ° 0 min 0,000 mm 0,0 UV-I 0 W/m² 11,8 °C 15,2 °C 0,0 km/h (0 Bft)
15.06.2019 04:07 15,2 °C 80 % 1007,2 hPa 0,0 mm 0,0 km/h (0 Bft) S 181 ° 0 min 0,000 mm 0,0 UV-I 0 W/m² 11,8 °C 15,2 °C 0,0 km/h (0 Bft)
15.06.2019 04:08 15,2 °C 80 % 1007,1 hPa 0,0 mm 0,0 km/h (0 Bft) S 181 ° 0 min 0,000 mm 0,0 UV-I 0 W/m² 11,8 °C 15,2 °C 0,0 km/h (0 Bft)
15.06.2019 04:09 15,1 °C 80 % 1007,2 hPa 0,0 mm 0,0 km/h (0 Bft) S 181 ° 0 min 0,000 mm 0,0 UV-I 0 W/m² 11,7 °C 15,1 °C 0,0 km/h (0 Bft)
15.06.2019 04:10 15,0 °C 80 % 1007,2 hPa 0,0 mm 0,0 km/h (0 Bft) S 181 ° 0 min 0,000 mm 0,0 UV-I 0 W/m² 11,6 °C 15,0 °C 0,0 km/h (0 Bft)
15.06.2019 04:11 15,0 °C 80 % 1007,2 hPa 0,0 mm 0,0 km/h (0 Bft) S 181 ° 0 min 0,000 mm 0,0 UV-I 0 W/m² 11,6 °C 15,0 °C 0,0 km/h (0 Bft)
15.06.2019 04:12 15,0 °C 80 % 1007,2 hPa 0,0 mm 0,0 km/h (0 Bft) S 181 ° 0 min 0,000 mm 0,0 UV-I 0 W/m² 11,6 °C 15,0 °C 0,0 km/h (0 Bft)
15.06.2019 04:13 15,1 °C 80 % 1007,2 hPa 0,0 mm 0,0 km/h (0 Bft) S 181 ° 0 min 0,000 mm 0,0 UV-I 0 W/m² 11,7 °C 15,1 °C 0,0 km/h (0 Bft)
15.06.2019 04:14 15,1 °C 78 % 1007,1 hPa 0,0 mm 0,0 km/h (0 Bft) S 181 ° 0 min 0,000 mm 0,0 UV-I 0 W/m² 11,3 °C 15,1 °C 0,0 km/h (0 Bft)
15.06.2019 04:15 15,2 °C 78 % 1007,1 hPa 0,0 mm 0,0 km/h (0 Bft) S 181 ° 0 min 0,000 mm 0,0 UV-I 0 W/m² 11,4 °C 15,2 °C 0,0 km/h (0 Bft)
15.06.2019 04:16 15,2 °C 77 % 1007,1 hPa 0,0 mm 0,0 km/h (0 Bft) S 181 ° 0 min 0,000 mm 0,0 UV-I 0 W/m² 11,2 °C 15,2 °C 0,0 km/h (0 Bft)
15.06.2019 04:17 15,3 °C 77 % 1007,1 hPa 0,0 mm 0,0 km/h (0 Bft) S 181 ° 0 min 0,000 mm 0,0 UV-I 0 W/m² 11,3 °C 15,3 °C 0,0 km/h (0 Bft)
15.06.2019 04:18 15,3 °C 76 % 1007,1 hPa 0,0 mm 0,0 km/h (0 Bft) S 181 ° 0 min 0,000 mm 0,0 UV-I 0 W/m² 11,1 °C 15,3 °C 0,0 km/h (0 Bft)
15.06.2019 04:19 15,2 °C 76 % 1007,1 hPa 0,0 mm 0,0 km/h (0 Bft) S 181 ° 0 min 0,000 mm 0,0 UV-I 0 W/m² 11,0 °C 15,2 °C 0,0 km/h (0 Bft)
15.06.2019 04:20 15,1 °C 76 % 1007,1 hPa 0,0 mm 0,0 km/h (0 Bft) S 181 ° 0 min 0,000 mm 0,0 UV-I 0 W/m² 10,9 °C 15,1 °C 0,0 km/h (0 Bft)
15.06.2019 04:21 15,0 °C 77 % 1007,1 hPa 0,0 mm 0,0 km/h (0 Bft) S 181 ° 0 min 0,000 mm 0,0 UV-I 0 W/m² 11,0 °C 15,0 °C 0,0 km/h (0 Bft)
15.06.2019 04:22 15,0 °C 77 % 1007,0 hPa 0,0 mm 0,0 km/h (0 Bft) S 181 ° 0 min 0,000 mm 0,0 UV-I 0 W/m² 11,0 °C 15,0 °C 0,0 km/h (0 Bft)
15.06.2019 04:23 14,9 °C 77 % 1007,0 hPa 0,0 mm 0,0 km/h (0 Bft) S 181 ° 0 min 0,000 mm 0,0 UV-I 0 W/m² 10,9 °C 14,9 °C 0,0 km/h (0 Bft)
15.06.2019 04:24 14,9 °C 77 % 1007,0 hPa 0,0 mm 0,0 km/h (0 Bft) S 181 ° 0 min 0,000 mm 0,0 UV-I 0 W/m² 10,9 °C 14,9 °C 0,0 km/h (0 Bft)
15.06.2019 04:25 14,8 °C 77 % 1007,0 hPa 0,0 mm 0,0 km/h (0 Bft) S 181 ° 0 min 0,000 mm 0,0 UV-I 0 W/m² 10,8 °C 14,8 °C 0,0 km/h (0 Bft)
15.06.2019 04:26 14,7 °C 78 % 1007,0 hPa 0,0 mm 0,0 km/h (0 Bft) S 181 ° 0 min 0,000 mm 0,0 UV-I 0 W/m² 10,9 °C 14,7 °C 0,0 km/h (0 Bft)
15.06.2019 04:27 14,6 °C 79 % 1007,0 hPa 0,0 mm 0,0 km/h (0 Bft) S 181 ° 0 min 0,000 mm 0,0 UV-I 0 W/m² 11,0 °C 14,6 °C 0,0 km/h (0 Bft)
15.06.2019 04:28 14,6 °C 80 % 1007,0 hPa 0,0 mm 0,0 km/h (0 Bft) S 181 ° 0 min 0,000 mm 0,0 UV-I 0 W/m² 11,2 °C 14,6 °C 0,0 km/h (0 Bft)
15.06.2019 04:29 14,4 °C 80 % 1007,0 hPa 0,0 mm 0,0 km/h (0 Bft) S 181 ° 0 min 0,000 mm 0,0 UV-I 0 W/m² 11,0 °C 14,4 °C 0,0 km/h (0 Bft)
15.06.2019 04:30 14,4 °C 80 % 1007,0 hPa 0,0 mm 0,0 km/h (0 Bft) S 181 ° 0 min 0,000 mm 0,0 UV-I 0 W/m² 11,0 °C 14,4 °C 0,0 km/h (0 Bft)
15.06.2019 04:31 14,5 °C 78 % 1007,0 hPa 0,0 mm 0,0 km/h (0 Bft) S 181 ° 0 min 0,000 mm 0,0 UV-I 0 W/m² 10,7 °C 14,5 °C 0,0 km/h (0 Bft)
15.06.2019 04:32 14,6 °C 78 % 1006,9 hPa 0,0 mm 0,0 km/h (0 Bft) S 181 ° 0 min 0,000 mm 0,0 UV-I 0 W/m² 10,8 °C 14,6 °C 0,0 km/h (0 Bft)
15.06.2019 04:33 14,7 °C 78 % 1006,9 hPa 0,0 mm 0,0 km/h (0 Bft) S 181 ° 0 min 0,000 mm 0,0 UV-I 0 W/m² 10,9 °C 14,7 °C 0,0 km/h (0 Bft)
15.06.2019 04:34 14,8 °C 77 % 1006,8 hPa 0,0 mm 0,0 km/h (0 Bft) S 181 ° 0 min 0,000 mm 0,0 UV-I 0 W/m² 10,8 °C 14,8 °C 0,0 km/h (0 Bft)
15.06.2019 04:35 14,8 °C 77 % 1006,8 hPa 0,0 mm 0,0 km/h (0 Bft) S 181 ° 0 min 0,000 mm 0,0 UV-I 0 W/m² 10,8 °C 14,8 °C 0,0 km/h (0 Bft)
15.06.2019 04:36 14,9 °C 77 % 1006,8 hPa 0,0 mm 0,0 km/h (0 Bft) S 181 ° 0 min 0,000 mm 0,0 UV-I 0 W/m² 10,9 °C 14,9 °C 0,0 km/h (0 Bft)
15.06.2019 04:37 15,0 °C 76 % 1006,8 hPa 0,0 mm 0,0 km/h (0 Bft) S 181 ° 0 min 0,000 mm 0,0 UV-I 0 W/m² 10,8 °C 15,0 °C 0,0 km/h (0 Bft)
15.06.2019 04:38 15,0 °C 76 % 1006,9 hPa 0,0 mm 0,0 km/h (0 Bft) S 181 ° 0 min 0,000 mm 0,0 UV-I 0 W/m² 10,8 °C 15,0 °C 0,0 km/h (0 Bft)
15.06.2019 04:39 15,1 °C 76 % 1006,9 hPa 0,0 mm 0,0 km/h (0 Bft) S 181 ° 0 min 0,000 mm 0,0 UV-I 0 W/m² 10,9 °C 15,1 °C 0,0 km/h (0 Bft)
15.06.2019 04:40 15,1 °C 76 % 1007,0 hPa 0,0 mm 0,0 km/h (0 Bft) S 181 ° 0 min 0,000 mm 0,0 UV-I 0 W/m² 10,9 °C 15,1 °C 0,0 km/h (0 Bft)
15.06.2019 04:41 15,1 °C 77 % 1007,0 hPa 0,0 mm 0,0 km/h (0 Bft) S 181 ° 0 min 0,000 mm 0,0 UV-I 0 W/m² 11,1 °C 15,1 °C 0,0 km/h (0 Bft)
15.06.2019 04:42 14,9 °C 78 % 1007,0 hPa 0,0 mm 0,1 km/h (0 Bft) N-NW 333 ° 0 min 0,000 mm 0,0 UV-I 0 W/m² 11,1 °C 14,9 °C 1,6 km/h (1 Bft)
15.06.2019 04:43 14,8 °C 79 % 1007,1 hPa 0,0 mm 0,0 km/h (0 Bft) N-NW 333 ° 0 min 0,000 mm 0,0 UV-I 0 W/m² 11,2 °C 14,8 °C 0,0 km/h (0 Bft)
15.06.2019 04:44 14,7 °C 79 % 1007,1 hPa 0,0 mm 0,0 km/h (0 Bft) N-NW 333 ° 0 min 0,000 mm 0,0 UV-I 0 W/m² 11,1 °C 14,7 °C 0,0 km/h (0 Bft)
15.06.2019 04:45 14,7 °C 79 % 1007,0 hPa 0,0 mm 0,0 km/h (0 Bft) N-NW 333 ° 0 min 0,000 mm 0,0 UV-I 0 W/m² 11,1 °C 14,7 °C 0,0 km/h (0 Bft)
15.06.2019 04:46 14,8 °C 78 % 1007,0 hPa 0,0 mm 0,0 km/h (0 Bft) N-NW 333 ° 0 min 0,000 mm 0,0 UV-I 0 W/m² 11,0 °C 14,8 °C 0,0 km/h (0 Bft)
15.06.2019 04:47 14,9 °C 78 % 1007,0 hPa 0,0 mm 0,0 km/h (0 Bft) N-NW 333 ° 0 min 0,000 mm 0,0 UV-I 0 W/m² 11,1 °C 14,9 °C 0,0 km/h (0 Bft)
15.06.2019 04:48 15,0 °C 76 % 1007,0 hPa 0,0 mm 0,0 km/h (0 Bft) N-NW 333 ° 0 min 0,000 mm 0,0 UV-I 0 W/m² 10,8 °C 15,0 °C 0,0 km/h (0 Bft)
15.06.2019 04:49 15,1 °C 75 % 1007,1 hPa 0,0 mm 0,0 km/h (0 Bft) N-NW 333 ° 0 min 0,000 mm 0,0 UV-I 0 W/m² 10,7 °C 15,1 °C 0,0 km/h (0 Bft)
15.06.2019 04:50 15,3 °C 74 % 1007,1 hPa 0,0 mm 0,7 km/h (0 Bft) N-NW 333 ° 0 min 0,000 mm 0,0 UV-I 0 W/m² 10,7 °C 15,3 °C 3,2 km/h (1 Bft)
15.06.2019 04:51 15,4 °C 73 % 1007,1 hPa 0,0 mm 0,4 km/h (0 Bft) N-NW 333 ° 0 min 0,000 mm 0,0 UV-I 0 W/m² 10,6 °C 15,4 °C 3,2 km/h (1 Bft)
15.06.2019 04:52 15,7 °C 72 % 1007,2 hPa 0,0 mm 0,0 km/h (0 Bft) N-NW 333 ° 0 min 0,000 mm 0,0 UV-I 0 W/m² 10,7 °C 15,7 °C 0,0 km/h (0 Bft)
15.06.2019 04:53 15,7 °C 73 % 1007,2 hPa 0,0 mm 0,0 km/h (0 Bft) N-NW 333 ° 0 min 0,000 mm 0,0 UV-I 0 W/m² 10,9 °C 15,7 °C 0,0 km/h (0 Bft)
15.06.2019 04:54 15,7 °C 73 % 1007,2 hPa 0,0 mm 0,0 km/h (0 Bft) N-NW 333 ° 0 min 0,000 mm 0,0 UV-I 0 W/m² 10,9 °C 15,7 °C 0,0 km/h (0 Bft)
15.06.2019 04:55 15,7 °C 73 % 1007,2 hPa 0,0 mm 0,0 km/h (0 Bft) N-NW 333 ° 0 min 0,000 mm 0,0 UV-I 0 W/m² 10,9 °C 15,7 °C 0,0 km/h (0 Bft)
15.06.2019 04:56 15,7 °C 72 % 1007,2 hPa 0,0 mm 0,0 km/h (0 Bft) N-NW 333 ° 0 min 0,000 mm 0,0 UV-I 0 W/m² 10,7 °C 15,7 °C 0,0 km/h (0 Bft)
15.06.2019 04:57 15,8 °C 71 % 1007,1 hPa 0,0 mm 0,0 km/h (0 Bft) N-NW 333 ° 0 min 0,000 mm 0,0 UV-I 0 W/m² 10,6 °C 15,8 °C 0,0 km/h (0 Bft)
15.06.2019 04:58 15,9 °C 71 % 1007,1 hPa 0,0 mm 0,0 km/h (0 Bft) N-NW 333 ° 0 min 0,000 mm 0,0 UV-I 0 W/m² 10,6 °C 15,9 °C 0,0 km/h (0 Bft)
15.06.2019 04:59 16,0 °C 70 % 1007,1 hPa 0,0 mm 0,3 km/h (0 Bft) N-NW 333 ° 0 min 0,000 mm 0,0 UV-I 0 W/m² 10,5 °C 16,0 °C 3,2 km/h (1 Bft)
15.06.2019 05:00 16,0 °C 71 % 1007,1 hPa 0,0 mm 2,1 km/h (1 Bft) N-NW 333 ° 0 min 0,025 mm 0,0 UV-I 0 W/m² 10,7 °C 16,0 °C 3,2 km/h (1 Bft)
15.06.2019 05:01 16,1 °C 70 % 1007,1 hPa 0,0 mm 0,3 km/h (0 Bft) N-NW 333 ° 0 min 0,000 mm 0,0 UV-I 0 W/m² 10,6 °C 16,1 °C 1,6 km/h (1 Bft)
15.06.2019 05:02 16,1 °C 69 % 1007,2 hPa 0,0 mm 0,0 km/h (0 Bft) N-NW 333 ° 0 min 0,000 mm 0,0 UV-I 0 W/m² 10,4 °C 16,1 °C 0,0 km/h (0 Bft)
15.06.2019 05:03 16,2 °C 70 % 1007,2 hPa 0,0 mm 0,0 km/h (0 Bft) N-NW 333 ° 0 min 0,000 mm 0,0 UV-I 0 W/m² 10,7 °C 16,2 °C 0,0 km/h (0 Bft)
15.06.2019 05:04 16,2 °C 69 % 1007,2 hPa 0,0 mm 0,0 km/h (0 Bft) N-NW 333 ° 0 min 0,000 mm 0,0 UV-I 0 W/m² 10,5 °C 16,2 °C 0,0 km/h (0 Bft)
15.06.2019 05:05 16,3 °C 68 % 1007,2 hPa 0,0 mm 0,0 km/h (0 Bft) N-NW 333 ° 0 min 0,000 mm 0,0 UV-I 0 W/m² 10,4 °C 16,3 °C 0,0 km/h (0 Bft)
15.06.2019 05:06 16,4 °C 69 % 1007,2 hPa 0,0 mm 0,0 km/h (0 Bft) N-NW 333 ° 0 min 0,000 mm 0,0 UV-I 0 W/m² 10,7 °C 16,4 °C 0,0 km/h (0 Bft)
15.06.2019 05:07 16,4 °C 68 % 1007,1 hPa 0,0 mm 0,0 km/h (0 Bft) N-NW 333 ° 0 min 0,000 mm 0,0 UV-I 0 W/m² 10,5 °C 16,4 °C 0,0 km/h (0 Bft)
15.06.2019 05:08 16,4 °C 68 % 1007,1 hPa 0,0 mm 0,0 km/h (0 Bft) N-NW 333 ° 0 min 0,000 mm 0,0 UV-I 0 W/m² 10,5 °C 16,4 °C 0,0 km/h (0 Bft)
15.06.2019 05:09 16,5 °C 67 % 1007,1 hPa 0,0 mm 0,0 km/h (0 Bft) N-NW 333 ° 0 min 0,000 mm 0,0 UV-I 0 W/m² 10,4 °C 16,5 °C 0,0 km/h (0 Bft)
15.06.2019 05:10 16,5 °C 67 % 1007,1 hPa 0,0 mm 0,0 km/h (0 Bft) N-NW 333 ° 0 min 0,000 mm 0,0 UV-I 0 W/m² 10,4 °C 16,5 °C 0,0 km/h (0 Bft)
15.06.2019 05:11 16,6 °C 67 % 1007,1 hPa 0,0 mm 0,0 km/h (0 Bft) N-NW 333 ° 0 min 0,000 mm 0,0 UV-I 0 W/m² 10,4 °C 16,6 °C 0,0 km/h (0 Bft)
15.06.2019 05:12 16,6 °C 67 % 1007,1 hPa 0,0 mm 0,0 km/h (0 Bft) N-NW 333 ° 0 min 0,000 mm 0,0 UV-I 0 W/m² 10,4 °C 16,6 °C 0,0 km/h (0 Bft)
15.06.2019 05:13 16,6 °C 68 % 1007,0 hPa 0,0 mm 0,5 km/h (0 Bft) N-NW 333 ° 0 min 0,000 mm 0,0 UV-I 0 W/m² 10,7 °C 16,6 °C 1,6 km/h (1 Bft)
15.06.2019 05:14 16,3 °C 69 % 1007,1 hPa 0,0 mm 0,0 km/h (0 Bft) N-NW 333 ° 0 min 0,000 mm 0,0 UV-I 0 W/m² 10,6 °C 16,3 °C 0,0 km/h (0 Bft)
15.06.2019 05:15 16,1 °C 70 % 1007,2 hPa 0,0 mm 0,0 km/h (0 Bft) N-NW 333 ° 0 min 0,000 mm 0,0 UV-I 0 W/m² 10,6 °C 16,1 °C 0,0 km/h (0 Bft)
15.06.2019 05:16 15,8 °C 71 % 1007,2 hPa 0,0 mm 0,0 km/h (0 Bft) N-NW 333 ° 0 min 0,000 mm 0,0 UV-I 0 W/m² 10,6 °C 15,8 °C 0,0 km/h (0 Bft)
15.06.2019 05:17 15,5 °C 72 % 1007,2 hPa 0,0 mm 0,0 km/h (0 Bft) N-NW 333 ° 0 min 0,000 mm 0,0 UV-I 0 W/m² 10,5 °C 15,5 °C 0,0 km/h (0 Bft)
15.06.2019 05:18 15,4 °C 74 % 1007,2 hPa 0,0 mm 0,0 km/h (0 Bft) N-NW 333 ° 0 min 0,000 mm 0,0 UV-I 0 W/m² 10,8 °C 15,4 °C 0,0 km/h (0 Bft)
15.06.2019 05:19 15,3 °C 74 % 1007,2 hPa 0,0 mm 0,1 km/h (0 Bft) N-NW 333 ° 0 min 0,000 mm 0,0 UV-I 0 W/m² 10,7 °C 15,3 °C 1,6 km/h (1 Bft)
15.06.2019 05:20 15,3 °C 74 % 1007,2 hPa 0,0 mm 0,5 km/h (0 Bft) N-NW 333 ° 0 min 0,000 mm 0,0 UV-I 0 W/m² 10,7 °C 15,3 °C 1,6 km/h (1 Bft)
15.06.2019 05:21 15,3 °C 74 % 1007,1 hPa 0,0 mm 0,0 km/h (0 Bft) N-NW 333 ° 0 min 0,000 mm 0,0 UV-I 0 W/m² 10,7 °C 15,3 °C 0,0 km/h (0 Bft)
15.06.2019 05:22 15,3 °C 73 % 1007,2 hPa 0,0 mm 0,0 km/h (0 Bft) N-NW 333 ° 0 min 0,000 mm 0,0 UV-I 0 W/m² 10,5 °C 15,3 °C 0,0 km/h (0 Bft)
15.06.2019 05:23 15,4 °C 73 % 1007,2 hPa 0,0 mm 0,5 km/h (0 Bft) N-NW 333 ° 0 min 0,000 mm 0,0 UV-I 0 W/m² 10,6 °C 15,4 °C 3,2 km/h (1 Bft)
15.06.2019 05:24 15,7 °C 71 % 1007,4 hPa 0,0 mm 1,9 km/h (1 Bft) W 277 ° 0 min 0,000 mm 0,0 UV-I 0 W/m² 10,5 °C 15,7 °C 4,8 km/h (1 Bft)
15.06.2019 05:25 15,9 °C 70 % 1007,4 hPa 0,0 mm 0,0 km/h (0 Bft) W 276 ° 0 min 0,000 mm 0,0 UV-I 0 W/m² 10,4 °C 15,9 °C 0,0 km/h (0 Bft)
15.06.2019 05:26 15,9 °C 72 % 1007,4 hPa 0,0 mm 0,0 km/h (0 Bft) W 276 ° 0 min 0,000 mm 0,0 UV-I 0 W/m² 10,9 °C 15,9 °C 0,0 km/h (0 Bft)
15.06.2019 05:27 15,7 °C 73 % 1007,3 hPa 0,0 mm 0,2 km/h (0 Bft) W 276 ° 0 min 0,000 mm 0,0 UV-I 0 W/m² 10,9 °C 15,7 °C 1,6 km/h (1 Bft)
15.06.2019 05:28 15,6 °C 73 % 1007,4 hPa 0,0 mm 0,0 km/h (0 Bft) W 276 ° 0 min 0,000 mm 0,0 UV-I 0 W/m² 10,8 °C 15,6 °C 0,0 km/h (0 Bft)
15.06.2019 05:29 15,5 °C 73 % 1007,3 hPa 0,0 mm 0,0 km/h (0 Bft) W 276 ° 0 min 0,000 mm 0,0 UV-I 0 W/m² 10,7 °C 15,5 °C 0,0 km/h (0 Bft)
15.06.2019 05:30 15,6 °C 72 % 1007,3 hPa 0,0 mm 0,0 km/h (0 Bft) W 276 ° 0 min 0,000 mm 0,0 UV-I 0 W/m² 10,6 °C 15,6 °C 0,0 km/h (0 Bft)
15.06.2019 05:31 15,6 °C 71 % 1007,4 hPa 0,0 mm 0,0 km/h (0 Bft) W 276 ° 0 min 0,000 mm 0,0 UV-I 5 W/m² 10,4 °C 15,6 °C 0,0 km/h (0 Bft)
15.06.2019 05:32 15,7 °C 71 % 1007,4 hPa 0,0 mm 0,0 km/h (0 Bft) W 276 ° 0 min 0,000 mm 0,0 UV-I 5 W/m² 10,5 °C 15,7 °C 0,0 km/h (0 Bft)
15.06.2019 05:33 15,8 °C 71 % 1007,5 hPa 0,0 mm 0,0 km/h (0 Bft) W 276 ° 0 min 0,000 mm 0,0 UV-I 5 W/m² 10,6 °C 15,8 °C 0,0 km/h (0 Bft)
15.06.2019 05:34 15,9 °C 70 % 1007,4 hPa 0,0 mm 0,0 km/h (0 Bft) W 276 ° 0 min 0,000 mm 0,0 UV-I 5 W/m² 10,4 °C 15,9 °C 0,0 km/h (0 Bft)
15.06.2019 05:35 16,0 °C 70 % 1007,4 hPa 0,0 mm 0,0 km/h (0 Bft) W 276 ° 0 min 0,000 mm 0,0 UV-I 5 W/m² 10,5 °C 16,0 °C 0,0 km/h (0 Bft)
15.06.2019 05:36 16,0 °C 70 % 1007,5 hPa 0,0 mm 0,0 km/h (0 Bft) W 276 ° 0 min 0,000 mm 0,0 UV-I 5 W/m² 10,5 °C 16,0 °C 0,0 km/h (0 Bft)
15.06.2019 05:37 16,1 °C 70 % 1007,4 hPa 0,0 mm 0,3 km/h (0 Bft) W 276 ° 0 min 0,000 mm 0,0 UV-I 5 W/m² 10,6 °C 16,1 °C 1,6 km/h (1 Bft)
15.06.2019 05:38 16,1 °C 70 % 1007,4 hPa 0,0 mm 0,0 km/h (0 Bft) W 276 ° 0 min 0,000 mm 0,0 UV-I 5 W/m² 10,6 °C 16,1 °C 0,0 km/h (0 Bft)
15.06.2019 05:39 16,1 °C 70 % 1007,5 hPa 0,0 mm 0,0 km/h (0 Bft) W 276 ° 0 min 0,000 mm 0,0 UV-I 5 W/m² 10,6 °C 16,1 °C 0,0 km/h (0 Bft)
15.06.2019 05:40 16,2 °C 69 % 1007,6 hPa 0,0 mm 0,0 km/h (0 Bft) W 276 ° 0 min 0,000 mm 0,0 UV-I 7 W/m² 10,5 °C 16,2 °C 0,0 km/h (0 Bft)
15.06.2019 05:41 16,3 °C 68 % 1007,6 hPa 0,0 mm 2,0 km/h (1 Bft) W 276 ° 0 min 0,000 mm 0,0 UV-I 7 W/m² 10,4 °C 16,3 °C 6,4 km/h (2 Bft)
15.06.2019 05:42 16,4 °C 68 % 1007,6 hPa 0,0 mm 0,2 km/h (0 Bft) W 276 ° 0 min 0,000 mm 0,0 UV-I 7 W/m² 10,5 °C 16,4 °C 1,6 km/h (1 Bft)
15.06.2019 05:43 16,6 °C 67 % 1007,6 hPa 0,0 mm 0,5 km/h (0 Bft) W 276 ° 0 min 0,000 mm 0,0 UV-I 7 W/m² 10,4 °C 16,6 °C 1,6 km/h (1 Bft)
15.06.2019 05:44 16,7 °C 68 % 1007,6 hPa 0,0 mm 0,0 km/h (0 Bft) W 276 ° 0 min 0,000 mm 0,0 UV-I 7 W/m² 10,8 °C 16,7 °C 0,0 km/h (0 Bft)
15.06.2019 05:45 16,7 °C 68 % 1007,7 hPa 0,0 mm 0,0 km/h (0 Bft) W 276 ° 0 min 0,000 mm 0,0 UV-I 9 W/m² 10,8 °C 16,7 °C 0,0 km/h (0 Bft)
15.06.2019 05:46 16,7 °C 68 % 1007,6 hPa 0,0 mm 0,0 km/h (0 Bft) W 276 ° 0 min 0,000 mm 0,0 UV-I 9 W/m² 10,8 °C 16,7 °C 0,0 km/h (0 Bft)
15.06.2019 05:47 16,6 °C 69 % 1007,6 hPa 0,0 mm 0,0 km/h (0 Bft) W 276 ° 0 min 0,000 mm 0,0 UV-I 11 W/m² 10,9 °C 16,6 °C 0,0 km/h (0 Bft)
15.06.2019 05:48 16,4 °C 69 % 1007,6 hPa 0,0 mm 0,0 km/h (0 Bft) W 276 ° 0 min 0,000 mm 0,0 UV-I 11 W/m² 10,7 °C 16,4 °C 0,0 km/h (0 Bft)
15.06.2019 05:49 16,4 °C 69 % 1007,6 hPa 0,0 mm 0,0 km/h (0 Bft) W 276 ° 0 min 0,000 mm 0,0 UV-I 12 W/m² 10,7 °C 16,4 °C 0,0 km/h (0 Bft)
15.06.2019 05:50 16,3 °C 69 % 1007,5 hPa 0,0 mm 0,0 km/h (0 Bft) W 276 ° 0 min 0,000 mm 0,0 UV-I 14 W/m² 10,6 °C 16,3 °C 0,0 km/h (0 Bft)
15.06.2019 05:51 16,3 °C 69 % 1007,5 hPa 0,0 mm 0,1 km/h (0 Bft) W 276 ° 0 min 0,000 mm 0,0 UV-I 14 W/m² 10,6 °C 16,3 °C 1,6 km/h (1 Bft)
15.06.2019 05:52 16,3 °C 70 % 1007,6 hPa 0,0 mm 0,5 km/h (0 Bft) W 276 ° 0 min 0,000 mm 0,0 UV-I 16 W/m² 10,8 °C 16,3 °C 1,6 km/h (1 Bft)
15.06.2019 05:53 16,3 °C 69 % 1007,6 hPa 0,0 mm 0,0 km/h (0 Bft) W 276 ° 0 min 0,000 mm 0,0 UV-I 16 W/m² 10,6 °C 16,3 °C 0,0 km/h (0 Bft)
15.06.2019 05:54 16,3 °C 69 % 1007,6 hPa 0,0 mm 0,0 km/h (0 Bft) W 276 ° 0 min 0,000 mm 0,0 UV-I 18 W/m² 10,6 °C 16,3 °C 0,0 km/h (0 Bft)
15.06.2019 05:55 16,2 °C 71 % 1007,6 hPa 0,0 mm 0,0 km/h (0 Bft) W 276 ° 0 min 0,000 mm 0,0 UV-I 18 W/m² 10,9 °C 16,2 °C 0,0 km/h (0 Bft)
15.06.2019 05:56 16,2 °C 70 % 1007,5 hPa 0,0 mm 0,0 km/h (0 Bft) W 276 ° 0 min 0,000 mm 0,0 UV-I 18 W/m² 10,7 °C 16,2 °C 0,0 km/h (0 Bft)
15.06.2019 05:57 16,2 °C 70 % 1007,6 hPa 0,0 mm 0,0 km/h (0 Bft) W 276 ° 0 min 0,000 mm 0,0 UV-I 18 W/m² 10,7 °C 16,2 °C 0,0 km/h (0 Bft)
15.06.2019 05:58 16,2 °C 70 % 1007,6 hPa 0,0 mm 0,0 km/h (0 Bft) W 276 ° 0 min 0,000 mm 0,0 UV-I 18 W/m² 10,7 °C 16,2 °C 0,0 km/h (0 Bft)
15.06.2019 05:59 16,2 °C 69 % 1007,5 hPa 0,0 mm 0,0 km/h (0 Bft) W 276 ° 0 min 0,000 mm 0,0 UV-I 18 W/m² 10,5 °C 16,2 °C 0,0 km/h (0 Bft)
15.06.2019 06:00 16,2 °C 69 % 1007,6 hPa 0,0 mm 0,0 km/h (0 Bft) W 276 ° 0 min 0,000 mm 0,0 UV-I 18 W/m² 10,5 °C 16,2 °C 0,0 km/h (0 Bft)
15.06.2019 06:01 16,2 °C 70 % 1007,5 hPa 0,0 mm 0,0 km/h (0 Bft) W 276 ° 0 min 0,000 mm 0,0 UV-I 18 W/m² 10,7 °C 16,2 °C 0,0 km/h (0 Bft)
15.06.2019 06:02 16,2 °C 70 % 1007,5 hPa 0,0 mm 0,0 km/h (0 Bft) W 276 ° 0 min 0,000 mm 0,0 UV-I 18 W/m² 10,7 °C 16,2 °C 0,0 km/h (0 Bft)
15.06.2019 06:03 16,3 °C 69 % 1007,6 hPa 0,0 mm 0,0 km/h (0 Bft) W 276 ° 0 min 0,000 mm 0,0 UV-I 19 W/m² 10,6 °C 16,3 °C 0,0 km/h (0 Bft)
15.06.2019 06:04 16,3 °C 70 % 1007,6 hPa 0,0 mm 0,0 km/h (0 Bft) W 276 ° 0 min 0,000 mm 0,0 UV-I 19 W/m² 10,8 °C 16,3 °C 0,0 km/h (0 Bft)
15.06.2019 06:05 16,2 °C 71 % 1007,7 hPa 0,0 mm 0,0 km/h (0 Bft) W 276 ° 0 min 0,000 mm 0,0 UV-I 21 W/m² 10,9 °C 16,2 °C 0,0 km/h (0 Bft)
15.06.2019 06:06 16,0 °C 71 % 1007,6 hPa 0,0 mm 0,0 km/h (0 Bft) W 276 ° 0 min 0,000 mm 0,0 UV-I 23 W/m² 10,7 °C 16,0 °C 0,0 km/h (0 Bft)
15.06.2019 06:07 15,9 °C 71 % 1007,7 hPa 0,0 mm 0,0 km/h (0 Bft) W 276 ° 0 min 0,000 mm 0,0 UV-I 25 W/m² 10,6 °C 15,9 °C 0,0 km/h (0 Bft)
15.06.2019 06:08 15,9 °C 71 % 1007,7 hPa 0,0 mm 0,0 km/h (0 Bft) W 276 ° 0 min 0,000 mm 0,0 UV-I 26 W/m² 10,6 °C 15,9 °C 0,0 km/h (0 Bft)
15.06.2019 06:09 15,9 °C 71 % 1007,7 hPa 0,0 mm 0,0 km/h (0 Bft) W 276 ° 0 min 0,000 mm 0,0 UV-I 28 W/m² 10,6 °C 15,9 °C 0,0 km/h (0 Bft)
15.06.2019 06:10 15,8 °C 71 % 1007,7 hPa 0,0 mm 0,0 km/h (0 Bft) W 276 ° 0 min 0,000 mm 0,0 UV-I 30 W/m² 10,6 °C 15,8 °C 0,0 km/h (0 Bft)
15.06.2019 06:11 15,9 °C 70 % 1007,7 hPa 0,0 mm 0,5 km/h (0 Bft) N-NO 17 ° 0 min 0,000 mm 0,0 UV-I 32 W/m² 10,4 °C 15,9 °C 3,2 km/h (1 Bft)
15.06.2019 06:12 15,9 °C 71 % 1007,7 hPa 0,0 mm 1,1 km/h (1 Bft) O-NO 59 ° 0 min 0,000 mm 0,0 UV-I 32 W/m² 10,6 °C 15,9 °C 3,2 km/h (1 Bft)
15.06.2019 06:13 16,0 °C 71 % 1007,7 hPa 0,0 mm 0,0 km/h (0 Bft) O-NO 59 ° 0 min 0,000 mm 0,0 UV-I 35 W/m² 10,7 °C 16,0 °C 0,0 km/h (0 Bft)
15.06.2019 06:14 15,9 °C 71 % 1007,7 hPa 0,0 mm 0,0 km/h (0 Bft) O-NO 59 ° 0 min 0,000 mm 0,0 UV-I 37 W/m² 10,6 °C 15,9 °C 0,0 km/h (0 Bft)
15.06.2019 06:15 15,9 °C 72 % 1007,7 hPa 0,0 mm 0,0 km/h (0 Bft) O-NO 59 ° 0 min 0,000 mm 0,0 UV-I 39 W/m² 10,9 °C 15,9 °C 0,0 km/h (0 Bft)
15.06.2019 06:16 15,9 °C 73 % 1007,7 hPa 0,0 mm 0,0 km/h (0 Bft) O-NO 59 ° 0 min 0,000 mm 0,0 UV-I 40 W/m² 11,1 °C 15,9 °C 0,0 km/h (0 Bft)
15.06.2019 06:17 15,9 °C 72 % 1007,6 hPa 0,0 mm 0,0 km/h (0 Bft) O-NO 59 ° 0 min 0,000 mm 0,0 UV-I 44 W/m² 10,9 °C 15,9 °C 0,0 km/h (0 Bft)
15.06.2019 06:18 15,9 °C 73 % 1007,6 hPa 0,0 mm 0,0 km/h (0 Bft) O-NO 59 ° 0 min 0,000 mm 0,0 UV-I 47 W/m² 11,1 °C 15,9 °C 0,0 km/h (0 Bft)
15.06.2019 06:19 15,9 °C 73 % 1007,6 hPa 0,0 mm 0,0 km/h (0 Bft) O-NO 59 ° 0 min 0,000 mm 0,0 UV-I 49 W/m² 11,1 °C 15,9 °C 0,0 km/h (0 Bft)
15.06.2019 06:20 15,9 °C 72 % 1007,7 hPa 0,0 mm 0,0 km/h (0 Bft) O-NO 59 ° 0 min 0,000 mm 0,0 UV-I 51 W/m² 10,9 °C 15,9 °C 0,0 km/h (0 Bft)
15.06.2019 06:21 15,9 °C 72 % 1007,7 hPa 0,0 mm 0,0 km/h (0 Bft) O-NO 59 ° 0 min 0,000 mm 0,0 UV-I 53 W/m² 10,9 °C 15,9 °C 0,0 km/h (0 Bft)
15.06.2019 06:22 16,0 °C 72 % 1007,7 hPa 0,0 mm 0,0 km/h (0 Bft) O-NO 59 ° 0 min 0,000 mm 0,0 UV-I 54 W/m² 11,0 °C 16,0 °C 0,0 km/h (0 Bft)
15.06.2019 06:23 16,1 °C 71 % 1007,7 hPa 0,0 mm 0,0 km/h (0 Bft) O-NO 59 ° 0 min 0,000 mm 0,0 UV-I 56 W/m² 10,8 °C 16,1 °C 0,0 km/h (0 Bft)
15.06.2019 06:24 16,2 °C 72 % 1007,7 hPa 0,0 mm 0,0 km/h (0 Bft) O-NO 59 ° 0 min 0,000 mm 0,0 UV-I 58 W/m² 11,1 °C 16,2 °C 0,0 km/h (0 Bft)
15.06.2019 06:25 16,3 °C 70 % 1007,7 hPa 0,0 mm 0,0 km/h (0 Bft) O-NO 59 ° 0 min 0,000 mm 0,0 UV-I 62 W/m² 10,8 °C 16,3 °C 0,0 km/h (0 Bft)
15.06.2019 06:26 16,3 °C 72 % 1007,7 hPa 0,0 mm 0,0 km/h (0 Bft) O-NO 59 ° 0 min 0,000 mm 0,0 UV-I 63 W/m² 11,2 °C 16,3 °C 0,0 km/h (0 Bft)
15.06.2019 06:27 16,4 °C 72 % 1007,7 hPa 0,0 mm 0,0 km/h (0 Bft) O-NO 59 ° 0 min 0,000 mm 0,0 UV-I 65 W/m² 11,3 °C 16,4 °C 0,0 km/h (0 Bft)
15.06.2019 06:28 16,4 °C 73 % 1007,7 hPa 0,0 mm 0,0 km/h (0 Bft) O-NO 59 ° 0 min 0,000 mm 0,0 UV-I 65 W/m² 11,5 °C 16,4 °C 0,0 km/h (0 Bft)
15.06.2019 06:29 16,4 °C 72 % 1007,8 hPa 0,0 mm 0,0 km/h (0 Bft) O-NO 59 ° 0 min 0,000 mm 0,0 UV-I 67 W/m² 11,3 °C 16,4 °C 0,0 km/h (0 Bft)
15.06.2019 06:30 16,4 °C 72 % 1007,8 hPa 0,0 mm 0,0 km/h (0 Bft) O-NO 59 ° 0 min 0,000 mm 0,0 UV-I 70 W/m² 11,3 °C 16,4 °C 0,0 km/h (0 Bft)
15.06.2019 06:31 16,4 °C 73 % 1007,8 hPa 0,0 mm 0,0 km/h (0 Bft) O-NO 59 ° 0 min 0,000 mm 0,0 UV-I 72 W/m² 11,5 °C 16,4 °C 0,0 km/h (0 Bft)
15.06.2019 06:32 16,4 °C 73 % 1007,8 hPa 0,0 mm 0,0 km/h (0 Bft) O-NO 59 ° 0 min 0,000 mm 0,0 UV-I 74 W/m² 11,5 °C 16,4 °C 0,0 km/h (0 Bft)
15.06.2019 06:33 16,5 °C 72 % 1007,8 hPa 0,0 mm 0,0 km/h (0 Bft) O-NO 59 ° 0 min 0,000 mm 0,0 UV-I 76 W/m² 11,4 °C 16,5 °C 0,0 km/h (0 Bft)
15.06.2019 06:34 16,6 °C 73 % 1007,8 hPa 0,0 mm 1,0 km/h (0 Bft) O-NO 59 ° 0 min 0,000 mm 0,0 UV-I 77 W/m² 11,7 °C 16,6 °C 3,2 km/h (1 Bft)
15.06.2019 06:35 16,6 °C 72 % 1007,8 hPa 0,0 mm 0,3 km/h (0 Bft) O-NO 59 ° 0 min 0,000 mm 0,0 UV-I 77 W/m² 11,5 °C 16,6 °C 1,6 km/h (1 Bft)
15.06.2019 06:36 16,7 °C 71 % 1007,7 hPa 0,0 mm 0,0 km/h (0 Bft) O-NO 59 ° 0 min 0,000 mm 0,0 UV-I 83 W/m² 11,4 °C 16,7 °C 0,0 km/h (0 Bft)
15.06.2019 06:37 16,8 °C 71 % 1007,7 hPa 0,0 mm 0,0 km/h (0 Bft) O-NO 59 ° 0 min 0,000 mm 0,0 UV-I 84 W/m² 11,5 °C 16,8 °C 0,0 km/h (0 Bft)
15.06.2019 06:38 16,9 °C 72 % 1007,8 hPa 0,0 mm 0,0 km/h (0 Bft) O-NO 59 ° 0 min 0,000 mm 0,0 UV-I 84 W/m² 11,8 °C 16,9 °C 0,0 km/h (0 Bft)
15.06.2019 06:39 16,9 °C 75 % 1007,7 hPa 0,0 mm 0,0 km/h (0 Bft) O-NO 59 ° 0 min 0,000 mm 0,0 UV-I 88 W/m² 12,4 °C 16,9 °C 0,0 km/h (0 Bft)
15.06.2019 06:40 17,1 °C 70 % 1007,7 hPa 0,0 mm 0,1 km/h (0 Bft) O-NO 59 ° 0 min 0,000 mm 0,0 UV-I 90 W/m² 11,6 °C 17,1 °C 1,6 km/h (1 Bft)
15.06.2019 06:41 17,2 °C 69 % 1007,8 hPa 0,0 mm 0,0 km/h (0 Bft) O-NO 59 ° 0 min 0,000 mm 0,0 UV-I 91 W/m² 11,5 °C 17,2 °C 0,0 km/h (0 Bft)
15.06.2019 06:42 17,2 °C 69 % 1007,7 hPa 0,0 mm 0,0 km/h (0 Bft) O-NO 59 ° 0 min 0,000 mm 0,0 UV-I 95 W/m² 11,5 °C 17,2 °C 0,0 km/h (0 Bft)
15.06.2019 06:43 17,3 °C 70 % 1007,8 hPa 0,0 mm 0,0 km/h (0 Bft) O-NO 59 ° 0 min 0,000 mm 0,5 UV-I 97 W/m² 11,8 °C 17,3 °C 0,0 km/h (0 Bft)
15.06.2019 06:44 17,3 °C 73 % 1007,8 hPa 0,0 mm 0,0 km/h (0 Bft) O-NO 59 ° 0 min 0,000 mm 0,5 UV-I 100 W/m² 12,4 °C 17,3 °C 0,0 km/h (0 Bft)
15.06.2019 06:45 17,4 °C 73 % 1007,8 hPa 0,0 mm 0,0 km/h (0 Bft) O-NO 59 ° 0 min 0,000 mm 0,5 UV-I 102 W/m² 12,5 °C 17,4 °C 0,0 km/h (0 Bft)
15.06.2019 06:46 17,4 °C 69 % 1007,8 hPa 0,0 mm 0,0 km/h (0 Bft) O-NO 59 ° 0 min 0,000 mm 0,5 UV-I 102 W/m² 11,7 °C 17,4 °C 0,0 km/h (0 Bft)
15.06.2019 06:47 17,5 °C 69 % 1007,8 hPa 0,0 mm 0,0 km/h (0 Bft) O-NO 59 ° 0 min 0,000 mm 0,5 UV-I 105 W/m² 11,7 °C 17,5 °C 0,0 km/h (0 Bft)
15.06.2019 06:48 17,6 °C 71 % 1007,8 hPa 0,0 mm 0,0 km/h (0 Bft) O-NO 59 ° 0 min 0,000 mm 0,5 UV-I 111 W/m² 12,3 °C 17,6 °C 0,0 km/h (0 Bft)
15.06.2019 06:49 17,6 °C 71 % 1007,8 hPa 0,0 mm 0,0 km/h (0 Bft) O-NO 59 ° 0 min 0,000 mm 0,5 UV-I 113 W/m² 12,3 °C 17,6 °C 0,0 km/h (0 Bft)
15.06.2019 06:50 17,6 °C 73 % 1007,8 hPa 0,0 mm 0,0 km/h (0 Bft) O-NO 59 ° 0 min 0,000 mm 0,5 UV-I 113 W/m² 12,7 °C 17,6 °C 0,0 km/h (0 Bft)
15.06.2019 06:51 17,7 °C 71 % 1007,8 hPa 0,0 mm 0,0 km/h (0 Bft) O-NO 59 ° 0 min 0,000 mm 0,5 UV-I 118 W/m² 12,4 °C 17,7 °C 0,0 km/h (0 Bft)
15.06.2019 06:52 17,7 °C 71 % 1007,8 hPa 0,0 mm 0,0 km/h (0 Bft) O-NO 59 ° 0 min 0,000 mm 0,6 UV-I 120 W/m² 12,4 °C 17,7 °C 0,0 km/h (0 Bft)
15.06.2019 06:53 17,8 °C 73 % 1007,8 hPa 0,0 mm 0,0 km/h (0 Bft) O-NO 59 ° 0 min 0,000 mm 0,6 UV-I 123 W/m² 12,9 °C 17,8 °C 0,0 km/h (0 Bft)
15.06.2019 06:54 17,9 °C 72 % 1007,9 hPa 0,0 mm 0,0 km/h (0 Bft) O-NO 59 ° 0 min 0,000 mm 0,6 UV-I 125 W/m² 12,8 °C 17,9 °C 0,0 km/h (0 Bft)
15.06.2019 06:55 17,9 °C 73 % 1007,9 hPa 0,0 mm 0,0 km/h (0 Bft) O-NO 59 ° 0 min 0,000 mm 0,6 UV-I 127 W/m² 13,0 °C 17,9 °C 0,0 km/h (0 Bft)
15.06.2019 06:56 18,1 °C 70 % 1007,9 hPa 0,0 mm 7,1 km/h (2 Bft) W 265 ° 0 min 0,000 mm 0,6 UV-I 128 W/m² 12,5 °C 18,1 °C 12,9 km/h (3 Bft)
15.06.2019 06:57 18,3 °C 68 % 1008,3 hPa 0,0 mm 13,7 km/h (3 Bft) W 263 ° 0 min 0,000 mm 0,6 UV-I 130 W/m² 12,3 °C 18,3 °C 17,7 km/h (3 Bft)
15.06.2019 06:58 18,6 °C 64 % 1008,5 hPa 0,0 mm 10,4 km/h (2 Bft) W-SW 244 ° 0 min 0,000 mm 0,6 UV-I 134 W/m² 11,7 °C 18,6 °C 17,7 km/h (3 Bft)
15.06.2019 06:59 18,9 °C 63 % 1008,5 hPa 0,0 mm 8,9 km/h (2 Bft) W 266 ° 0 min 0,000 mm 0,6 UV-I 135 W/m² 11,7 °C 18,9 °C 12,9 km/h (3 Bft)
15.06.2019 07:00 19,1 °C 63 % 1008,6 hPa 0,0 mm 7,4 km/h (2 Bft) W-NW 294 ° 0 min 0,051 mm 0,6 UV-I 141 W/m² 11,9 °C 19,1 °C 12,9 km/h (3 Bft)
15.06.2019 07:01 19,1 °C 64 % 1008,6 hPa 0,0 mm 11,9 km/h (2 Bft) SW 230 ° 0 min 0,000 mm 0,7 UV-I 142 W/m² 12,1 °C 19,1 °C 22,5 km/h (4 Bft)
15.06.2019 07:02 19,2 °C 63 % 1008,6 hPa 0,0 mm 10,9 km/h (2 Bft) W-SW 251 ° 0 min 0,000 mm 0,7 UV-I 146 W/m² 12,0 °C 19,2 °C 16,1 km/h (3 Bft)
15.06.2019 07:03 19,3 °C 63 % 1008,7 hPa 0,0 mm 4,8 km/h (1 Bft) W-SW 257 ° 0 min 0,000 mm 0,7 UV-I 151 W/m² 12,1 °C 19,3 °C 11,3 km/h (2 Bft)
15.06.2019 07:04 19,3 °C 64 % 1008,7 hPa 0,0 mm 8,9 km/h (2 Bft) W 275 ° 0 min 0,000 mm 0,7 UV-I 155 W/m² 12,3 °C 19,3 °C 12,9 km/h (3 Bft)
15.06.2019 07:05 19,4 °C 63 % 1008,6 hPa 0,0 mm 6,7 km/h (2 Bft) W 277 ° 0 min 0,000 mm 0,7 UV-I 158 W/m² 12,2 °C 19,4 °C 12,9 km/h (3 Bft)
15.06.2019 07:06 19,4 °C 64 % 1008,6 hPa 0,0 mm 5,4 km/h (1 Bft) W 261 ° 0 min 0,000 mm 0,7 UV-I 160 W/m² 12,4 °C 19,4 °C 11,3 km/h (2 Bft)
15.06.2019 07:07 19,5 °C 64 % 1008,8 hPa 0,0 mm 12,8 km/h (3 Bft) NW 321 ° 0 min 0,000 mm 0,7 UV-I 163 W/m² 12,5 °C 19,5 °C 24,1 km/h (4 Bft)
15.06.2019 07:08 19,6 °C 64 % 1008,8 hPa 0,0 mm 3,3 km/h (1 Bft) NW 304 ° 0 min 0,000 mm 0,8 UV-I 163 W/m² 12,6 °C 19,6 °C 6,4 km/h (2 Bft)
15.06.2019 07:09 19,7 °C 64 % 1008,8 hPa 0,0 mm 4,5 km/h (1 Bft) W-SW 258 ° 0 min 0,000 mm 0,8 UV-I 165 W/m² 12,7 °C 19,7 °C 16,1 km/h (3 Bft)
15.06.2019 07:10 19,7 °C 65 % 1008,9 hPa 0,0 mm 8,0 km/h (2 Bft) W 278 ° 0 min 0,000 mm 0,8 UV-I 169 W/m² 12,9 °C 19,7 °C 14,5 km/h (3 Bft)
15.06.2019 07:11 19,7 °C 65 % 1008,8 hPa 0,0 mm 8,8 km/h (2 Bft) W 269 ° 0 min 0,000 mm 0,8 UV-I 174 W/m² 12,9 °C 19,7 °C 14,5 km/h (3 Bft)
15.06.2019 07:12 19,8 °C 65 % 1008,8 hPa 0,0 mm 10,1 km/h (2 Bft) W 259 ° 0 min 0,000 mm 0,8 UV-I 178 W/m² 13,0 °C 19,8 °C 20,9 km/h (4 Bft)
15.06.2019 07:13 19,7 °C 64 % 1008,8 hPa 0,0 mm 12,4 km/h (3 Bft) NW 306 ° 0 min 0,000 mm 0,8 UV-I 181 W/m² 12,7 °C 19,7 °C 20,9 km/h (4 Bft)
15.06.2019 07:14 19,8 °C 64 % 1008,9 hPa 0,0 mm 10,9 km/h (2 Bft) NW 325 ° 0 min 0,000 mm 0,8 UV-I 181 W/m² 12,8 °C 19,8 °C 16,1 km/h (3 Bft)
15.06.2019 07:15 19,8 °C 65 % 1008,9 hPa 0,0 mm 9,5 km/h (2 Bft) SW 234 ° 0 min 0,000 mm 0,8 UV-I 183 W/m² 13,0 °C 19,8 °C 20,9 km/h (4 Bft)
15.06.2019 07:16 19,8 °C 65 % 1008,9 hPa 0,0 mm 7,7 km/h (2 Bft) SW 232 ° 0 min 0,000 mm 0,9 UV-I 186 W/m² 13,0 °C 19,8 °C 12,9 km/h (3 Bft)
15.06.2019 07:17 19,8 °C 65 % 1008,9 hPa 0,0 mm 10,9 km/h (2 Bft) W-NW 302 ° 0 min 0,000 mm 0,9 UV-I 190 W/m² 13,0 °C 19,8 °C 16,1 km/h (3 Bft)
15.06.2019 07:18 19,9 °C 65 % 1008,9 hPa 0,0 mm 11,1 km/h (2 Bft) W-SW 253 ° 0 min 0,000 mm 0,9 UV-I 190 W/m² 13,1 °C 19,9 °C 17,7 km/h (3 Bft)
15.06.2019 07:19 19,9 °C 65 % 1009,0 hPa 0,0 mm 19,3 km/h (3 Bft) W 274 ° 0 min 0,000 mm 0,9 UV-I 193 W/m² 13,1 °C 19,9 °C 29,0 km/h (5 Bft)
15.06.2019 07:20 19,9 °C 65 % 1009,0 hPa 0,0 mm 10,1 km/h (2 Bft) W 268 ° 0 min 0,000 mm 0,9 UV-I 197 W/m² 13,1 °C 19,9 °C 17,7 km/h (3 Bft)
15.06.2019 07:21 19,9 °C 65 % 1009,1 hPa 0,0 mm 17,2 km/h (3 Bft) W 277 ° 0 min 0,000 mm 0,9 UV-I 200 W/m² 13,1 °C 19,9 °C 24,1 km/h (4 Bft)
15.06.2019 07:22 19,9 °C 65 % 1009,1 hPa 0,0 mm 14,2 km/h (3 Bft) W 269 ° 0 min 0,000 mm 0,9 UV-I 204 W/m² 13,1 °C 19,9 °C 27,4 km/h (4 Bft)
15.06.2019 07:23 19,9 °C 64 % 1009,1 hPa 0,0 mm 16,8 km/h (3 Bft) W 264 ° 0 min 0,000 mm 1,0 UV-I 209 W/m² 12,9 °C 19,9 °C 25,7 km/h (4 Bft)
15.06.2019 07:24 19,9 °C 65 % 1009,0 hPa 0,0 mm 17,0 km/h (3 Bft) W 269 ° 0 min 0,000 mm 1,0 UV-I 211 W/m² 13,1 °C 19,9 °C 27,4 km/h (4 Bft)
15.06.2019 07:25 19,9 °C 65 % 1009,1 hPa 0,0 mm 14,9 km/h (3 Bft) W 269 ° 0 min 0,000 mm 1,0 UV-I 214 W/m² 13,1 °C 19,9 °C 30,6 km/h (5 Bft)
15.06.2019 07:26 19,8 °C 65 % 1009,1 hPa 0,0 mm 18,0 km/h (3 Bft) W 265 ° 0 min 0,000 mm 1,0 UV-I 216 W/m² 13,0 °C 19,8 °C 27,4 km/h (4 Bft)
15.06.2019 07:27 19,9 °C 65 % 1009,1 hPa 0,0 mm 15,2 km/h (3 Bft) W-SW 258 ° 0 min 0,000 mm 1,0 UV-I 218 W/m² 13,1 °C 19,9 °C 27,4 km/h (4 Bft)
15.06.2019 07:28 19,8 °C 65 % 1009,0 hPa 0,0 mm 16,4 km/h (3 Bft) W-NW 300 ° 0 min 0,000 mm 1,0 UV-I 218 W/m² 13,0 °C 19,8 °C 24,1 km/h (4 Bft)
15.06.2019 07:29 19,8 °C 66 % 1009,1 hPa 0,0 mm 11,9 km/h (2 Bft) W-NW 288 ° 0 min 0,000 mm 1,0 UV-I 223 W/m² 13,3 °C 19,8 °C 22,5 km/h (4 Bft)
15.06.2019 07:30 19,8 °C 66 % 1009,1 hPa 0,0 mm 15,2 km/h (3 Bft) NW 322 ° 0 min 0,000 mm 1,1 UV-I 225 W/m² 13,3 °C 19,8 °C 25,7 km/h (4 Bft)
15.06.2019 07:31 19,8 °C 65 % 1009,1 hPa 0,0 mm 16,8 km/h (3 Bft) W 276 ° 0 min 0,000 mm 1,1 UV-I 227 W/m² 13,0 °C 19,8 °C 30,6 km/h (5 Bft)
15.06.2019 07:32 19,8 °C 65 % 1009,2 hPa 0,0 mm 16,4 km/h (3 Bft) W-NW 290 ° 0 min 0,000 mm 1,1 UV-I 227 W/m² 13,0 °C 19,8 °C 25,7 km/h (4 Bft)
15.06.2019 07:33 19,8 °C 66 % 1009,1 hPa 0,0 mm 18,8 km/h (3 Bft) W-SW 246 ° 0 min 0,000 mm 1,1 UV-I 230 W/m² 13,3 °C 19,8 °C 29,0 km/h (5 Bft)
15.06.2019 07:34 19,8 °C 65 % 1009,2 hPa 0,0 mm 16,9 km/h (3 Bft) NW 304 ° 0 min 0,000 mm 1,1 UV-I 232 W/m² 13,0 °C 19,8 °C 24,1 km/h (4 Bft)
15.06.2019 07:35 19,8 °C 66 % 1009,2 hPa 0,0 mm 8,7 km/h (2 Bft) W-NW 300 ° 0 min 0,000 mm 1,1 UV-I 241 W/m² 13,3 °C 19,8 °C 16,1 km/h (3 Bft)
15.06.2019 07:36 19,8 °C 66 % 1009,3 hPa 0,0 mm 15,5 km/h (3 Bft) SW 236 ° 0 min 0,000 mm 1,2 UV-I 241 W/m² 13,3 °C 19,8 °C 24,1 km/h (4 Bft)
15.06.2019 07:37 19,8 °C 66 % 1009,3 hPa 0,0 mm 12,9 km/h (3 Bft) NW 306 ° 0 min 0,000 mm 1,2 UV-I 246 W/m² 13,3 °C 19,8 °C 22,5 km/h (4 Bft)
15.06.2019 07:38 19,8 °C 67 % 1009,3 hPa 0,0 mm 12,0 km/h (2 Bft) W 264 ° 0 min 0,000 mm 1,2 UV-I 251 W/m² 13,5 °C 19,8 °C 22,5 km/h (4 Bft)
15.06.2019 07:39 19,8 °C 66 % 1009,3 hPa 0,0 mm 20,3 km/h (4 Bft) W-SW 257 ° 0 min 0,000 mm 1,2 UV-I 250 W/m² 13,3 °C 19,8 °C 27,4 km/h (4 Bft)
15.06.2019 07:40 19,8 °C 66 % 1009,4 hPa 0,0 mm 22,2 km/h (4 Bft) W 272 ° 0 min 0,000 mm 1,2 UV-I 255 W/m² 13,3 °C 19,8 °C 29,0 km/h (5 Bft)
15.06.2019 07:41 19,7 °C 66 % 1009,4 hPa 0,0 mm 14,3 km/h (3 Bft) W-NW 284 ° 0 min 0,000 mm 1,2 UV-I 257 W/m² 13,2 °C 19,7 °C 25,7 km/h (4 Bft)
15.06.2019 07:42 19,7 °C 67 % 1009,5 hPa 0,0 mm 14,3 km/h (3 Bft) W 259 ° 0 min 0,000 mm 1,3 UV-I 260 W/m² 13,4 °C 19,7 °C 22,5 km/h (4 Bft)
15.06.2019 07:43 19,7 °C 67 % 1009,5 hPa 0,0 mm 20,6 km/h (4 Bft) W-NW 285 ° 0 min 0,000 mm 1,3 UV-I 265 W/m² 13,4 °C 19,7 °C 30,6 km/h (5 Bft)
15.06.2019 07:44 19,7 °C 67 % 1009,5 hPa 0,0 mm 19,2 km/h (3 Bft) W 265 ° 0 min 0,000 mm 1,3 UV-I 265 W/m² 13,4 °C 19,7 °C 29,0 km/h (5 Bft)
15.06.2019 07:45 19,7 °C 67 % 1009,5 hPa 0,0 mm 17,1 km/h (3 Bft) W-NW 283 ° 0 min 0,000 mm 1,3 UV-I 267 W/m² 13,4 °C 19,7 °C 20,9 km/h (4 Bft)
15.06.2019 07:46 19,6 °C 67 % 1009,5 hPa 0,0 mm 14,6 km/h (3 Bft) W-SW 258 ° 0 min 0,000 mm 1,3 UV-I 271 W/m² 13,3 °C 19,6 °C 19,3 km/h (3 Bft)
15.06.2019 07:47 19,6 °C 67 % 1009,6 hPa 0,0 mm 12,4 km/h (3 Bft) W 268 ° 0 min 0,000 mm 1,3 UV-I 243 W/m² 13,3 °C 19,6 °C 17,7 km/h (3 Bft)
15.06.2019 07:48 19,6 °C 67 % 1009,6 hPa 0,0 mm 6,4 km/h (2 Bft) NW 324 ° 0 min 0,000 mm 1,3 UV-I 279 W/m² 13,3 °C 19,6 °C 12,9 km/h (3 Bft)
15.06.2019 07:49 19,6 °C 68 % 1009,7 hPa 0,0 mm 8,6 km/h (2 Bft) N-NW 338 ° 0 min 0,000 mm 1,4 UV-I 281 W/m² 13,5 °C 19,6 °C 14,5 km/h (3 Bft)
15.06.2019 07:50 19,7 °C 69 % 1009,7 hPa 0,0 mm 5,3 km/h (1 Bft) NW 311 ° 0 min 0,000 mm 1,4 UV-I 279 W/m² 13,8 °C 19,7 °C 11,3 km/h (2 Bft)
15.06.2019 07:51 19,7 °C 69 % 1009,7 hPa 0,0 mm 16,6 km/h (3 Bft) W 276 ° 0 min 0,000 mm 1,4 UV-I 279 W/m² 13,8 °C 19,7 °C 24,1 km/h (4 Bft)
15.06.2019 07:52 19,7 °C 68 % 1009,7 hPa 0,0 mm 13,8 km/h (3 Bft) W-NW 290 ° 0 min 0,000 mm 1,4 UV-I 287 W/m² 13,6 °C 19,7 °C 16,1 km/h (3 Bft)
15.06.2019 07:53 19,7 °C 68 % 1009,7 hPa 0,0 mm 15,4 km/h (3 Bft) W 260 ° 0 min 0,000 mm 1,4 UV-I 288 W/m² 13,6 °C 19,7 °C 27,4 km/h (4 Bft)
15.06.2019 07:54 19,6 °C 68 % 1009,8 hPa 0,0 mm 15,6 km/h (3 Bft) W-NW 293 ° 0 min 0,000 mm 1,4 UV-I 292 W/m² 13,5 °C 19,6 °C 22,5 km/h (4 Bft)
15.06.2019 07:55 19,6 °C 69 % 1009,7 hPa 0,0 mm 9,0 km/h (2 Bft) W-NW 288 ° 0 min 0,000 mm 1,5 UV-I 294 W/m² 13,8 °C 19,6 °C 17,7 km/h (3 Bft)
15.06.2019 07:56 19,6 °C 70 % 1009,7 hPa 0,0 mm 10,1 km/h (2 Bft) NW 306 ° 0 min 0,000 mm 1,5 UV-I 297 W/m² 14,0 °C 19,6 °C 22,5 km/h (4 Bft)
15.06.2019 07:57 19,7 °C 69 % 1009,7 hPa 0,0 mm 10,6 km/h (2 Bft) NW 304 ° 0 min 0,000 mm 1,5 UV-I 299 W/m² 13,8 °C 19,7 °C 20,9 km/h (4 Bft)
15.06.2019 07:58 19,7 °C 69 % 1009,7 hPa 0,0 mm 9,9 km/h (2 Bft) W-SW 258 ° 0 min 0,000 mm 1,5 UV-I 306 W/m² 13,8 °C 19,7 °C 17,7 km/h (3 Bft)
15.06.2019 07:59 19,7 °C 70 % 1009,8 hPa 0,0 mm 12,4 km/h (3 Bft) W-NW 290 ° 0 min 0,000 mm 1,5 UV-I 308 W/m² 14,1 °C 19,7 °C 17,7 km/h (3 Bft)
15.06.2019 08:00 19,7 °C 68 % 1009,7 hPa 0,0 mm 11,2 km/h (2 Bft) W-NW 297 ° 0 min 0,000 mm 1,5 UV-I 308 W/m² 13,6 °C 19,7 °C 16,1 km/h (3 Bft)
15.06.2019 08:01 19,7 °C 69 % 1009,7 hPa 0,0 mm 12,9 km/h (3 Bft) W-SW 247 ° 0 min 0,203 mm 1,6 UV-I 309 W/m² 13,8 °C 19,7 °C 22,5 km/h (4 Bft)
15.06.2019 08:02 19,7 °C 69 % 1009,8 hPa 0,0 mm 5,5 km/h (1 Bft) W 275 ° 0 min 0,000 mm 1,6 UV-I 308 W/m² 13,8 °C 19,7 °C 11,3 km/h (2 Bft)
15.06.2019 08:03 19,7 °C 69 % 1009,7 hPa 0,0 mm 12,1 km/h (2 Bft) NW 304 ° 0 min 0,000 mm 1,6 UV-I 311 W/m² 13,8 °C 19,7 °C 17,7 km/h (3 Bft)
15.06.2019 08:04 19,7 °C 69 % 1009,7 hPa 0,0 mm 16,2 km/h (3 Bft) W-SW 242 ° 0 min 0,000 mm 1,6 UV-I 315 W/m² 13,8 °C 19,7 °C 25,7 km/h (4 Bft)
15.06.2019 08:05 19,7 °C 69 % 1009,7 hPa 0,0 mm 12,3 km/h (3 Bft) W 273 ° 0 min 0,000 mm 1,6 UV-I 322 W/m² 13,8 °C 19,7 °C 19,3 km/h (3 Bft)
15.06.2019 08:06 19,7 °C 69 % 1009,8 hPa 0,0 mm 15,4 km/h (3 Bft) W 278 ° 0 min 0,000 mm 1,7 UV-I 323 W/m² 13,8 °C 19,7 °C 27,4 km/h (4 Bft)
15.06.2019 08:07 19,7 °C 69 % 1009,7 hPa 0,0 mm 12,4 km/h (3 Bft) W 281 ° 0 min 0,000 mm 1,7 UV-I 325 W/m² 13,8 °C 19,7 °C 20,9 km/h (4 Bft)
15.06.2019 08:08 19,7 °C 69 % 1009,8 hPa 0,0 mm 16,2 km/h (3 Bft) W-NW 297 ° 0 min 0,000 mm 1,7 UV-I 327 W/m² 13,8 °C 19,7 °C 27,4 km/h (4 Bft)
15.06.2019 08:09 19,7 °C 68 % 1009,8 hPa 0,0 mm 12,7 km/h (3 Bft) W-SW 246 ° 0 min 0,000 mm 1,7 UV-I 329 W/m² 13,6 °C 19,7 °C 17,7 km/h (3 Bft)
15.06.2019 08:10 19,7 °C 69 % 1009,7 hPa 0,0 mm 15,8 km/h (3 Bft) W-NW 287 ° 0 min 0,000 mm 1,7 UV-I 334 W/m² 13,8 °C 19,7 °C 29,0 km/h (5 Bft)
15.06.2019 08:11 19,7 °C 69 % 1009,9 hPa 0,0 mm 14,8 km/h (3 Bft) W-SW 258 ° 0 min 0,000 mm 1,7 UV-I 338 W/m² 13,8 °C 19,7 °C 27,4 km/h (4 Bft)
15.06.2019 08:12 19,7 °C 70 % 1009,8 hPa 0,0 mm 10,8 km/h (2 Bft) W 260 ° 0 min 0,000 mm 1,7 UV-I 336 W/m² 14,1 °C 19,7 °C 17,7 km/h (3 Bft)
15.06.2019 08:13 19,8 °C 70 % 1009,9 hPa 0,0 mm 10,0 km/h (2 Bft) SW 230 ° 0 min 0,000 mm 1,8 UV-I 339 W/m² 14,2 °C 19,8 °C 16,1 km/h (3 Bft)
15.06.2019 08:14 19,8 °C 69 % 1009,8 hPa 0,0 mm 7,3 km/h (2 Bft) W-SW 246 ° 0 min 0,000 mm 1,8 UV-I 343 W/m² 13,9 °C 19,8 °C 12,9 km/h (3 Bft)
15.06.2019 08:15 19,8 °C 69 % 1009,8 hPa 0,0 mm 4,2 km/h (1 Bft) W-NW 286 ° 0 min 0,000 mm 1,8 UV-I 348 W/m² 13,9 °C 19,8 °C 9,7 km/h (2 Bft)
15.06.2019 08:16 19,9 °C 70 % 1009,8 hPa 0,0 mm 9,1 km/h (2 Bft) W-SW 257 ° 0 min 0,000 mm 1,8 UV-I 352 W/m² 14,3 °C 19,9 °C 20,9 km/h (4 Bft)
15.06.2019 08:17 19,8 °C 69 % 1009,9 hPa 0,0 mm 9,8 km/h (2 Bft) W 267 ° 0 min 0,000 mm 1,9 UV-I 355 W/m² 13,9 °C 19,8 °C 20,9 km/h (4 Bft)
15.06.2019 08:18 19,9 °C 69 % 1009,8 hPa 0,0 mm 8,1 km/h (2 Bft) W-NW 289 ° 0 min 0,000 mm 1,9 UV-I 357 W/m² 14,0 °C 19,9 °C 12,9 km/h (3 Bft)
15.06.2019 08:19 19,9 °C 70 % 1009,8 hPa 0,0 mm 4,9 km/h (1 Bft) W-NW 298 ° 0 min 0,000 mm 1,9 UV-I 357 W/m² 14,3 °C 19,9 °C 6,4 km/h (2 Bft)
15.06.2019 08:20 19,9 °C 70 % 1009,8 hPa 0,0 mm 6,3 km/h (2 Bft) W-SW 252 ° 0 min 0,000 mm 1,9 UV-I 359 W/m² 14,3 °C 19,9 °C 12,9 km/h (3 Bft)
15.06.2019 08:21 20,1 °C 70 % 1009,9 hPa 0,0 mm 16,4 km/h (3 Bft) W 262 ° 0 min 0,000 mm 1,9 UV-I 362 W/m² 14,5 °C 20,1 °C 25,7 km/h (4 Bft)
15.06.2019 08:22 20,0 °C 69 % 1009,9 hPa 0,0 mm 14,2 km/h (3 Bft) S-SW 193 ° 0 min 0,000 mm 1,9 UV-I 369 W/m² 14,1 °C 20,0 °C 20,9 km/h (4 Bft)
15.06.2019 08:23 20,0 °C 69 % 1009,8 hPa 0,0 mm 11,9 km/h (2 Bft) W 259 ° 0 min 0,000 mm 2,0 UV-I 369 W/m² 14,1 °C 20,0 °C 16,1 km/h (3 Bft)
15.06.2019 08:24 20,1 °C 69 % 1009,9 hPa 0,0 mm 8,4 km/h (2 Bft) W-NW 291 ° 0 min 0,000 mm 2,0 UV-I 374 W/m² 14,2 °C 20,1 °C 14,5 km/h (3 Bft)
15.06.2019 08:25 20,0 °C 70 % 1009,9 hPa 0,0 mm 9,1 km/h (2 Bft) SW 219 ° 0 min 0,000 mm 2,0 UV-I 378 W/m² 14,4 °C 20,0 °C 17,7 km/h (3 Bft)
15.06.2019 08:26 20,1 °C 70 % 1009,9 hPa 0,0 mm 13,9 km/h (3 Bft) W 279 ° 0 min 0,000 mm 2,0 UV-I 378 W/m² 14,5 °C 20,1 °C 19,3 km/h (3 Bft)
15.06.2019 08:27 20,1 °C 71 % 1009,9 hPa 0,0 mm 6,6 km/h (2 Bft) W 263 ° 0 min 0,000 mm 2,0 UV-I 383 W/m² 14,7 °C 20,1 °C 14,5 km/h (3 Bft)
15.06.2019 08:28 20,1 °C 70 % 1009,9 hPa 0,0 mm 15,1 km/h (3 Bft) N-NW 327 ° 0 min 0,000 mm 2,1 UV-I 385 W/m² 14,5 °C 20,1 °C 22,5 km/h (4 Bft)
15.06.2019 08:29 20,1 °C 69 % 1010,0 hPa 0,0 mm 13,5 km/h (3 Bft) W 279 ° 0 min 0,000 mm 2,1 UV-I 385 W/m² 14,2 °C 20,1 °C 20,9 km/h (4 Bft)
15.06.2019 08:30 20,1 °C 69 % 1010,0 hPa 0,0 mm 5,0 km/h (1 Bft) W-NW 294 ° 0 min 0,000 mm 2,1 UV-I 385 W/m² 14,2 °C 20,1 °C 12,9 km/h (3 Bft)
15.06.2019 08:31 20,1 °C 69 % 1010,0 hPa 0,0 mm 4,1 km/h (1 Bft) W-NW 289 ° 0 min 0,000 mm 2,1 UV-I 388 W/m² 14,2 °C 20,1 °C 8,0 km/h (2 Bft)
15.06.2019 08:32 20,1 °C 70 % 1009,9 hPa 0,0 mm 12,1 km/h (2 Bft) W-NW 291 ° 0 min 0,000 mm 2,1 UV-I 392 W/m² 14,5 °C 20,1 °C 19,3 km/h (3 Bft)
15.06.2019 08:33 20,1 °C 69 % 1009,9 hPa 0,0 mm 12,7 km/h (3 Bft) W 280 ° 0 min 0,000 mm 2,2 UV-I 399 W/m² 14,2 °C 20,1 °C 20,9 km/h (4 Bft)
15.06.2019 08:34 20,1 °C 71 % 1010,0 hPa 0,0 mm 5,5 km/h (1 Bft) W-NW 297 ° 0 min 0,000 mm 2,2 UV-I 403 W/m² 14,7 °C 20,1 °C 11,3 km/h (2 Bft)
15.06.2019 08:35 20,2 °C 71 % 1010,0 hPa 0,0 mm 8,4 km/h (2 Bft) W 274 ° 0 min 0,000 mm 2,2 UV-I 404 W/m² 14,8 °C 20,2 °C 12,9 km/h (3 Bft)
15.06.2019 08:36 20,2 °C 70 % 1009,9 hPa 0,0 mm 7,8 km/h (2 Bft) W 264 ° 0 min 0,000 mm 2,2 UV-I 408 W/m² 14,5 °C 20,2 °C 14,5 km/h (3 Bft)
15.06.2019 08:37 20,2 °C 69 % 1010,0 hPa 0,0 mm 10,2 km/h (2 Bft) SW 229 ° 0 min 0,000 mm 2,2 UV-I 411 W/m² 14,3 °C 20,2 °C 16,1 km/h (3 Bft)
15.06.2019 08:38 20,2 °C 69 % 1010,0 hPa 0,0 mm 7,4 km/h (2 Bft) W 264 ° 0 min 0,000 mm 2,3 UV-I 413 W/m² 14,3 °C 20,2 °C 16,1 km/h (3 Bft)
15.06.2019 08:39 20,2 °C 69 % 1010,0 hPa 0,0 mm 15,0 km/h (3 Bft) W-NW 296 ° 0 min 0,000 mm 2,3 UV-I 415 W/m² 14,3 °C 20,2 °C 19,3 km/h (3 Bft)
15.06.2019 08:40 20,2 °C 69 % 1009,9 hPa 0,0 mm 12,7 km/h (3 Bft) W 262 ° 0 min 0,000 mm 2,3 UV-I 417 W/m² 14,3 °C 20,2 °C 19,3 km/h (3 Bft)
15.06.2019 08:41 20,2 °C 70 % 1010,0 hPa 0,0 mm 14,9 km/h (3 Bft) NW 308 ° 0 min 0,000 mm 2,3 UV-I 422 W/m² 14,5 °C 20,2 °C 20,9 km/h (4 Bft)
15.06.2019 08:42 20,2 °C 68 % 1009,9 hPa 0,0 mm 7,2 km/h (2 Bft) W-NW 298 ° 0 min 0,000 mm 2,3 UV-I 424 W/m² 14,1 °C 20,2 °C 12,9 km/h (3 Bft)
15.06.2019 08:43 20,2 °C 69 % 1010,0 hPa 0,0 mm 10,9 km/h (2 Bft) W 278 ° 0 min 0,000 mm 2,4 UV-I 429 W/m² 14,3 °C 20,2 °C 17,7 km/h (3 Bft)
15.06.2019 08:44 20,2 °C 70 % 1010,0 hPa 0,0 mm 12,0 km/h (2 Bft) W-SW 238 ° 0 min 0,000 mm 2,4 UV-I 427 W/m² 14,5 °C 20,2 °C 17,7 km/h (3 Bft)
15.06.2019 08:45 20,2 °C 70 % 1010,0 hPa 0,0 mm 6,8 km/h (2 Bft) W-NW 296 ° 0 min 0,000 mm 2,4 UV-I 438 W/m² 14,5 °C 20,2 °C 12,9 km/h (3 Bft)
15.06.2019 08:46 20,3 °C 70 % 1010,0 hPa 0,0 mm 8,0 km/h (2 Bft) NW 307 ° 0 min 0,000 mm 2,4 UV-I 441 W/m² 14,6 °C 20,3 °C 17,7 km/h (3 Bft)
15.06.2019 08:47 20,3 °C 71 % 1010,1 hPa 0,0 mm 18,6 km/h (3 Bft) W 271 ° 0 min 0,000 mm 2,4 UV-I 443 W/m² 14,9 °C 20,3 °C 33,8 km/h (5 Bft)
15.06.2019 08:48 20,3 °C 68 % 1010,1 hPa 0,0 mm 9,1 km/h (2 Bft) W-NW 299 ° 0 min 0,000 mm 2,5 UV-I 446 W/m² 14,2 °C 20,3 °C 19,3 km/h (3 Bft)
15.06.2019 08:49 20,3 °C 68 % 1010,1 hPa 0,0 mm 12,5 km/h (3 Bft) W 261 ° 0 min 0,000 mm 2,5 UV-I 448 W/m² 14,2 °C 20,3 °C 17,7 km/h (3 Bft)
15.06.2019 08:50 20,3 °C 68 % 1010,0 hPa 0,0 mm 7,5 km/h (2 Bft) W-SW 256 ° 0 min 0,000 mm 2,5 UV-I 454 W/m² 14,2 °C 20,3 °C 16,1 km/h (3 Bft)
15.06.2019 08:51 20,3 °C 69 % 1010,0 hPa 0,0 mm 5,4 km/h (1 Bft) W 278 ° 0 min 0,000 mm 2,6 UV-I 459 W/m² 14,4 °C 20,3 °C 16,1 km/h (3 Bft)
15.06.2019 08:52 20,3 °C 69 % 1010,0 hPa 0,0 mm 11,2 km/h (2 Bft) W-NW 282 ° 0 min 0,000 mm 2,6 UV-I 461 W/m² 14,4 °C 20,3 °C 14,5 km/h (3 Bft)
15.06.2019 08:53 20,4 °C 68 % 1010,0 hPa 0,0 mm 4,2 km/h (1 Bft) W-SW 253 ° 0 min 0,000 mm 2,6 UV-I 464 W/m² 14,3 °C 20,4 °C 9,7 km/h (2 Bft)
15.06.2019 08:54 20,4 °C 69 % 1010,0 hPa 0,0 mm 9,3 km/h (2 Bft) W-SW 258 ° 0 min 0,000 mm 2,7 UV-I 468 W/m² 14,5 °C 20,4 °C 14,5 km/h (3 Bft)
15.06.2019 08:55 20,5 °C 70 % 1010,1 hPa 0,0 mm 14,6 km/h (3 Bft) W 272 ° 0 min 0,000 mm 2,7 UV-I 469 W/m² 14,8 °C 20,5 °C 29,0 km/h (5 Bft)
15.06.2019 08:56 20,4 °C 68 % 1010,1 hPa 0,0 mm 16,7 km/h (3 Bft) W-SW 249 ° 0 min 0,000 mm 2,7 UV-I 469 W/m² 14,3 °C 20,4 °C 29,0 km/h (5 Bft)
15.06.2019 08:57 20,5 °C 69 % 1010,2 hPa 0,0 mm 9,3 km/h (2 Bft) W-NW 284 ° 0 min 0,000 mm 2,7 UV-I 473 W/m² 14,6 °C 20,5 °C 16,1 km/h (3 Bft)
15.06.2019 08:58 20,5 °C 69 % 1010,2 hPa 0,0 mm 4,2 km/h (1 Bft) W-NW 283 ° 0 min 0,000 mm 2,7 UV-I 475 W/m² 14,6 °C 20,5 °C 9,7 km/h (2 Bft)
15.06.2019 08:59 20,6 °C 68 % 1010,1 hPa 0,0 mm 6,6 km/h (2 Bft) W 271 ° 0 min 0,000 mm 2,7 UV-I 476 W/m² 14,5 °C 20,6 °C 11,3 km/h (2 Bft)
15.06.2019 09:00 20,6 °C 69 % 1010,1 hPa 0,0 mm 11,3 km/h (2 Bft) W-SW 250 ° 0 min 0,279 mm 2,8 UV-I 480 W/m² 14,7 °C 20,6 °C 16,1 km/h (3 Bft)
15.06.2019 09:01 20,6 °C 69 % 1010,1 hPa 0,0 mm 9,5 km/h (2 Bft) W-SW 242 ° 0 min 0,000 mm 2,8 UV-I 483 W/m² 14,7 °C 20,6 °C 14,5 km/h (3 Bft)
15.06.2019 09:02 20,6 °C 69 % 1010,1 hPa 0,0 mm 8,4 km/h (2 Bft) W-SW 253 ° 0 min 0,000 mm 2,8 UV-I 483 W/m² 14,7 °C 20,6 °C 12,9 km/h (3 Bft)
15.06.2019 09:03 20,6 °C 69 % 1010,1 hPa 0,0 mm 12,1 km/h (2 Bft) W-SW 238 ° 0 min 0,000 mm 2,8 UV-I 487 W/m² 14,7 °C 20,6 °C 16,1 km/h (3 Bft)
15.06.2019 09:04 20,7 °C 68 % 1010,1 hPa 0,0 mm 5,5 km/h (1 Bft) W-NW 291 ° 0 min 0,000 mm 2,9 UV-I 487 W/m² 14,6 °C 20,7 °C 9,7 km/h (2 Bft)
15.06.2019 09:05 20,7 °C 70 % 1010,1 hPa 0,0 mm 8,9 km/h (2 Bft) W-SW 258 ° 0 min 0,000 mm 2,9 UV-I 494 W/m² 15,0 °C 20,7 °C 12,9 km/h (3 Bft)
15.06.2019 09:06 20,7 °C 70 % 1010,1 hPa 0,0 mm 7,4 km/h (2 Bft) NW 315 ° 0 min 0,000 mm 2,9 UV-I 497 W/m² 15,0 °C 20,7 °C 12,9 km/h (3 Bft)
15.06.2019 09:07 20,8 °C 69 % 1010,2 hPa 0,0 mm 7,7 km/h (2 Bft) W-NW 296 ° 0 min 0,000 mm 3,0 UV-I 501 W/m² 14,9 °C 20,8 °C 14,5 km/h (3 Bft)
15.06.2019 09:08 20,9 °C 71 % 1010,2 hPa 0,0 mm 8,9 km/h (2 Bft) W 263 ° 0 min 0,000 mm 3,0 UV-I 512 W/m² 15,4 °C 20,9 °C 16,1 km/h (3 Bft)
15.06.2019 09:09 20,9 °C 69 % 1010,2 hPa 0,0 mm 10,1 km/h (2 Bft) NW 311 ° 0 min 0,000 mm 3,0 UV-I 513 W/m² 15,0 °C 20,9 °C 14,5 km/h (3 Bft)
15.06.2019 09:10 21,0 °C 68 % 1010,2 hPa 0,0 mm 5,0 km/h (1 Bft) W 273 ° 0 min 0,000 mm 3,1 UV-I 513 W/m² 14,9 °C 21,0 °C 6,4 km/h (2 Bft)
15.06.2019 09:11 21,0 °C 69 % 1010,2 hPa 0,0 mm 6,8 km/h (2 Bft) W 261 ° 0 min 0,000 mm 3,0 UV-I 506 W/m² 15,1 °C 21,0 °C 14,5 km/h (3 Bft)
15.06.2019 09:12 21,0 °C 68 % 1010,2 hPa 0,0 mm 6,0 km/h (2 Bft) NW 321 ° 0 min 0,000 mm 3,1 UV-I 506 W/m² 14,9 °C 21,0 °C 8,0 km/h (2 Bft)
15.06.2019 09:13 21,0 °C 68 % 1010,2 hPa 0,0 mm 5,5 km/h (1 Bft) NW 319 ° 0 min 0,000 mm 3,1 UV-I 503 W/m² 14,9 °C 21,0 °C 8,0 km/h (2 Bft)
15.06.2019 09:14 21,1 °C 68 % 1010,2 hPa 0,0 mm 7,4 km/h (2 Bft) W 261 ° 0 min 0,000 mm 3,1 UV-I 522 W/m² 15,0 °C 21,1 °C 12,9 km/h (3 Bft)
15.06.2019 09:15 21,1 °C 68 % 1010,2 hPa 0,0 mm 9,1 km/h (2 Bft) NW 304 ° 0 min 0,000 mm 3,2 UV-I 534 W/m² 15,0 °C 21,1 °C 14,5 km/h (3 Bft)
15.06.2019 09:16 21,1 °C 68 % 1010,2 hPa 0,0 mm 6,5 km/h (2 Bft) NW 305 ° 0 min 0,000 mm 3,3 UV-I 547 W/m² 15,0 °C 21,1 °C 12,9 km/h (3 Bft)
15.06.2019 09:17 21,2 °C 68 % 1010,2 hPa 0,0 mm 11,9 km/h (2 Bft) W 269 ° 0 min 0,000 mm 3,3 UV-I 554 W/m² 15,1 °C 21,2 °C 16,1 km/h (3 Bft)
15.06.2019 09:18 21,2 °C 66 % 1010,2 hPa 0,0 mm 9,5 km/h (2 Bft) W-NW 292 ° 0 min 0,000 mm 3,4 UV-I 561 W/m² 14,6 °C 21,2 °C 17,7 km/h (3 Bft)
15.06.2019 09:19 21,1 °C 66 % 1010,2 hPa 0,0 mm 17,3 km/h (3 Bft) NW 317 ° 0 min 0,000 mm 3,4 UV-I 570 W/m² 14,5 °C 21,1 °C 29,0 km/h (5 Bft)
15.06.2019 09:20 21,1 °C 67 % 1010,3 hPa 0,0 mm 16,8 km/h (3 Bft) W 273 ° 0 min 0,000 mm 3,4 UV-I 577 W/m² 14,7 °C 21,1 °C 24,1 km/h (4 Bft)
15.06.2019 09:21 21,0 °C 66 % 1010,2 hPa 0,0 mm 14,7 km/h (3 Bft) W 278 ° 0 min 0,000 mm 3,5 UV-I 584 W/m² 14,4 °C 21,0 °C 19,3 km/h (3 Bft)
15.06.2019 09:22 21,0 °C 66 % 1010,2 hPa 0,0 mm 10,6 km/h (2 Bft) N-NW 328 ° 0 min 0,000 mm 3,5 UV-I 587 W/m² 14,4 °C 21,0 °C 16,1 km/h (3 Bft)
15.06.2019 09:23 20,9 °C 67 % 1010,3 hPa 0,0 mm 18,0 km/h (3 Bft) W-NW 288 ° 0 min 0,000 mm 3,5 UV-I 591 W/m² 14,5 °C 20,9 °C 25,7 km/h (4 Bft)
15.06.2019 09:24 20,9 °C 67 % 1010,3 hPa 0,0 mm 15,2 km/h (3 Bft) W-NW 292 ° 0 min 0,000 mm 3,5 UV-I 596 W/m² 14,5 °C 20,9 °C 20,9 km/h (4 Bft)
15.06.2019 09:25 20,9 °C 67 % 1010,3 hPa 0,0 mm 13,9 km/h (3 Bft) W-NW 287 ° 0 min 0,000 mm 3,6 UV-I 599 W/m² 14,5 °C 20,9 °C 19,3 km/h (3 Bft)
15.06.2019 09:26 20,9 °C 66 % 1010,3 hPa 0,0 mm 10,3 km/h (2 Bft) W 279 ° 0 min 0,000 mm 3,5 UV-I 555 W/m² 14,3 °C 20,9 °C 14,5 km/h (3 Bft)
15.06.2019 09:27 20,9 °C 66 % 1010,4 hPa 0,0 mm 12,3 km/h (3 Bft) W-SW 250 ° 0 min 0,000 mm 3,4 UV-I 557 W/m² 14,3 °C 20,9 °C 17,7 km/h (3 Bft)
15.06.2019 09:28 20,9 °C 65 % 1010,3 hPa 0,0 mm 12,7 km/h (3 Bft) W-NW 298 ° 0 min 0,000 mm 3,6 UV-I 596 W/m² 14,1 °C 20,9 °C 22,5 km/h (4 Bft)
15.06.2019 09:29 20,8 °C 65 % 1010,3 hPa 0,0 mm 15,7 km/h (3 Bft) W-NW 291 ° 1 min 0,000 mm 3,6 UV-I 605 W/m² 14,0 °C 20,8 °C 20,9 km/h (4 Bft)
15.06.2019 09:30 20,8 °C 64 % 1010,3 hPa 0,0 mm 9,8 km/h (2 Bft) NW 307 ° 0 min 0,000 mm 3,5 UV-I 573 W/m² 13,7 °C 20,8 °C 20,9 km/h (4 Bft)
15.06.2019 09:31 20,7 °C 64 % 1010,4 hPa 0,0 mm 16,2 km/h (3 Bft) NW 311 ° 0 min 0,000 mm 3,4 UV-I 543 W/m² 13,6 °C 20,7 °C 24,1 km/h (4 Bft)
15.06.2019 09:32 20,7 °C 64 % 1010,4 hPa 0,0 mm 16,8 km/h (3 Bft) W 275 ° 0 min 0,000 mm 3,5 UV-I 552 W/m² 13,6 °C 20,7 °C 22,5 km/h (4 Bft)
15.06.2019 09:33 20,6 °C 63 % 1010,4 hPa 0,0 mm 7,4 km/h (2 Bft) W 266 ° 0 min 0,000 mm 3,5 UV-I 534 W/m² 13,3 °C 20,6 °C 16,1 km/h (3 Bft)
15.06.2019 09:34 20,7 °C 65 % 1010,3 hPa 0,0 mm 10,4 km/h (2 Bft) W 277 ° 0 min 0,000 mm 3,4 UV-I 541 W/m² 13,9 °C 20,7 °C 16,1 km/h (3 Bft)
15.06.2019 09:35 20,7 °C 67 % 1010,4 hPa 0,0 mm 12,2 km/h (2 Bft) W-NW 292 ° 0 min 0,000 mm 3,6 UV-I 589 W/m² 14,3 °C 20,7 °C 17,7 km/h (3 Bft)
15.06.2019 09:36 20,8 °C 68 % 1010,4 hPa 0,0 mm 6,1 km/h (2 Bft) W 269 ° 0 min 0,000 mm 3,5 UV-I 580 W/m² 14,7 °C 20,8 °C 11,3 km/h (2 Bft)
15.06.2019 09:37 20,9 °C 66 % 1010,4 hPa 0,0 mm 12,4 km/h (3 Bft) S-SW 201 ° 1 min 0,000 mm 3,6 UV-I 621 W/m² 14,3 °C 20,9 °C 16,1 km/h (3 Bft)
15.06.2019 09:38 20,9 °C 67 % 1010,5 hPa 0,0 mm 16,9 km/h (3 Bft) W 263 ° 1 min 0,000 mm 3,7 UV-I 605 W/m² 14,5 °C 20,9 °C 29,0 km/h (5 Bft)
15.06.2019 09:39 20,9 °C 64 % 1010,4 hPa 0,0 mm 9,7 km/h (2 Bft) W-NW 283 ° 0 min 0,000 mm 3,5 UV-I 575 W/m² 13,8 °C 20,9 °C 19,3 km/h (3 Bft)
15.06.2019 09:40 20,8 °C 65 % 1010,4 hPa 0,0 mm 11,0 km/h (2 Bft) W 263 ° 0 min 0,000 mm 3,4 UV-I 533 W/m² 14,0 °C 20,8 °C 16,1 km/h (3 Bft)
15.06.2019 09:41 20,8 °C 64 % 1010,4 hPa 0,0 mm 13,2 km/h (3 Bft) W 271 ° 0 min 0,000 mm 3,6 UV-I 543 W/m² 13,7 °C 20,8 °C 16,1 km/h (3 Bft)
15.06.2019 09:42 20,7 °C 65 % 1010,4 hPa 0,0 mm 10,8 km/h (2 Bft) W-NW 283 ° 0 min 0,000 mm 3,5 UV-I 543 W/m² 13,9 °C 20,7 °C 16,1 km/h (3 Bft)
15.06.2019 09:43 20,7 °C 64 % 1010,4 hPa 0,0 mm 11,2 km/h (2 Bft) W-NW 288 ° 0 min 0,000 mm 3,7 UV-I 573 W/m² 13,6 °C 20,7 °C 17,7 km/h (3 Bft)
15.06.2019 09:44 20,7 °C 67 % 1010,4 hPa 0,0 mm 6,6 km/h (2 Bft) NW 306 ° 0 min 0,000 mm 3,6 UV-I 540 W/m² 14,3 °C 20,7 °C 12,9 km/h (3 Bft)
15.06.2019 09:45 20,7 °C 65 % 1010,4 hPa 0,0 mm 7,4 km/h (2 Bft) W-SW 254 ° 0 min 0,000 mm 3,3 UV-I 457 W/m² 13,9 °C 20,7 °C 17,7 km/h (3 Bft)
15.06.2019 09:46 20,7 °C 67 % 1010,4 hPa 0,0 mm 6,7 km/h (2 Bft) N-NW 331 ° 0 min 0,000 mm 3,6 UV-I 497 W/m² 14,3 °C 20,7 °C 11,3 km/h (2 Bft)
15.06.2019 09:47 20,7 °C 65 % 1010,5 hPa 0,0 mm 7,7 km/h (2 Bft) W 272 ° 0 min 0,000 mm 4,0 UV-I 497 W/m² 13,9 °C 20,7 °C 12,9 km/h (3 Bft)
15.06.2019 09:48 20,7 °C 65 % 1010,4 hPa 0,0 mm 9,5 km/h (2 Bft) W-NW 282 ° 0 min 0,000 mm 3,6 UV-I 554 W/m² 13,9 °C 20,7 °C 14,5 km/h (3 Bft)
15.06.2019 09:49 20,8 °C 66 % 1010,5 hPa 0,0 mm 13,2 km/h (3 Bft) W-SW 252 ° 1 min 0,000 mm 3,8 UV-I 601 W/m² 14,2 °C 20,8 °C 17,7 km/h (3 Bft)
15.06.2019 09:50 20,8 °C 65 % 1010,5 hPa 0,0 mm 14,3 km/h (3 Bft) W-SW 257 ° 0 min 0,000 mm 3,7 UV-I 566 W/m² 14,0 °C 20,8 °C 20,9 km/h (4 Bft)
15.06.2019 09:51 20,8 °C 64 % 1010,5 hPa 0,0 mm 13,9 km/h (3 Bft) W 278 ° 1 min 0,000 mm 3,9 UV-I 605 W/m² 13,7 °C 20,8 °C 19,3 km/h (3 Bft)
15.06.2019 09:52 20,8 °C 65 % 1010,4 hPa 0,0 mm 6,7 km/h (2 Bft) W-NW 298 ° 0 min 0,000 mm 3,8 UV-I 596 W/m² 14,0 °C 20,8 °C 17,7 km/h (3 Bft)
15.06.2019 09:53 20,8 °C 65 % 1010,5 hPa 0,0 mm 10,2 km/h (2 Bft) W-NW 282 ° 1 min 0,000 mm 3,9 UV-I 626 W/m² 14,0 °C 20,8 °C 19,3 km/h (3 Bft)
15.06.2019 09:54 20,9 °C 66 % 1010,5 hPa 0,0 mm 5,0 km/h (1 Bft) W-NW 292 ° 1 min 0,000 mm 3,9 UV-I 621 W/m² 14,3 °C 20,9 °C 14,5 km/h (3 Bft)
15.06.2019 09:55 20,9 °C 66 % 1010,5 hPa 0,0 mm 11,5 km/h (2 Bft) W-NW 284 ° 0 min 0,000 mm 3,5 UV-I 571 W/m² 14,3 °C 20,9 °C 14,5 km/h (3 Bft)
15.06.2019 09:56 20,9 °C 65 % 1010,5 hPa 0,0 mm 8,2 km/h (2 Bft) W 260 ° 0 min 0,000 mm 3,5 UV-I 504 W/m² 14,1 °C 20,9 °C 12,9 km/h (3 Bft)
15.06.2019 09:57 20,9 °C 67 % 1010,5 hPa 0,0 mm 7,3 km/h (2 Bft) W-NW 287 ° 0 min 0,000 mm 3,9 UV-I 587 W/m² 14,5 °C 20,9 °C 11,3 km/h (2 Bft)
15.06.2019 09:58 20,9 °C 66 % 1010,5 hPa 0,0 mm 8,3 km/h (2 Bft) W 267 ° 0 min 0,000 mm 3,6 UV-I 543 W/m² 14,3 °C 20,9 °C 11,3 km/h (2 Bft)
15.06.2019 09:59 20,9 °C 67 % 1010,5 hPa 0,0 mm 10,1 km/h (2 Bft) W 281 ° 0 min 0,000 mm 3,5 UV-I 512 W/m² 14,5 °C 20,9 °C 17,7 km/h (3 Bft)
15.06.2019 10:00 20,9 °C 65 % 1010,5 hPa 0,0 mm 13,5 km/h (3 Bft) W-NW 289 ° 0 min 0,000 mm 3,4 UV-I 480 W/m² 14,1 °C 20,9 °C 17,7 km/h (3 Bft)
15.06.2019 10:01 20,9 °C 66 % 1010,5 hPa 0,0 mm 10,2 km/h (2 Bft) W 273 ° 0 min 0,381 mm 3,6 UV-I 578 W/m² 14,3 °C 20,9 °C 17,7 km/h (3 Bft)
15.06.2019 10:02 20,9 °C 66 % 1010,5 hPa 0,0 mm 15,1 km/h (3 Bft) W 269 ° 0 min 0,000 mm 3,9 UV-I 561 W/m² 14,3 °C 20,9 °C 20,9 km/h (4 Bft)
15.06.2019 10:03 20,8 °C 64 % 1010,6 hPa 0,0 mm 9,0 km/h (2 Bft) W 261 ° 0 min 0,000 mm 3,6 UV-I 494 W/m² 13,7 °C 20,8 °C 16,1 km/h (3 Bft)
15.06.2019 10:04 20,8 °C 65 % 1010,5 hPa 0,0 mm 7,6 km/h (2 Bft) W-NW 290 ° 0 min 0,000 mm 3,6 UV-I 497 W/m² 14,0 °C 20,8 °C 12,9 km/h (3 Bft)
15.06.2019 10:05 20,8 °C 66 % 1010,6 hPa 0,0 mm 7,3 km/h (2 Bft) W-NW 291 ° 0 min 0,000 mm 3,7 UV-I 494 W/m² 14,2 °C 20,8 °C 12,9 km/h (3 Bft)
15.06.2019 10:06 20,9 °C 67 % 1010,5 hPa 0,0 mm 10,8 km/h (2 Bft) NW 313 ° 0 min 0,000 mm 3,5 UV-I 473 W/m² 14,5 °C 20,9 °C 16,1 km/h (3 Bft)
15.06.2019 10:07 20,9 °C 67 % 1010,6 hPa 0,0 mm 6,8 km/h (2 Bft) NW 304 ° 0 min 0,000 mm 3,5 UV-I 515 W/m² 14,5 °C 20,9 °C 11,3 km/h (2 Bft)
15.06.2019 10:08 20,9 °C 67 % 1010,5 hPa 0,0 mm 6,0 km/h (2 Bft) NW 317 ° 0 min 0,000 mm 3,7 UV-I 533 W/m² 14,5 °C 20,9 °C 11,3 km/h (2 Bft)
15.06.2019 10:09 20,9 °C 66 % 1010,7 hPa 0,0 mm 12,1 km/h (2 Bft) NW 312 ° 0 min 0,000 mm 3,5 UV-I 513 W/m² 14,3 °C 20,9 °C 24,1 km/h (4 Bft)
15.06.2019 10:10 20,8 °C 64 % 1010,6 hPa 0,0 mm 13,0 km/h (3 Bft) NW 308 ° 0 min 0,000 mm 3,5 UV-I 494 W/m² 13,7 °C 20,8 °C 20,9 km/h (4 Bft)
15.06.2019 10:11 20,8 °C 65 % 1010,7 hPa 0,0 mm 8,5 km/h (2 Bft) NW 305 ° 0 min 0,000 mm 3,8 UV-I 540 W/m² 14,0 °C 20,8 °C 12,9 km/h (3 Bft)
15.06.2019 10:12 20,7 °C 65 % 1010,7 hPa 0,0 mm 14,5 km/h (3 Bft) W-SW 244 ° 0 min 0,000 mm 3,7 UV-I 527 W/m² 13,9 °C 20,7 °C 22,5 km/h (4 Bft)
15.06.2019 10:13 20,7 °C 64 % 1010,7 hPa 0,0 mm 15,1 km/h (3 Bft) NW 304 ° 0 min 0,000 mm 3,8 UV-I 554 W/m² 13,6 °C 20,7 °C 19,3 km/h (3 Bft)
15.06.2019 10:14 20,6 °C 64 % 1010,8 hPa 0,0 mm 12,6 km/h (3 Bft) W-NW 292 ° 0 min 0,000 mm 3,9 UV-I 563 W/m² 13,5 °C 20,6 °C 16,1 km/h (3 Bft)
15.06.2019 10:15 20,6 °C 64 % 1010,8 hPa 0,0 mm 9,9 km/h (2 Bft) W-NW 288 ° 0 min 0,000 mm 3,7 UV-I 522 W/m² 13,5 °C 20,6 °C 16,1 km/h (3 Bft)
15.06.2019 10:16 20,6 °C 66 % 1010,7 hPa 0,0 mm 10,6 km/h (2 Bft) W 261 ° 0 min 0,000 mm 3,9 UV-I 531 W/m² 14,0 °C 20,6 °C 22,5 km/h (4 Bft)
15.06.2019 10:17 20,6 °C 66 % 1010,8 hPa 0,0 mm 16,1 km/h (3 Bft) W-SW 245 ° 0 min 0,000 mm 4,0 UV-I 552 W/m² 14,0 °C 20,6 °C 24,1 km/h (4 Bft)
15.06.2019 10:18 20,6 °C 64 % 1010,8 hPa 0,0 mm 12,6 km/h (3 Bft) W-NW 292 ° 1 min 0,000 mm 4,1 UV-I 601 W/m² 13,5 °C 20,6 °C 19,3 km/h (3 Bft)
15.06.2019 10:19 20,6 °C 65 % 1010,8 hPa 0,0 mm 10,5 km/h (2 Bft) W-NW 282 ° 0 min 0,000 mm 4,1 UV-I 571 W/m² 13,8 °C 20,6 °C 16,1 km/h (3 Bft)
15.06.2019 10:20 20,7 °C 66 % 1010,8 hPa 0,0 mm 11,2 km/h (2 Bft) W-NW 288 ° 0 min 0,000 mm 3,9 UV-I 517 W/m² 14,1 °C 20,7 °C 14,5 km/h (3 Bft)
15.06.2019 10:21 20,7 °C 66 % 1010,9 hPa 0,0 mm 11,7 km/h (2 Bft) W-NW 285 ° 0 min 0,000 mm 4,0 UV-I 533 W/m² 14,1 °C 20,7 °C 16,1 km/h (3 Bft)
15.06.2019 10:22 20,7 °C 64 % 1010,9 hPa 0,0 mm 10,3 km/h (2 Bft) W-NW 292 ° 0 min 0,000 mm 4,1 UV-I 587 W/m² 13,6 °C 20,7 °C 19,3 km/h (3 Bft)
15.06.2019 10:23 20,7 °C 67 % 1010,9 hPa 0,0 mm 9,2 km/h (2 Bft) W 275 ° 0 min 0,000 mm 4,2 UV-I 587 W/m² 14,3 °C 20,7 °C 17,7 km/h (3 Bft)
15.06.2019 10:24 20,7 °C 65 % 1010,9 hPa 0,0 mm 12,3 km/h (3 Bft) W 271 ° 0 min 0,000 mm 3,9 UV-I 585 W/m² 13,9 °C 20,7 °C 22,5 km/h (4 Bft)
15.06.2019 10:25 20,7 °C 65 % 1010,9 hPa 0,0 mm 13,3 km/h (3 Bft) W 259 ° 0 min 0,000 mm 4,1 UV-I 496 W/m² 13,9 °C 20,7 °C 20,9 km/h (4 Bft)
15.06.2019 10:26 20,7 °C 64 % 1010,8 hPa 0,0 mm 12,7 km/h (3 Bft) W-NW 289 ° 0 min 0,000 mm 3,9 UV-I 554 W/m² 13,6 °C 20,7 °C 17,7 km/h (3 Bft)
15.06.2019 10:27 20,6 °C 65 % 1010,8 hPa 0,0 mm 7,8 km/h (2 Bft) W-NW 290 ° 0 min 0,000 mm 3,8 UV-I 475 W/m² 13,8 °C 20,6 °C 11,3 km/h (2 Bft)
15.06.2019 10:28 20,7 °C 67 % 1010,8 hPa 0,0 mm 5,8 km/h (2 Bft) NW 311 ° 0 min 0,000 mm 4,4 UV-I 475 W/m² 14,3 °C 20,7 °C 11,3 km/h (2 Bft)
15.06.2019 10:29 20,8 °C 68 % 1010,8 hPa 0,0 mm 6,1 km/h (2 Bft) NW 319 ° 0 min 0,000 mm 3,9 UV-I 571 W/m² 14,7 °C 20,8 °C 14,5 km/h (3 Bft)
15.06.2019 10:30 20,8 °C 68 % 1010,8 hPa 0,0 mm 5,9 km/h (2 Bft) W 270 ° 0 min 0,000 mm 3,9 UV-I 527 W/m² 14,7 °C 20,8 °C 12,9 km/h (3 Bft)
15.06.2019 10:31 20,8 °C 65 % 1010,8 hPa 0,0 mm 6,4 km/h (2 Bft) NW 304 ° 0 min 0,000 mm 4,2 UV-I 555 W/m² 14,0 °C 20,8 °C 12,9 km/h (3 Bft)
15.06.2019 10:32 20,8 °C 64 % 1010,8 hPa 0,0 mm 11,3 km/h (2 Bft) W 277 ° 0 min 0,000 mm 4,1 UV-I 571 W/m² 13,7 °C 20,8 °C 20,9 km/h (4 Bft)
15.06.2019 10:33 20,8 °C 67 % 1010,9 hPa 0,0 mm 7,9 km/h (2 Bft) W-NW 292 ° 1 min 0,000 mm 4,3 UV-I 617 W/m² 14,4 °C 20,8 °C 12,9 km/h (3 Bft)
15.06.2019 10:34 20,9 °C 66 % 1010,8 hPa 0,0 mm 16,2 km/h (3 Bft) NW 311 ° 0 min 0,000 mm 4,0 UV-I 552 W/m² 14,3 °C 20,9 °C 24,1 km/h (4 Bft)
15.06.2019 10:35 21,0 °C 66 % 1010,9 hPa 0,0 mm 15,4 km/h (3 Bft) W-NW 297 ° 1 min 0,000 mm 4,4 UV-I 608 W/m² 14,4 °C 21,0 °C 25,7 km/h (4 Bft)
15.06.2019 10:36 20,9 °C 63 % 1010,9 hPa 0,0 mm 11,5 km/h (2 Bft) W-SW 254 ° 1 min 0,000 mm 4,0 UV-I 605 W/m² 13,6 °C 20,9 °C 19,3 km/h (3 Bft)
15.06.2019 10:37 20,8 °C 64 % 1010,9 hPa 0,0 mm 18,6 km/h (3 Bft) NW 326 ° 0 min 0,000 mm 3,8 UV-I 534 W/m² 13,7 °C 20,8 °C 22,5 km/h (4 Bft)
15.06.2019 10:38 20,8 °C 65 % 1010,9 hPa 0,0 mm 9,7 km/h (2 Bft) W 265 ° 0 min 0,000 mm 4,0 UV-I 496 W/m² 14,0 °C 20,8 °C 16,1 km/h (3 Bft)
15.06.2019 10:39 20,8 °C 65 % 1010,9 hPa 0,0 mm 10,6 km/h (2 Bft) W 273 ° 0 min 0,000 mm 3,8 UV-I 501 W/m² 14,0 °C 20,8 °C 17,7 km/h (3 Bft)
15.06.2019 10:40 20,8 °C 65 % 1010,9 hPa 0,0 mm 14,6 km/h (3 Bft) W-NW 295 ° 0 min 0,000 mm 3,8 UV-I 501 W/m² 14,0 °C 20,8 °C 19,3 km/h (3 Bft)
15.06.2019 10:41 20,7 °C 64 % 1011,0 hPa 0,0 mm 13,2 km/h (3 Bft) W 280 ° 0 min 0,000 mm 3,9 UV-I 492 W/m² 13,6 °C 20,7 °C 17,7 km/h (3 Bft)
15.06.2019 10:42 20,7 °C 63 % 1011,0 hPa 0,0 mm 15,6 km/h (3 Bft) W-SW 257 ° 0 min 0,000 mm 3,8 UV-I 489 W/m² 13,4 °C 20,7 °C 24,1 km/h (4 Bft)
15.06.2019 10:43 20,7 °C 64 % 1011,0 hPa 0,0 mm 18,3 km/h (3 Bft) W-NW 293 ° 1 min 0,000 mm 4,7 UV-I 617 W/m² 13,6 °C 20,7 °C 29,0 km/h (5 Bft)
15.06.2019 10:44 20,7 °C 64 % 1011,0 hPa 0,0 mm 10,1 km/h (2 Bft) W-NW 296 ° 1 min 0,000 mm 4,9 UV-I 617 W/m² 13,6 °C 20,7 °C 17,7 km/h (3 Bft)
15.06.2019 10:45 20,7 °C 65 % 1011,0 hPa 0,0 mm 17,2 km/h (3 Bft) W-NW 289 ° 1 min 0,000 mm 5,2 UV-I 729 W/m² 13,9 °C 20,7 °C 22,5 km/h (4 Bft)
15.06.2019 10:46 20,7 °C 64 % 1011,0 hPa 0,0 mm 11,6 km/h (2 Bft) NW 318 ° 1 min 0,000 mm 5,3 UV-I 784 W/m² 13,6 °C 20,7 °C 17,7 km/h (3 Bft)
15.06.2019 10:47 20,8 °C 65 % 1011,0 hPa 0,0 mm 5,8 km/h (2 Bft) W-NW 288 ° 1 min 0,000 mm 5,0 UV-I 694 W/m² 14,0 °C 20,8 °C 8,0 km/h (2 Bft)
15.06.2019 10:48 20,9 °C 65 % 1011,0 hPa 0,0 mm 10,7 km/h (2 Bft) W 279 ° 1 min 0,000 mm 5,4 UV-I 756 W/m² 14,1 °C 20,9 °C 16,1 km/h (3 Bft)
15.06.2019 10:49 20,9 °C 65 % 1011,0 hPa 0,0 mm 14,7 km/h (3 Bft) W-NW 284 ° 1 min 0,000 mm 5,6 UV-I 830 W/m² 14,1 °C 20,9 °C 20,9 km/h (4 Bft)
15.06.2019 10:50 21,0 °C 65 % 1011,0 hPa 0,0 mm 14,7 km/h (3 Bft) W 281 ° 1 min 0,000 mm 5,6 UV-I 831 W/m² 14,2 °C 21,0 °C 24,1 km/h (4 Bft)
15.06.2019 10:51 21,0 °C 65 % 1011,0 hPa 0,0 mm 13,2 km/h (3 Bft) W 274 ° 1 min 0,000 mm 5,6 UV-I 838 W/m² 14,2 °C 21,0 °C 19,3 km/h (3 Bft)
15.06.2019 10:52 21,2 °C 67 % 1011,0 hPa 0,0 mm 8,9 km/h (2 Bft) W-SW 246 ° 1 min 0,000 mm 4,8 UV-I 838 W/m² 14,8 °C 21,2 °C 14,5 km/h (3 Bft)
15.06.2019 10:53 21,3 °C 69 % 1011,0 hPa 0,0 mm 12,3 km/h (3 Bft) W 281 ° 1 min 0,000 mm 5,4 UV-I 838 W/m² 15,4 °C 21,3 °C 17,7 km/h (3 Bft)
15.06.2019 10:54 21,4 °C 68 % 1010,9 hPa 0,0 mm 11,5 km/h (2 Bft) NW 304 ° 1 min 0,000 mm 5,1 UV-I 821 W/m² 15,2 °C 21,4 °C 20,9 km/h (4 Bft)
15.06.2019 10:55 21,4 °C 65 % 1011,0 hPa 0,0 mm 12,1 km/h (2 Bft) W-NW 288 ° 1 min 0,000 mm 5,2 UV-I 821 W/m² 14,5 °C 21,4 °C 16,1 km/h (3 Bft)
15.06.2019 10:56 21,4 °C 64 % 1011,1 hPa 0,0 mm 14,9 km/h (3 Bft) W 265 ° 1 min 0,000 mm 5,0 UV-I 686 W/m² 14,3 °C 21,4 °C 20,9 km/h (4 Bft)
15.06.2019 10:57 21,3 °C 65 % 1011,0 hPa 0,0 mm 13,5 km/h (3 Bft) W-NW 286 ° 1 min 0,000 mm 5,2 UV-I 729 W/m² 14,4 °C 21,3 °C 17,7 km/h (3 Bft)
15.06.2019 10:58 21,3 °C 65 % 1011,0 hPa 0,0 mm 16,0 km/h (3 Bft) W-NW 282 ° 1 min 0,000 mm 5,2 UV-I 761 W/m² 14,4 °C 21,3 °C 22,5 km/h (4 Bft)
15.06.2019 10:59 21,3 °C 64 % 1011,0 hPa 0,0 mm 11,7 km/h (2 Bft) NW 306 ° 1 min 0,000 mm 5,6 UV-I 800 W/m² 14,2 °C 21,3 °C 17,7 km/h (3 Bft)
15.06.2019 11:00 21,3 °C 67 % 1011,0 hPa 0,0 mm 14,7 km/h (3 Bft) W-NW 292 ° 1 min 0,407 mm 5,7 UV-I 765 W/m² 14,9 °C 21,3 °C 20,9 km/h (4 Bft)
15.06.2019 11:01 21,3 °C 64 % 1011,0 hPa 0,0 mm 12,4 km/h (3 Bft) W 275 ° 1 min 0,000 mm 5,6 UV-I 828 W/m² 14,2 °C 21,3 °C 19,3 km/h (3 Bft)
15.06.2019 11:02 21,4 °C 65 % 1011,1 hPa 0,0 mm 9,1 km/h (2 Bft) W 259 ° 1 min 0,000 mm 4,9 UV-I 828 W/m² 14,5 °C 21,4 °C 14,5 km/h (3 Bft)
15.06.2019 11:03 21,3 °C 66 % 1011,1 hPa 0,0 mm 11,6 km/h (2 Bft) W-NW 286 ° 1 min 0,000 mm 4,9 UV-I 664 W/m² 14,7 °C 21,3 °C 16,1 km/h (3 Bft)
15.06.2019 11:04 21,3 °C 63 % 1011,1 hPa 0,0 mm 12,0 km/h (2 Bft) W-NW 288 ° 0 min 0,000 mm 5,0 UV-I 582 W/m² 14,0 °C 21,3 °C 16,1 km/h (3 Bft)
15.06.2019 11:05 21,2 °C 63 % 1011,1 hPa 0,0 mm 14,2 km/h (3 Bft) W-NW 292 ° 0 min 0,000 mm 5,0 UV-I 582 W/m² 13,9 °C 21,2 °C 20,9 km/h (4 Bft)
15.06.2019 11:06 21,2 °C 64 % 1011,1 hPa 0,0 mm 15,0 km/h (3 Bft) W-NW 299 ° 1 min 0,000 mm 4,5 UV-I 603 W/m² 14,1 °C 21,2 °C 20,9 km/h (4 Bft)
15.06.2019 11:07 21,1 °C 65 % 1011,1 hPa 0,0 mm 11,5 km/h (2 Bft) W 280 ° 1 min 0,000 mm 4,9 UV-I 638 W/m² 14,3 °C 21,1 °C 20,9 km/h (4 Bft)
15.06.2019 11:08 21,1 °C 65 % 1011,1 hPa 0,0 mm 15,9 km/h (3 Bft) W-NW 289 ° 1 min 0,000 mm 4,9 UV-I 656 W/m² 14,3 °C 21,1 °C 20,9 km/h (4 Bft)
15.06.2019 11:09 21,1 °C 64 % 1011,1 hPa 0,0 mm 12,7 km/h (3 Bft) W-NW 294 ° 1 min 0,000 mm 5,1 UV-I 656 W/m² 14,0 °C 21,1 °C 19,3 km/h (3 Bft)
15.06.2019 11:10 21,1 °C 65 % 1011,1 hPa 0,0 mm 13,5 km/h (3 Bft) W 259 ° 1 min 0,000 mm 4,6 UV-I 661 W/m² 14,3 °C 21,1 °C 22,5 km/h (4 Bft)
15.06.2019 11:11 21,0 °C 65 % 1011,1 hPa 0,0 mm 10,7 km/h (2 Bft) W-NW 282 ° 0 min 0,000 mm 4,1 UV-I 557 W/m² 14,2 °C 21,0 °C 16,1 km/h (3 Bft)
15.06.2019 11:12 21,0 °C 64 % 1011,1 hPa 0,0 mm 12,1 km/h (2 Bft) W 281 ° 0 min 0,000 mm 4,3 UV-I 561 W/m² 13,9 °C 21,0 °C 19,3 km/h (3 Bft)
15.06.2019 11:13 21,0 °C 66 % 1011,0 hPa 0,0 mm 7,8 km/h (2 Bft) W-NW 297 ° 0 min 0,000 mm 5,1 UV-I 561 W/m² 14,4 °C 21,0 °C 16,1 km/h (3 Bft)
15.06.2019 11:14 21,1 °C 65 % 1011,1 hPa 0,0 mm 12,1 km/h (2 Bft) NW 306 ° 1 min 0,000 mm 4,9 UV-I 677 W/m² 14,3 °C 21,1 °C 22,5 km/h (4 Bft)
15.06.2019 11:15 21,2 °C 67 % 1011,1 hPa 0,0 mm 13,0 km/h (3 Bft) W-NW 294 ° 1 min 0,000 mm 4,7 UV-I 605 W/m² 14,8 °C 21,2 °C 20,9 km/h (4 Bft)
15.06.2019 11:16 21,2 °C 65 % 1011,1 hPa 0,0 mm 10,9 km/h (2 Bft) W-NW 282 ° 0 min 0,000 mm 4,5 UV-I 580 W/m² 14,4 °C 21,2 °C 19,3 km/h (3 Bft)
15.06.2019 11:17 21,2 °C 65 % 1011,1 hPa 0,0 mm 11,3 km/h (2 Bft) N 9 ° 0 min 0,000 mm 4,3 UV-I 522 W/m² 14,4 °C 21,2 °C 19,3 km/h (3 Bft)
15.06.2019 11:18 21,1 °C 63 % 1011,1 hPa 0,0 mm 12,4 km/h (3 Bft) W 266 ° 0 min 0,000 mm 4,3 UV-I 545 W/m² 13,8 °C 21,1 °C 17,7 km/h (3 Bft)
15.06.2019 11:19 21,1 °C 65 % 1011,0 hPa 0,0 mm 10,1 km/h (2 Bft) NW 323 ° 0 min 0,000 mm 4,5 UV-I 589 W/m² 14,3 °C 21,1 °C 16,1 km/h (3 Bft)
15.06.2019 11:20 21,1 °C 65 % 1011,1 hPa 0,0 mm 12,1 km/h (2 Bft) N-NW 328 ° 1 min 0,000 mm 5,0 UV-I 647 W/m² 14,3 °C 21,1 °C 19,3 km/h (3 Bft)
15.06.2019 11:21 21,3 °C 67 % 1011,1 hPa 0,0 mm 9,2 km/h (2 Bft) W-NW 290 ° 1 min 0,000 mm 5,2 UV-I 686 W/m² 14,9 °C 21,3 °C 17,7 km/h (3 Bft)
15.06.2019 11:22 21,4 °C 68 % 1011,0 hPa 0,0 mm 15,6 km/h (3 Bft) W-NW 288 ° 1 min 0,000 mm 5,5 UV-I 773 W/m² 15,2 °C 21,4 °C 19,3 km/h (3 Bft)
15.06.2019 11:23 21,4 °C 68 % 1011,1 hPa 0,0 mm 11,9 km/h (2 Bft) W-NW 284 ° 1 min 0,000 mm 5,1 UV-I 657 W/m² 15,2 °C 21,4 °C 17,7 km/h (3 Bft)
15.06.2019 11:24 21,4 °C 65 % 1011,1 hPa 0,0 mm 12,4 km/h (3 Bft) W 266 ° 1 min 0,000 mm 5,0 UV-I 663 W/m² 14,5 °C 21,4 °C 27,4 km/h (4 Bft)
15.06.2019 11:25 21,4 °C 64 % 1011,2 hPa 0,0 mm 13,2 km/h (3 Bft) W 281 ° 1 min 0,000 mm 4,9 UV-I 686 W/m² 14,3 °C 21,4 °C 20,9 km/h (4 Bft)
15.06.2019 11:26 21,4 °C 66 % 1011,2 hPa 0,0 mm 15,6 km/h (3 Bft) W-NW 285 ° 1 min 0,000 mm 4,7 UV-I 605 W/m² 14,8 °C 21,4 °C 24,1 km/h (4 Bft)
15.06.2019 11:27 21,3 °C 63 % 1011,2 hPa 0,0 mm 12,0 km/h (2 Bft) W-NW 282 ° 0 min 0,000 mm 4,3 UV-I 554 W/m² 14,0 °C 21,3 °C 16,1 km/h (3 Bft)
15.06.2019 11:28 21,3 °C 65 % 1011,1 hPa 0,0 mm 12,1 km/h (2 Bft) W-NW 284 ° 0 min 0,000 mm 4,3 UV-I 531 W/m² 14,4 °C 21,3 °C 16,1 km/h (3 Bft)
15.06.2019 11:29 21,2 °C 64 % 1011,1 hPa 0,0 mm 7,8 km/h (2 Bft) W 274 ° 1 min 0,000 mm 5,2 UV-I 612 W/m² 14,1 °C 21,2 °C 12,9 km/h (3 Bft)
15.06.2019 11:30 21,2 °C 65 % 1011,1 hPa 0,0 mm 7,8 km/h (2 Bft) N-NW 343 ° 1 min 0,000 mm 6,0 UV-I 826 W/m² 14,4 °C 21,2 °C 14,5 km/h (3 Bft)
15.06.2019 11:31 21,3 °C 67 % 1011,0 hPa 0,0 mm 13,5 km/h (3 Bft) W-NW 288 ° 1 min 0,000 mm 5,2 UV-I 726 W/m² 14,9 °C 21,3 °C 19,3 km/h (3 Bft)
15.06.2019 11:32 21,4 °C 65 % 1011,1 hPa 0,0 mm 13,1 km/h (3 Bft) N 355 ° 1 min 0,000 mm 5,6 UV-I 791 W/m² 14,5 °C 21,4 °C 24,1 km/h (4 Bft)
15.06.2019 11:33 21,5 °C 65 % 1011,1 hPa 0,0 mm 12,3 km/h (3 Bft) NW 321 ° 1 min 0,000 mm 5,5 UV-I 772 W/m² 14,6 °C 21,5 °C 17,7 km/h (3 Bft)
15.06.2019 11:34 21,5 °C 66 % 1011,0 hPa 0,0 mm 14,5 km/h (3 Bft) W 262 ° 1 min 0,000 mm 5,3 UV-I 687 W/m² 14,9 °C 21,5 °C 20,9 km/h (4 Bft)
15.06.2019 11:35 21,5 °C 65 % 1011,1 hPa 0,0 mm 10,0 km/h (2 Bft) N-NW 332 ° 1 min 0,000 mm 5,6 UV-I 809 W/m² 14,6 °C 21,5 °C 14,5 km/h (3 Bft)
15.06.2019 11:36 21,5 °C 66 % 1011,1 hPa 0,0 mm 14,6 km/h (3 Bft) NW 306 ° 1 min 0,000 mm 5,9 UV-I 795 W/m² 14,9 °C 21,5 °C 20,9 km/h (4 Bft)
15.06.2019 11:37 21,6 °C 65 % 1011,1 hPa 0,0 mm 15,1 km/h (3 Bft) W-NW 296 ° 1 min 0,000 mm 6,0 UV-I 835 W/m² 14,7 °C 21,6 °C 25,7 km/h (4 Bft)
15.06.2019 11:38 21,6 °C 64 % 1011,2 hPa 0,0 mm 13,2 km/h (3 Bft) W-SW 241 ° 1 min 0,000 mm 6,2 UV-I 865 W/m² 14,5 °C 21,6 °C 20,9 km/h (4 Bft)
15.06.2019 11:39 21,6 °C 66 % 1011,1 hPa 0,0 mm 7,4 km/h (2 Bft) N-NW 333 ° 1 min 0,000 mm 5,6 UV-I 868 W/m² 15,0 °C 21,6 °C 14,5 km/h (3 Bft)
15.06.2019 11:40 21,6 °C 65 % 1011,2 hPa 0,0 mm 13,9 km/h (3 Bft) N-NW 335 ° 1 min 0,000 mm 5,8 UV-I 868 W/m² 14,7 °C 21,6 °C 20,9 km/h (4 Bft)
15.06.2019 11:41 21,7 °C 63 % 1011,2 hPa 0,0 mm 13,4 km/h (3 Bft) W 261 ° 1 min 0,000 mm 5,6 UV-I 749 W/m² 14,3 °C 21,7 °C 17,7 km/h (3 Bft)
15.06.2019 11:42 21,6 °C 63 % 1011,2 hPa 0,0 mm 12,7 km/h (3 Bft) NW 305 ° 1 min 0,000 mm 6,0 UV-I 773 W/m² 14,2 °C 21,6 °C 22,5 km/h (4 Bft)
15.06.2019 11:43 21,5 °C 64 % 1011,2 hPa 0,0 mm 9,4 km/h (2 Bft) W-NW 300 ° 1 min 0,000 mm 5,7 UV-I 710 W/m² 14,4 °C 21,5 °C 17,7 km/h (3 Bft)
15.06.2019 11:44 21,6 °C 67 % 1011,2 hPa 0,0 mm 11,7 km/h (2 Bft) NW 313 ° 1 min 0,000 mm 5,6 UV-I 742 W/m² 15,2 °C 21,6 °C 17,7 km/h (3 Bft)
15.06.2019 11:45 21,6 °C 66 % 1011,2 hPa 0,0 mm 13,0 km/h (3 Bft) N-NW 331 ° 1 min 0,000 mm 5,4 UV-I 726 W/m² 15,0 °C 21,6 °C 19,3 km/h (3 Bft)
15.06.2019 11:46 21,7 °C 65 % 1011,2 hPa 0,0 mm 12,7 km/h (3 Bft) W-NW 287 ° 1 min 0,000 mm 5,0 UV-I 680 W/m² 14,8 °C 21,7 °C 17,7 km/h (3 Bft)
15.06.2019 11:47 21,7 °C 64 % 1011,3 hPa 0,0 mm 7,3 km/h (2 Bft) NW 312 ° 1 min 0,000 mm 4,8 UV-I 605 W/m² 14,6 °C 21,7 °C 12,9 km/h (3 Bft)
15.06.2019 11:48 21,8 °C 67 % 1011,2 hPa 0,0 mm 9,5 km/h (2 Bft) W-SW 250 ° 1 min 0,000 mm 5,0 UV-I 719 W/m² 15,4 °C 21,8 °C 16,1 km/h (3 Bft)
15.06.2019 11:49 21,8 °C 66 % 1011,3 hPa 0,0 mm 10,8 km/h (2 Bft) W-NW 301 ° 1 min 0,000 mm 4,6 UV-I 647 W/m² 15,2 °C 21,8 °C 19,3 km/h (3 Bft)
15.06.2019 11:50 21,8 °C 63 % 1011,2 hPa 0,0 mm 12,2 km/h (2 Bft) W-NW 303 ° 1 min 0,000 mm 4,3 UV-I 647 W/m² 14,4 °C 21,8 °C 19,3 km/h (3 Bft)
15.06.2019 11:51 21,7 °C 62 % 1011,2 hPa 0,0 mm 8,8 km/h (2 Bft) W-NW 290 ° 0 min 0,000 mm 4,3 UV-I 494 W/m² 14,1 °C 21,7 °C 16,1 km/h (3 Bft)
15.06.2019 11:52 21,6 °C 65 % 1011,3 hPa 0,0 mm 7,3 km/h (2 Bft) W-NW 298 ° 0 min 0,000 mm 4,3 UV-I 536 W/m² 14,7 °C 21,6 °C 11,3 km/h (2 Bft)
15.06.2019 11:53 21,6 °C 66 % 1011,2 hPa 0,0 mm 9,3 km/h (2 Bft) W-NW 296 ° 0 min 0,000 mm 4,7 UV-I 543 W/m² 15,0 °C 21,6 °C 14,5 km/h (3 Bft)
15.06.2019 11:54 21,6 °C 66 % 1011,3 hPa 0,0 mm 12,1 km/h (2 Bft) W-NW 286 ° 1 min 0,000 mm 4,5 UV-I 603 W/m² 15,0 °C 21,6 °C 17,7 km/h (3 Bft)
15.06.2019 11:55 21,6 °C 65 % 1011,2 hPa 0,0 mm 12,8 km/h (3 Bft) W-NW 292 ° 0 min 0,000 mm 4,6 UV-I 548 W/m² 14,7 °C 21,6 °C 20,9 km/h (4 Bft)
15.06.2019 11:56 21,4 °C 62 % 1011,3 hPa 0,0 mm 13,9 km/h (3 Bft) NW 305 ° 1 min 0,000 mm 4,5 UV-I 603 W/m² 13,8 °C 21,4 °C 20,9 km/h (4 Bft)
15.06.2019 11:57 21,3 °C 64 % 1011,2 hPa 0,0 mm 9,7 km/h (2 Bft) W 275 ° 0 min 0,000 mm 5,1 UV-I 587 W/m² 14,2 °C 21,3 °C 16,1 km/h (3 Bft)
15.06.2019 11:58 21,3 °C 64 % 1011,3 hPa 0,0 mm 10,4 km/h (2 Bft) NW 311 ° 0 min 0,000 mm 4,5 UV-I 547 W/m² 14,2 °C 21,3 °C 17,7 km/h (3 Bft)
15.06.2019 11:59 21,2 °C 66 % 1011,3 hPa 0,0 mm 14,6 km/h (3 Bft) N-NW 339 ° 0 min 0,000 mm 4,7 UV-I 591 W/m² 14,6 °C 21,2 °C 20,9 km/h (4 Bft)
15.06.2019 12:00 21,3 °C 66 % 1011,3 hPa 0,0 mm 7,8 km/h (2 Bft) NW 319 ° 1 min 0,000 mm 4,7 UV-I 626 W/m² 14,7 °C 21,3 °C 12,9 km/h (3 Bft)
15.06.2019 12:01 21,3 °C 66 % 1011,3 hPa 0,0 mm 8,5 km/h (2 Bft) W-NW 295 ° 1 min 0,457 mm 4,8 UV-I 606 W/m² 14,7 °C 21,3 °C 12,9 km/h (3 Bft)
15.06.2019 12:02 21,3 °C 65 % 1011,3 hPa 0,0 mm 9,5 km/h (2 Bft) NW 318 ° 1 min 0,000 mm 5,7 UV-I 606 W/m² 14,4 °C 21,3 °C 14,5 km/h (3 Bft)
15.06.2019 12:03 21,3 °C 65 % 1011,3 hPa 0,0 mm 11,0 km/h (2 Bft) W 264 ° 1 min 0,000 mm 5,0 UV-I 708 W/m² 14,4 °C 21,3 °C 16,1 km/h (3 Bft)
15.06.2019 12:04 21,4 °C 64 % 1011,3 hPa 0,0 mm 13,0 km/h (3 Bft) W-NW 288 ° 1 min 0,000 mm 5,5 UV-I 751 W/m² 14,3 °C 21,4 °C 16,1 km/h (3 Bft)
15.06.2019 12:05 21,4 °C 66 % 1011,3 hPa 0,0 mm 11,0 km/h (2 Bft) W-NW 300 ° 1 min 0,000 mm 4,9 UV-I 705 W/m² 14,8 °C 21,4 °C 16,1 km/h (3 Bft)
15.06.2019 12:06 21,6 °C 67 % 1011,2 hPa 0,0 mm 2,9 km/h (1 Bft) NW 311 ° 1 min 0,000 mm 4,9 UV-I 606 W/m² 15,2 °C 21,6 °C 8,0 km/h (2 Bft)
15.06.2019 12:07 21,7 °C 67 % 1011,3 hPa 0,0 mm 11,1 km/h (2 Bft) NW 316 ° 1 min 0,000 mm 5,6 UV-I 606 W/m² 15,3 °C 21,7 °C 19,3 km/h (3 Bft)
15.06.2019 12:08 21,7 °C 65 % 1011,3 hPa 0,0 mm 8,5 km/h (2 Bft) W-NW 286 ° 1 min 0,000 mm 5,0 UV-I 606 W/m² 14,8 °C 21,7 °C 12,9 km/h (3 Bft)
15.06.2019 12:09 21,7 °C 65 % 1011,4 hPa 0,0 mm 7,1 km/h (2 Bft) N-NW 329 ° 1 min 0,000 mm 5,4 UV-I 670 W/m² 14,8 °C 21,7 °C 11,3 km/h (2 Bft)
15.06.2019 12:10 21,7 °C 65 % 1011,4 hPa 0,0 mm 8,4 km/h (2 Bft) W 279 ° 1 min 0,000 mm 6,0 UV-I 670 W/m² 14,8 °C 21,7 °C 14,5 km/h (3 Bft)
15.06.2019 12:11 21,7 °C 65 % 1011,4 hPa 0,0 mm 12,9 km/h (3 Bft) S 184 ° 0 min 0,000 mm 4,5 UV-I 554 W/m² 14,8 °C 21,7 °C 19,3 km/h (3 Bft)
15.06.2019 12:12 21,6 °C 62 % 1011,4 hPa 0,0 mm 7,5 km/h (2 Bft) W-NW 289 ° 0 min 0,000 mm 4,4 UV-I 540 W/m² 14,0 °C 21,6 °C 16,1 km/h (3 Bft)
15.06.2019 12:13 21,6 °C 65 % 1011,4 hPa 0,0 mm 7,2 km/h (2 Bft) W-SW 257 ° 0 min 0,000 mm 4,1 UV-I 480 W/m² 14,7 °C 21,6 °C 14,5 km/h (3 Bft)
15.06.2019 12:14 21,6 °C 66 % 1011,4 hPa 0,0 mm 7,4 km/h (2 Bft) W-NW 300 ° 0 min 0,000 mm 4,6 UV-I 548 W/m² 15,0 °C 21,6 °C 17,7 km/h (3 Bft)
15.06.2019 12:15 21,6 °C 65 % 1011,4 hPa 0,0 mm 8,3 km/h (2 Bft) W-NW 294 ° 0 min 0,000 mm 5,1 UV-I 548 W/m² 14,7 °C 21,6 °C 14,5 km/h (3 Bft)
15.06.2019 12:16 21,6 °C 65 % 1011,3 hPa 0,0 mm 9,6 km/h (2 Bft) W-NW 282 ° 0 min 0,000 mm 5,8 UV-I 548 W/m² 14,7 °C 21,6 °C 17,7 km/h (3 Bft)
15.06.2019 12:17 21,7 °C 67 % 1011,4 hPa 0,0 mm 10,1 km/h (2 Bft) W-NW 288 ° 1 min 0,000 mm 5,6 UV-I 733 W/m² 15,3 °C 21,7 °C 17,7 km/h (3 Bft)
15.06.2019 12:18 21,7 °C 66 % 1011,4 hPa 0,0 mm 10,1 km/h (2 Bft) W-NW 286 ° 1 min 0,000 mm 4,9 UV-I 733 W/m² 15,1 °C 21,7 °C 14,5 km/h (3 Bft)
15.06.2019 12:19 21,7 °C 66 % 1011,4 hPa 0,0 mm 9,4 km/h (2 Bft) W-NW 284 ° 0 min 0,000 mm 4,5 UV-I 566 W/m² 15,1 °C 21,7 °C 11,3 km/h (2 Bft)
15.06.2019 12:20 21,7 °C 66 % 1011,4 hPa 0,0 mm 11,1 km/h (2 Bft) W-NW 282 ° 0 min 0,000 mm 4,1 UV-I 475 W/m² 15,1 °C 21,7 °C 16,1 km/h (3 Bft)
15.06.2019 12:21 21,7 °C 67 % 1011,4 hPa 0,0 mm 13,0 km/h (3 Bft) W 265 ° 0 min 0,000 mm 4,2 UV-I 475 W/m² 15,3 °C 21,7 °C 19,3 km/h (3 Bft)
15.06.2019 12:22 21,7 °C 64 % 1011,5 hPa 0,0 mm 7,8 km/h (2 Bft) W-NW 294 ° 0 min 0,000 mm 4,0 UV-I 483 W/m² 14,6 °C 21,7 °C 11,3 km/h (2 Bft)
15.06.2019 12:23 21,6 °C 64 % 1011,5 hPa 0,0 mm 6,9 km/h (2 Bft) NW 321 ° 0 min 0,000 mm 4,4 UV-I 506 W/m² 14,5 °C 21,6 °C 14,5 km/h (3 Bft)
15.06.2019 12:24 21,6 °C 67 % 1011,5 hPa 0,0 mm 9,7 km/h (2 Bft) W 269 ° 0 min 0,000 mm 4,1 UV-I 501 W/m² 15,2 °C 21,6 °C 14,5 km/h (3 Bft)
15.06.2019 12:25 21,6 °C 65 % 1011,5 hPa 0,0 mm 11,5 km/h (2 Bft) NW 322 ° 0 min 0,000 mm 4,3 UV-I 475 W/m² 14,7 °C 21,6 °C 19,3 km/h (3 Bft)
15.06.2019 12:26 21,5 °C 66 % 1011,6 hPa 0,0 mm 10,0 km/h (2 Bft) W 272 ° 0 min 0,000 mm 4,8 UV-I 475 W/m² 14,9 °C 21,5 °C 16,1 km/h (3 Bft)
15.06.2019 12:27 21,4 °C 64 % 1011,5 hPa 0,0 mm 7,8 km/h (2 Bft) N-NW 346 ° 0 min 0,000 mm 4,8 UV-I 580 W/m² 14,3 °C 21,4 °C 12,9 km/h (3 Bft)
15.06.2019 12:28 21,4 °C 66 % 1011,5 hPa 0,0 mm 6,9 km/h (2 Bft) NW 314 ° 1 min 0,000 mm 4,8 UV-I 612 W/m² 14,8 °C 21,4 °C 12,9 km/h (3 Bft)
15.06.2019 12:29 21,5 °C 67 % 1011,5 hPa 0,0 mm 9,7 km/h (2 Bft) NW 311 ° 0 min 0,000 mm 4,4 UV-I 563 W/m² 15,1 °C 21,5 °C 22,5 km/h (4 Bft)
15.06.2019 12:30 21,6 °C 66 % 1011,5 hPa 0,0 mm 9,0 km/h (2 Bft) NW 321 ° 0 min 0,000 mm 4,6 UV-I 513 W/m² 15,0 °C 21,6 °C 14,5 km/h (3 Bft)
15.06.2019 12:31 21,6 °C 67 % 1011,5 hPa 0,0 mm 10,8 km/h (2 Bft) NW 323 ° 0 min 0,000 mm 5,3 UV-I 513 W/m² 15,2 °C 21,6 °C 19,3 km/h (3 Bft)
15.06.2019 12:32 21,7 °C 64 % 1011,5 hPa 0,0 mm 9,5 km/h (2 Bft) N-NW 331 ° 0 min 0,000 mm 5,4 UV-I 513 W/m² 14,6 °C 21,7 °C 16,1 km/h (3 Bft)
15.06.2019 12:33 21,7 °C 65 % 1011,6 hPa 0,0 mm 9,2 km/h (2 Bft) NW 324 ° 1 min 0,000 mm 4,9 UV-I 628 W/m² 14,8 °C 21,7 °C 16,1 km/h (3 Bft)
15.06.2019 12:34 21,7 °C 65 % 1011,5 hPa 0,0 mm 8,4 km/h (2 Bft) NW 318 ° 1 min 0,000 mm 4,9 UV-I 628 W/m² 14,8 °C 21,7 °C 14,5 km/h (3 Bft)
15.06.2019 12:35 21,7 °C 65 % 1011,4 hPa 0,0 mm 12,7 km/h (3 Bft) W-NW 289 ° 0 min 0,000 mm 4,7 UV-I 557 W/m² 14,8 °C 21,7 °C 19,3 km/h (3 Bft)
15.06.2019 12:36 21,7 °C 67 % 1011,5 hPa 0,0 mm 8,8 km/h (2 Bft) NW 315 ° 1 min 0,000 mm 5,1 UV-I 621 W/m² 15,3 °C 21,7 °C 12,9 km/h (3 Bft)
15.06.2019 12:37 21,6 °C 63 % 1011,6 hPa 0,0 mm 8,6 km/h (2 Bft) W-NW 302 ° 1 min 0,000 mm 5,7 UV-I 670 W/m² 14,2 °C 21,6 °C 16,1 km/h (3 Bft)
15.06.2019 12:38 21,6 °C 65 % 1011,5 hPa 0,0 mm 2,7 km/h (1 Bft) NW 325 ° 1 min 0,000 mm 6,4 UV-I 670 W/m² 14,7 °C 21,6 °C 6,4 km/h (2 Bft)
15.06.2019 12:39 21,6 °C 66 % 1011,5 hPa 0,0 mm 3,2 km/h (1 Bft) N 5 ° 1 min 0,000 mm 6,5 UV-I 926 W/m² 15,0 °C 21,6 °C 6,4 km/h (2 Bft)
15.06.2019 12:40 21,8 °C 69 % 1011,5 hPa 0,0 mm 3,8 km/h (1 Bft) W-NW 302 ° 1 min 0,000 mm 6,0 UV-I 926 W/m² 15,9 °C 21,8 °C 4,8 km/h (1 Bft)
15.06.2019 12:41 21,9 °C 66 % 1011,5 hPa 0,0 mm 7,6 km/h (2 Bft) W-NW 292 ° 1 min 0,000 mm 6,0 UV-I 754 W/m² 15,3 °C 21,9 °C 16,1 km/h (3 Bft)
15.06.2019 12:42 22,1 °C 67 % 1011,5 hPa 0,0 mm 8,6 km/h (2 Bft) NW 308 ° 1 min 0,000 mm 5,4 UV-I 654 W/m² 15,7 °C 22,1 °C 12,9 km/h (3 Bft)
15.06.2019 12:43 22,1 °C 67 % 1011,5 hPa 0,0 mm 8,1 km/h (2 Bft) NW 325 ° 1 min 0,000 mm 4,9 UV-I 642 W/m² 15,7 °C 22,1 °C 11,3 km/h (2 Bft)
15.06.2019 12:44 22,1 °C 64 % 1011,6 hPa 0,0 mm 8,4 km/h (2 Bft) N 360 ° 1 min 0,000 mm 4,3 UV-I 642 W/m² 15,0 °C 22,1 °C 14,5 km/h (3 Bft)
15.06.2019 12:45 22,0 °C 65 % 1011,6 hPa 0,0 mm 7,4 km/h (2 Bft) W-NW 294 ° 0 min 0,000 mm 4,4 UV-I 529 W/m² 15,1 °C 22,0 °C 11,3 km/h (2 Bft)
15.06.2019 12:46 22,0 °C 65 % 1011,6 hPa 0,0 mm 6,9 km/h (2 Bft) NW 304 ° 0 min 0,000 mm 4,8 UV-I 563 W/m² 15,1 °C 22,0 °C 8,0 km/h (2 Bft)
15.06.2019 12:47 21,9 °C 65 % 1011,5 hPa 0,0 mm 5,5 km/h (1 Bft) W-NW 296 ° 0 min 0,000 mm 5,2 UV-I 563 W/m² 15,0 °C 21,9 °C 8,0 km/h (2 Bft)
15.06.2019 12:48 21,8 °C 63 % 1011,6 hPa 0,0 mm 7,5 km/h (2 Bft) N-NW 331 ° 1 min 0,000 mm 5,1 UV-I 657 W/m² 14,4 °C 21,8 °C 14,5 km/h (3 Bft)
15.06.2019 12:49 21,8 °C 66 % 1011,6 hPa 0,0 mm 10,5 km/h (2 Bft) W 271 ° 1 min 0,000 mm 4,6 UV-I 657 W/m² 15,2 °C 21,8 °C 14,5 km/h (3 Bft)
15.06.2019 12:50 21,8 °C 65 % 1011,6 hPa 0,0 mm 12,5 km/h (3 Bft) W-NW 294 ° 0 min 0,000 mm 4,6 UV-I 548 W/m² 14,9 °C 21,8 °C 16,1 km/h (3 Bft)
15.06.2019 12:51 21,7 °C 65 % 1011,6 hPa 0,0 mm 14,8 km/h (3 Bft) W-SW 251 ° 1 min 0,000 mm 5,8 UV-I 728 W/m² 14,8 °C 21,7 °C 19,3 km/h (3 Bft)
15.06.2019 12:52 21,6 °C 63 % 1011,6 hPa 0,0 mm 13,9 km/h (3 Bft) W 275 ° 1 min 0,000 mm 6,2 UV-I 824 W/m² 14,2 °C 21,6 °C 22,5 km/h (4 Bft)
15.06.2019 12:53 21,6 °C 65 % 1011,6 hPa 0,0 mm 7,7 km/h (2 Bft) W-NW 284 ° 1 min 0,000 mm 6,4 UV-I 763 W/m² 14,7 °C 21,6 °C 14,5 km/h (3 Bft)
15.06.2019 12:54 21,7 °C 66 % 1011,7 hPa 0,0 mm 10,3 km/h (2 Bft) NW 314 ° 1 min 0,000 mm 7,7 UV-I 763 W/m² 15,1 °C 21,7 °C 14,5 km/h (3 Bft)
15.06.2019 12:55 21,8 °C 65 % 1011,7 hPa 0,0 mm 5,7 km/h (1 Bft) NW 307 ° 1 min 0,000 mm 7,5 UV-I 763 W/m² 14,9 °C 21,8 °C 9,7 km/h (2 Bft)
15.06.2019 12:56 21,9 °C 65 % 1011,7 hPa 0,0 mm 7,6 km/h (2 Bft) N-NW 347 ° 1 min 0,000 mm 7,5 UV-I 763 W/m² 15,0 °C 21,9 °C 16,1 km/h (3 Bft)
15.06.2019 12:57 22,1 °C 66 % 1011,6 hPa 0,0 mm 8,2 km/h (2 Bft) N-NW 331 ° 0 min 0,000 mm 3,9 UV-I 388 W/m² 15,4 °C 22,1 °C 11,3 km/h (2 Bft)
15.06.2019 12:58 22,1 °C 65 % 1011,6 hPa 0,0 mm 11,5 km/h (2 Bft) W-NW 288 ° 0 min 0,000 mm 3,1 UV-I 346 W/m² 15,2 °C 22,1 °C 20,9 km/h (4 Bft)
15.06.2019 12:59 22,1 °C 64 % 1011,7 hPa 0,0 mm 7,0 km/h (2 Bft) NW 319 ° 0 min 0,000 mm 3,1 UV-I 336 W/m² 15,0 °C 22,1 °C 14,5 km/h (3 Bft)
15.06.2019 13:00 21,9 °C 67 % 1011,6 hPa 0,0 mm 11,7 km/h (2 Bft) N-NW 333 ° 0 min 0,000 mm 3,2 UV-I 348 W/m² 15,5 °C 21,9 °C 14,5 km/h (3 Bft)
15.06.2019 13:01 21,9 °C 66 % 1011,6 hPa 0,0 mm 5,6 km/h (1 Bft) W 273 ° 0 min 0,406 mm 3,4 UV-I 369 W/m² 15,3 °C 21,9 °C 6,4 km/h (2 Bft)
15.06.2019 13:02 21,8 °C 66 % 1011,6 hPa 0,0 mm 4,5 km/h (1 Bft) NW 307 ° 0 min 0,000 mm 3,6 UV-I 392 W/m² 15,2 °C 21,8 °C 11,3 km/h (2 Bft)
15.06.2019 13:03 21,7 °C 64 % 1011,7 hPa 0,0 mm 0,1 km/h (0 Bft) NW 307 ° 0 min 0,000 mm 3,8 UV-I 424 W/m² 14,6 °C 21,7 °C 1,6 km/h (1 Bft)
15.06.2019 13:04 21,6 °C 65 % 1011,7 hPa 0,0 mm 3,3 km/h (1 Bft) W 269 ° 0 min 0,000 mm 3,9 UV-I 443 W/m² 14,7 °C 21,6 °C 11,3 km/h (2 Bft)
15.06.2019 13:05 21,6 °C 65 % 1011,7 hPa 0,0 mm 6,9 km/h (2 Bft) W-NW 298 ° 0 min 0,000 mm 4,3 UV-I 512 W/m² 14,7 °C 21,6 °C 9,7 km/h (2 Bft)
15.06.2019 13:06 21,6 °C 67 % 1011,7 hPa 0,0 mm 7,8 km/h (2 Bft) W-NW 290 ° 0 min 0,000 mm 3,7 UV-I 446 W/m² 15,2 °C 21,6 °C 14,5 km/h (3 Bft)
15.06.2019 13:07 21,7 °C 67 % 1011,7 hPa 0,0 mm 8,7 km/h (2 Bft) NW 313 ° 0 min 0,000 mm 3,1 UV-I 362 W/m² 15,3 °C 21,7 °C 14,5 km/h (3 Bft)
15.06.2019 13:08 21,7 °C 66 % 1011,7 hPa 0,0 mm 5,4 km/h (1 Bft) NW 318 ° 0 min 0,000 mm 2,9 UV-I 323 W/m² 15,1 °C 21,7 °C 9,7 km/h (2 Bft)
15.06.2019 13:09 21,6 °C 66 % 1011,7 hPa 0,0 mm 5,5 km/h (1 Bft) W 277 ° 0 min 0,000 mm 2,8 UV-I 311 W/m² 15,0 °C 21,6 °C 12,9 km/h (3 Bft)
15.06.2019 13:10 21,5 °C 66 % 1011,7 hPa 0,0 mm 9,9 km/h (2 Bft) W-NW 299 ° 0 min 0,000 mm 3,0 UV-I 332 W/m² 14,9 °C 21,5 °C 14,5 km/h (3 Bft)
15.06.2019 13:11 21,4 °C 65 % 1011,7 hPa 0,0 mm 7,7 km/h (2 Bft) NW 306 ° 0 min 0,000 mm 3,1 UV-I 357 W/m² 14,5 °C 21,4 °C 14,5 km/h (3 Bft)
15.06.2019 13:12 21,3 °C 66 % 1011,8 hPa 0,0 mm 8,0 km/h (2 Bft) W 264 ° 0 min 0,000 mm 3,3 UV-I 380 W/m² 14,7 °C 21,3 °C 12,9 km/h (3 Bft)
15.06.2019 13:13 21,3 °C 66 % 1011,7 hPa 0,0 mm 6,5 km/h (2 Bft) W-NW 286 ° 0 min 0,000 mm 3,4 UV-I 396 W/m² 14,7 °C 21,3 °C 14,5 km/h (3 Bft)
15.06.2019 13:14 21,3 °C 66 % 1011,8 hPa 0,0 mm 8,6 km/h (2 Bft) W 273 ° 0 min 0,000 mm 3,5 UV-I 411 W/m² 14,7 °C 21,3 °C 12,9 km/h (3 Bft)
15.06.2019 13:15 21,2 °C 66 % 1011,8 hPa 0,0 mm 5,2 km/h (1 Bft) W-SW 252 ° 0 min 0,000 mm 3,3 UV-I 392 W/m² 14,6 °C 21,2 °C 8,0 km/h (2 Bft)
15.06.2019 13:16 21,2 °C 66 % 1011,8 hPa 0,0 mm 9,2 km/h (2 Bft) N-NW 339 ° 0 min 0,000 mm 3,6 UV-I 413 W/m² 14,6 °C 21,2 °C 17,7 km/h (3 Bft)
15.06.2019 13:17 21,2 °C 66 % 1011,8 hPa 0,0 mm 3,9 km/h (1 Bft) N-NW 332 ° 0 min 0,000 mm 3,8 UV-I 450 W/m² 14,6 °C 21,2 °C 8,0 km/h (2 Bft)
15.06.2019 13:18 21,3 °C 68 % 1011,7 hPa 0,0 mm 4,8 km/h (1 Bft) W-NW 295 ° 0 min 0,000 mm 3,9 UV-I 455 W/m² 15,1 °C 21,3 °C 11,3 km/h (2 Bft)
15.06.2019 13:19 21,2 °C 66 % 1011,7 hPa 0,0 mm 4,6 km/h (1 Bft) NW 324 ° 0 min 0,000 mm 4,1 UV-I 482 W/m² 14,6 °C 21,2 °C 8,0 km/h (2 Bft)
15.06.2019 13:20 21,3 °C 67 % 1011,7 hPa 0,0 mm 7,0 km/h (2 Bft) NW 315 ° 1 min 0,000 mm 5,1 UV-I 605 W/m² 14,9 °C 21,3 °C 12,9 km/h (3 Bft)
15.06.2019 13:21 21,4 °C 68 % 1011,8 hPa 0,0 mm 9,4 km/h (2 Bft) W-NW 302 ° 1 min 0,000 mm 5,1 UV-I 687 W/m² 15,2 °C 21,4 °C 12,9 km/h (3 Bft)
15.06.2019 13:22 21,6 °C 66 % 1011,7 hPa 0,0 mm 10,2 km/h (2 Bft) NW 317 ° 1 min 0,000 mm 4,2 UV-I 687 W/m² 15,0 °C 21,6 °C 14,5 km/h (3 Bft)
15.06.2019 13:23 21,7 °C 68 % 1011,7 hPa 0,0 mm 8,4 km/h (2 Bft) W-NW 294 ° 0 min 0,000 mm 4,1 UV-I 499 W/m² 15,5 °C 21,7 °C 19,3 km/h (3 Bft)
15.06.2019 13:24 21,8 °C 65 % 1011,7 hPa 0,0 mm 10,4 km/h (2 Bft) NW 309 ° 0 min 0,000 mm 4,1 UV-I 497 W/m² 14,9 °C 21,8 °C 14,5 km/h (3 Bft)
15.06.2019 13:25 21,7 °C 65 % 1011,6 hPa 0,0 mm 6,0 km/h (2 Bft) N 355 ° 0 min 0,000 mm 4,2 UV-I 506 W/m² 14,8 °C 21,7 °C 16,1 km/h (3 Bft)
15.06.2019 13:26 21,7 °C 65 % 1011,7 hPa 0,0 mm 9,4 km/h (2 Bft) NW 317 ° 0 min 0,000 mm 4,2 UV-I 529 W/m² 14,8 °C 21,7 °C 16,1 km/h (3 Bft)
15.06.2019 13:27 21,7 °C 67 % 1011,6 hPa 0,0 mm 3,9 km/h (1 Bft) W-NW 300 ° 0 min 0,000 mm 4,3 UV-I 522 W/m² 15,3 °C 21,7 °C 8,0 km/h (2 Bft)
15.06.2019 13:28 21,8 °C 68 % 1011,6 hPa 0,0 mm 6,7 km/h (2 Bft) W-NW 282 ° 0 min 0,000 mm 4,3 UV-I 515 W/m² 15,6 °C 21,8 °C 14,5 km/h (3 Bft)
15.06.2019 13:29 21,8 °C 66 % 1011,6 hPa 0,0 mm 7,5 km/h (2 Bft) W-NW 286 ° 0 min 0,000 mm 4,5 UV-I 529 W/m² 15,2 °C 21,8 °C 11,3 km/h (2 Bft)
15.06.2019 13:30 21,7 °C 65 % 1011,6 hPa 0,0 mm 12,1 km/h (2 Bft) W-NW 283 ° 0 min 0,000 mm 4,4 UV-I 531 W/m² 14,8 °C 21,7 °C 16,1 km/h (3 Bft)
15.06.2019 13:31 21,7 °C 65 % 1011,7 hPa 0,0 mm 12,5 km/h (3 Bft) W-NW 289 ° 0 min 0,000 mm 4,3 UV-I 513 W/m² 14,8 °C 21,7 °C 17,7 km/h (3 Bft)
15.06.2019 13:32 21,7 °C 65 % 1011,7 hPa 0,0 mm 6,4 km/h (2 Bft) NW 322 ° 0 min 0,000 mm 4,3 UV-I 487 W/m² 14,8 °C 21,7 °C 12,9 km/h (3 Bft)
15.06.2019 13:33 21,7 °C 67 % 1011,8 hPa 0,0 mm 9,2 km/h (2 Bft) W-NW 282 ° 0 min 0,000 mm 4,2 UV-I 487 W/m² 15,3 °C 21,7 °C 14,5 km/h (3 Bft)
15.06.2019 13:34 21,7 °C 64 % 1011,8 hPa 0,0 mm 5,9 km/h (2 Bft) W-NW 288 ° 0 min 0,000 mm 4,2 UV-I 492 W/m² 14,6 °C 21,7 °C 12,9 km/h (3 Bft)
15.06.2019 13:35 21,6 °C 63 % 1011,7 hPa 0,0 mm 4,6 km/h (1 Bft) W-NW 284 ° 0 min 0,000 mm 4,0 UV-I 478 W/m² 14,2 °C 21,6 °C 12,9 km/h (3 Bft)
15.06.2019 13:36 21,6 °C 64 % 1011,7 hPa 0,0 mm 8,3 km/h (2 Bft) W-SW 252 ° 0 min 0,000 mm 3,7 UV-I 434 W/m² 14,5 °C 21,6 °C 14,5 km/h (3 Bft)
15.06.2019 13:37 21,4 °C 65 % 1011,6 hPa 0,0 mm 7,9 km/h (2 Bft) W-NW 296 ° 0 min 0,000 mm 3,4 UV-I 388 W/m² 14,5 °C 21,4 °C 12,9 km/h (3 Bft)
15.06.2019 13:38 21,4 °C 65 % 1011,6 hPa 0,0 mm 8,4 km/h (2 Bft) NW 323 ° 0 min 0,000 mm 3,3 UV-I 353 W/m² 14,5 °C 21,4 °C 12,9 km/h (3 Bft)
15.06.2019 13:39 21,4 °C 65 % 1011,7 hPa 0,0 mm 6,4 km/h (2 Bft) N-NW 331 ° 0 min 0,000 mm 3,2 UV-I 359 W/m² 14,5 °C 21,4 °C 12,9 km/h (3 Bft)
15.06.2019 13:40 21,4 °C 65 % 1011,6 hPa 0,0 mm 9,1 km/h (2 Bft) W-NW 282 ° 0 min 0,000 mm 3,3 UV-I 381 W/m² 14,5 °C 21,4 °C 22,5 km/h (4 Bft)
15.06.2019 13:41 21,4 °C 68 % 1011,6 hPa 0,0 mm 10,5 km/h (2 Bft) W-SW 244 ° 0 min 0,000 mm 3,4 UV-I 397 W/m² 15,2 °C 21,4 °C 17,7 km/h (3 Bft)
15.06.2019 13:42 21,4 °C 65 % 1011,7 hPa 0,0 mm 12,3 km/h (3 Bft) W-NW 290 ° 0 min 0,000 mm 3,4 UV-I 404 W/m² 14,5 °C 21,4 °C 16,1 km/h (3 Bft)
15.06.2019 13:43 21,4 °C 64 % 1011,8 hPa 0,0 mm 10,3 km/h (2 Bft) W-NW 285 ° 0 min 0,000 mm 3,4 UV-I 406 W/m² 14,3 °C 21,4 °C 19,3 km/h (3 Bft)
15.06.2019 13:44 21,4 °C 65 % 1011,7 hPa 0,0 mm 12,9 km/h (3 Bft) W 271 ° 0 min 0,000 mm 3,3 UV-I 381 W/m² 14,5 °C 21,4 °C 20,9 km/h (4 Bft)
15.06.2019 13:45 21,4 °C 65 % 1011,8 hPa 0,0 mm 10,9 km/h (2 Bft) W-NW 290 ° 0 min 0,000 mm 3,1 UV-I 380 W/m² 14,5 °C 21,4 °C 14,5 km/h (3 Bft)
15.06.2019 13:46 21,3 °C 64 % 1011,7 hPa 0,0 mm 7,5 km/h (2 Bft) W-NW 289 ° 0 min 0,000 mm 3,1 UV-I 381 W/m² 14,2 °C 21,3 °C 9,7 km/h (2 Bft)
15.06.2019 13:47 21,3 °C 64 % 1011,7 hPa 0,0 mm 7,1 km/h (2 Bft) W-NW 290 ° 0 min 0,000 mm 3,2 UV-I 390 W/m² 14,2 °C 21,3 °C 14,5 km/h (3 Bft)
15.06.2019 13:48 21,3 °C 65 % 1011,7 hPa 0,0 mm 9,9 km/h (2 Bft) N-NW 332 ° 0 min 0,000 mm 3,2 UV-I 396 W/m² 14,4 °C 21,3 °C 16,1 km/h (3 Bft)
15.06.2019 13:49 21,3 °C 66 % 1011,7 hPa 0,0 mm 8,9 km/h (2 Bft) W-NW 297 ° 0 min 0,000 mm 3,1 UV-I 385 W/m² 14,7 °C 21,3 °C 16,1 km/h (3 Bft)
15.06.2019 13:50 21,4 °C 66 % 1011,6 hPa 0,0 mm 7,1 km/h (2 Bft) W-NW 295 ° 0 min 0,000 mm 3,0 UV-I 353 W/m² 14,8 °C 21,4 °C 12,9 km/h (3 Bft)
15.06.2019 13:51 21,4 °C 66 % 1011,7 hPa 0,0 mm 9,6 km/h (2 Bft) W 269 ° 0 min 0,000 mm 2,7 UV-I 325 W/m² 14,8 °C 21,4 °C 14,5 km/h (3 Bft)
15.06.2019 13:52 21,4 °C 65 % 1011,7 hPa 0,0 mm 8,2 km/h (2 Bft) NW 318 ° 0 min 0,000 mm 2,4 UV-I 288 W/m² 14,5 °C 21,4 °C 12,9 km/h (3 Bft)
15.06.2019 13:53 21,4 °C 66 % 1011,6 hPa 0,0 mm 8,0 km/h (2 Bft) W-NW 284 ° 0 min 0,000 mm 2,3 UV-I 265 W/m² 14,8 °C 21,4 °C 19,3 km/h (3 Bft)
15.06.2019 13:54 21,4 °C 66 % 1011,7 hPa 0,0 mm 13,5 km/h (3 Bft) W-NW 295 ° 0 min 0,000 mm 2,2 UV-I 258 W/m² 14,8 °C 21,4 °C 17,7 km/h (3 Bft)
15.06.2019 13:55 21,4 °C 65 % 1011,7 hPa 0,0 mm 7,8 km/h (2 Bft) W 276 ° 0 min 0,000 mm 2,3 UV-I 272 W/m² 14,5 °C 21,4 °C 16,1 km/h (3 Bft)
15.06.2019 13:56 21,4 °C 67 % 1011,7 hPa 0,0 mm 7,1 km/h (2 Bft) W-SW 255 ° 0 min 0,000 mm 2,3 UV-I 276 W/m² 15,0 °C 21,4 °C 14,5 km/h (3 Bft)
15.06.2019 13:57 21,3 °C 65 % 1011,8 hPa 0,0 mm 9,3 km/h (2 Bft) W 260 ° 0 min 0,000 mm 2,3 UV-I 274 W/m² 14,4 °C 21,3 °C 12,9 km/h (3 Bft)
15.06.2019 13:58 21,3 °C 66 % 1011,7 hPa 0,0 mm 1,5 km/h (1 Bft) W 261 ° 0 min 0,000 mm 2,2 UV-I 265 W/m² 14,7 °C 21,3 °C 6,4 km/h (2 Bft)
15.06.2019 13:59 21,2 °C 66 % 1011,7 hPa 0,0 mm 6,4 km/h (2 Bft) SW 219 ° 0 min 0,000 mm 2,2 UV-I 262 W/m² 14,6 °C 21,2 °C 11,3 km/h (2 Bft)
15.06.2019 14:00 21,2 °C 65 % 1011,7 hPa 0,0 mm 5,9 km/h (2 Bft) W-NW 283 ° 0 min 0,000 mm 2,2 UV-I 269 W/m² 14,4 °C 21,2 °C 11,3 km/h (2 Bft)
15.06.2019 14:01 21,1 °C 65 % 1011,8 hPa 0,0 mm 9,4 km/h (2 Bft) W-SW 250 ° 0 min 0,280 mm 2,4 UV-I 294 W/m² 14,3 °C 21,1 °C 19,3 km/h (3 Bft)
15.06.2019 14:02 21,1 °C 65 % 1011,7 hPa 0,0 mm 12,1 km/h (2 Bft) W-NW 282 ° 0 min 0,000 mm 2,5 UV-I 304 W/m² 14,3 °C 21,1 °C 17,7 km/h (3 Bft)
15.06.2019 14:03 21,1 °C 65 % 1011,7 hPa 0,0 mm 7,3 km/h (2 Bft) W 272 ° 0 min 0,000 mm 2,7 UV-I 304 W/m² 14,3 °C 21,1 °C 12,9 km/h (3 Bft)
15.06.2019 14:04 21,1 °C 67 % 1011,7 hPa 0,0 mm 3,0 km/h (1 Bft) SW 234 ° 0 min 0,000 mm 2,9 UV-I 343 W/m² 14,7 °C 21,1 °C 6,4 km/h (2 Bft)
15.06.2019 14:05 21,1 °C 68 % 1011,7 hPa 0,0 mm 6,4 km/h (2 Bft) SW 235 ° 0 min 0,000 mm 2,9 UV-I 350 W/m² 15,0 °C 21,1 °C 14,5 km/h (3 Bft)
15.06.2019 14:06 21,1 °C 67 % 1011,6 hPa 0,0 mm 6,0 km/h (2 Bft) W 259 ° 0 min 0,000 mm 2,9 UV-I 352 W/m² 14,7 °C 21,1 °C 12,9 km/h (3 Bft)
15.06.2019 14:07 21,2 °C 68 % 1011,7 hPa 0,0 mm 3,1 km/h (1 Bft) S-SO 167 ° 0 min 0,000 mm 2,9 UV-I 341 W/m² 15,1 °C 21,2 °C 9,7 km/h (2 Bft)
15.06.2019 14:08 21,2 °C 67 % 1011,7 hPa 0,0 mm 6,3 km/h (2 Bft) NW 315 ° 0 min 0,000 mm 2,8 UV-I 336 W/m² 14,8 °C 21,2 °C 14,5 km/h (3 Bft)
15.06.2019 14:09 21,2 °C 67 % 1011,7 hPa 0,0 mm 9,3 km/h (2 Bft) W-NW 298 ° 0 min 0,000 mm 2,7 UV-I 323 W/m² 14,8 °C 21,2 °C 12,9 km/h (3 Bft)
15.06.2019 14:10 21,2 °C 66 % 1011,7 hPa 0,0 mm 6,5 km/h (2 Bft) NW 311 ° 0 min 0,000 mm 2,6 UV-I 311 W/m² 14,6 °C 21,2 °C 11,3 km/h (2 Bft)
15.06.2019 14:11 21,2 °C 66 % 1011,7 hPa 0,0 mm 4,2 km/h (1 Bft) NW 317 ° 0 min 0,000 mm 2,6 UV-I 304 W/m² 14,6 °C 21,2 °C 8,0 km/h (2 Bft)
15.06.2019 14:12 21,3 °C 68 % 1011,7 hPa 0,0 mm 3,0 km/h (1 Bft) NW 311 ° 0 min 0,000 mm 2,5 UV-I 297 W/m² 15,1 °C 21,3 °C 8,0 km/h (2 Bft)
15.06.2019 14:13 21,3 °C 69 % 1011,7 hPa 0,0 mm 5,6 km/h (1 Bft) NW 305 ° 0 min 0,000 mm 2,5 UV-I 287 W/m² 15,4 °C 21,3 °C 9,7 km/h (2 Bft)
15.06.2019 14:14 21,3 °C 67 % 1011,7 hPa 0,0 mm 6,3 km/h (2 Bft) N-NW 332 ° 0 min 0,000 mm 2,6 UV-I 292 W/m² 14,9 °C 21,3 °C 12,9 km/h (3 Bft)
15.06.2019 14:15 21,3 °C 68 % 1011,7 hPa 0,0 mm 3,3 km/h (1 Bft) N-NW 333 ° 0 min 0,000 mm 2,7 UV-I 306 W/m² 15,1 °C 21,3 °C 8,0 km/h (2 Bft)
15.06.2019 14:16 21,3 °C 67 % 1011,6 hPa 0,0 mm 5,8 km/h (2 Bft) W 273 ° 0 min 0,000 mm 2,9 UV-I 330 W/m² 14,9 °C 21,3 °C 11,3 km/h (2 Bft)
15.06.2019 14:17 21,3 °C 68 % 1011,6 hPa 0,0 mm 5,6 km/h (1 Bft) W 273 ° 0 min 0,000 mm 2,9 UV-I 336 W/m² 15,1 °C 21,3 °C 9,7 km/h (2 Bft)
15.06.2019 14:18 21,3 °C 68 % 1011,6 hPa 0,0 mm 4,4 km/h (1 Bft) NW 307 ° 0 min 0,000 mm 3,0 UV-I 345 W/m² 15,1 °C 21,3 °C 6,4 km/h (2 Bft)
15.06.2019 14:19 21,3 °C 69 % 1011,7 hPa 0,0 mm 3,1 km/h (1 Bft) NW 317 ° 0 min 0,000 mm 2,9 UV-I 330 W/m² 15,4 °C 21,3 °C 4,8 km/h (1 Bft)
15.06.2019 14:20 21,4 °C 69 % 1011,6 hPa 0,0 mm 5,8 km/h (2 Bft) N-NW 346 ° 0 min 0,000 mm 2,8 UV-I 330 W/m² 15,5 °C 21,4 °C 12,9 km/h (3 Bft)
15.06.2019 14:21 21,4 °C 68 % 1011,6 hPa 0,0 mm 5,2 km/h (1 Bft) W 260 ° 0 min 0,000 mm 2,8 UV-I 336 W/m² 15,2 °C 21,4 °C 8,0 km/h (2 Bft)
15.06.2019 14:22 21,4 °C 65 % 1011,7 hPa 0,0 mm 3,2 km/h (1 Bft) N-NW 333 ° 0 min 0,000 mm 2,9 UV-I 339 W/m² 14,5 °C 21,4 °C 6,4 km/h (2 Bft)
15.06.2019 14:23 21,3 °C 66 % 1011,7 hPa 0,0 mm 7,6 km/h (2 Bft) W 279 ° 0 min 0,000 mm 3,0 UV-I 353 W/m² 14,7 °C 21,3 °C 14,5 km/h (3 Bft)
15.06.2019 14:24 21,3 °C 66 % 1011,6 hPa 0,0 mm 7,9 km/h (2 Bft) W-NW 293 ° 0 min 0,000 mm 3,1 UV-I 373 W/m² 14,7 °C 21,3 °C 11,3 km/h (2 Bft)
15.06.2019 14:25 21,3 °C 66 % 1011,7 hPa 0,0 mm 8,7 km/h (2 Bft) W-SW 243 ° 0 min 0,000 mm 3,1 UV-I 357 W/m² 14,7 °C 21,3 °C 14,5 km/h (3 Bft)
15.06.2019 14:26 21,3 °C 65 % 1011,7 hPa 0,0 mm 6,7 km/h (2 Bft) NW 323 ° 0 min 0,000 mm 2,8 UV-I 330 W/m² 14,4 °C 21,3 °C 11,3 km/h (2 Bft)
15.06.2019 14:27 21,3 °C 66 % 1011,7 hPa 0,0 mm 5,8 km/h (2 Bft) W-NW 292 ° 0 min 0,000 mm 2,7 UV-I 316 W/m² 14,7 °C 21,3 °C 11,3 km/h (2 Bft)
15.06.2019 14:28 21,3 °C 66 % 1011,6 hPa 0,0 mm 4,7 km/h (1 Bft) W 267 ° 0 min 0,000 mm 2,6 UV-I 302 W/m² 14,7 °C 21,3 °C 9,7 km/h (2 Bft)
15.06.2019 14:29 21,2 °C 65 % 1011,7 hPa 0,0 mm 6,4 km/h (2 Bft) NW 319 ° 0 min 0,000 mm 2,5 UV-I 292 W/m² 14,4 °C 21,2 °C 9,7 km/h (2 Bft)
15.06.2019 14:30 21,2 °C 66 % 1011,7 hPa 0,0 mm 6,0 km/h (2 Bft) W-NW 282 ° 0 min 0,000 mm 2,5 UV-I 290 W/m² 14,6 °C 21,2 °C 11,3 km/h (2 Bft)
15.06.2019 14:31 21,2 °C 65 % 1011,8 hPa 0,0 mm 3,7 km/h (1 Bft) N-NW 347 ° 0 min 0,000 mm 2,5 UV-I 288 W/m² 14,4 °C 21,2 °C 9,7 km/h (2 Bft)
15.06.2019 14:32 21,2 °C 67 % 1011,8 hPa 0,0 mm 4,1 km/h (1 Bft) W-NW 286 ° 0 min 0,000 mm 2,4 UV-I 287 W/m² 14,8 °C 21,2 °C 6,4 km/h (2 Bft)
15.06.2019 14:33 21,2 °C 66 % 1011,8 hPa 0,0 mm 5,9 km/h (2 Bft) N-NW 327 ° 0 min 0,000 mm 2,4 UV-I 279 W/m² 14,6 °C 21,2 °C 9,7 km/h (2 Bft)
15.06.2019 14:34 21,2 °C 66 % 1011,8 hPa 0,0 mm 4,8 km/h (1 Bft) NW 305 ° 0 min 0,000 mm 2,4 UV-I 276 W/m² 14,6 °C 21,2 °C 11,3 km/h (2 Bft)
15.06.2019 14:35 21,2 °C 66 % 1011,8 hPa 0,0 mm 6,4 km/h (2 Bft) W-NW 282 ° 0 min 0,000 mm 2,4 UV-I 281 W/m² 14,6 °C 21,2 °C 19,3 km/h (3 Bft)
15.06.2019 14:36 21,2 °C 67 % 1011,8 hPa 0,0 mm 12,7 km/h (3 Bft) W-NW 289 ° 0 min 0,000 mm 2,5 UV-I 306 W/m² 14,8 °C 21,2 °C 19,3 km/h (3 Bft)
15.06.2019 14:37 21,2 °C 66 % 1011,8 hPa 0,0 mm 7,5 km/h (2 Bft) W-NW 285 ° 0 min 0,000 mm 2,6 UV-I 315 W/m² 14,6 °C 21,2 °C 12,9 km/h (3 Bft)
15.06.2019 14:38 21,2 °C 67 % 1011,8 hPa 0,0 mm 4,2 km/h (1 Bft) W-NW 295 ° 0 min 0,000 mm 2,8 UV-I 330 W/m² 14,8 °C 21,2 °C 4,8 km/h (1 Bft)
15.06.2019 14:39 21,2 °C 67 % 1011,8 hPa 0,0 mm 6,8 km/h (2 Bft) W-NW 283 ° 0 min 0,000 mm 2,9 UV-I 343 W/m² 14,8 °C 21,2 °C 11,3 km/h (2 Bft)
15.06.2019 14:40 21,1 °C 66 % 1011,8 hPa 0,0 mm 11,4 km/h (2 Bft) W 269 ° 0 min 0,000 mm 2,9 UV-I 350 W/m² 14,5 °C 21,1 °C 16,1 km/h (3 Bft)
15.06.2019 14:41 21,2 °C 67 % 1011,8 hPa 0,0 mm 9,8 km/h (2 Bft) W 265 ° 0 min 0,000 mm 2,8 UV-I 330 W/m² 14,8 °C 21,2 °C 16,1 km/h (3 Bft)
15.06.2019 14:42 21,1 °C 65 % 1011,8 hPa 0,0 mm 11,1 km/h (2 Bft) NW 305 ° 0 min 0,000 mm 2,6 UV-I 285 W/m² 14,3 °C 21,1 °C 16,1 km/h (3 Bft)
15.06.2019 14:43 21,2 °C 66 % 1011,8 hPa 0,0 mm 8,6 km/h (2 Bft) NW 306 ° 0 min 0,000 mm 2,5 UV-I 278 W/m² 14,6 °C 21,2 °C 14,5 km/h (3 Bft)
15.06.2019 14:44 21,1 °C 67 % 1011,8 hPa 0,0 mm 12,0 km/h (2 Bft) W-SW 252 ° 0 min 0,000 mm 2,4 UV-I 279 W/m² 14,7 °C 21,1 °C 16,1 km/h (3 Bft)
15.06.2019 14:45 21,1 °C 66 % 1011,9 hPa 0,0 mm 8,0 km/h (2 Bft) W-NW 292 ° 0 min 0,000 mm 2,5 UV-I 290 W/m² 14,5 °C 21,1 °C 12,9 km/h (3 Bft)
15.06.2019 14:46 21,1 °C 68 % 1011,9 hPa 0,0 mm 4,8 km/h (1 Bft) W 281 ° 0 min 0,000 mm 2,7 UV-I 327 W/m² 15,0 °C 21,1 °C 12,9 km/h (3 Bft)
15.06.2019 14:47 21,0 °C 66 % 1011,9 hPa 0,0 mm 9,2 km/h (2 Bft) W 278 ° 0 min 0,000 mm 2,8 UV-I 348 W/m² 14,4 °C 21,0 °C 12,9 km/h (3 Bft)
15.06.2019 14:48 21,1 °C 69 % 1011,9 hPa 0,0 mm 5,2 km/h (1 Bft) W-SW 255 ° 0 min 0,000 mm 2,8 UV-I 346 W/m² 15,2 °C 21,1 °C 9,7 km/h (2 Bft)
15.06.2019 14:49 21,1 °C 67 % 1011,9 hPa 0,0 mm 5,0 km/h (1 Bft) NW 304 ° 0 min 0,000 mm 2,8 UV-I 348 W/m² 14,7 °C 21,1 °C 11,3 km/h (2 Bft)
15.06.2019 14:50 21,0 °C 66 % 1011,9 hPa 0,0 mm 4,8 km/h (1 Bft) W-NW 282 ° 0 min 0,000 mm 2,8 UV-I 346 W/m² 14,4 °C 21,0 °C 9,7 km/h (2 Bft)
15.06.2019 14:51 20,9 °C 66 % 1011,9 hPa 0,0 mm 7,0 km/h (2 Bft) W-NW 300 ° 0 min 0,000 mm 2,6 UV-I 334 W/m² 14,3 °C 20,9 °C 11,3 km/h (2 Bft)
15.06.2019 14:52 20,9 °C 65 % 1011,9 hPa 0,0 mm 3,9 km/h (1 Bft) NW 319 ° 0 min 0,000 mm 2,5 UV-I 306 W/m² 14,1 °C 20,9 °C 8,0 km/h (2 Bft)
15.06.2019 14:53 20,9 °C 65 % 1011,9 hPa 0,0 mm 5,6 km/h (1 Bft) W-NW 288 ° 0 min 0,000 mm 2,3 UV-I 276 W/m² 14,1 °C 20,9 °C 8,0 km/h (2 Bft)
15.06.2019 14:54 21,0 °C 68 % 1011,9 hPa 0,0 mm 5,8 km/h (2 Bft) NW 318 ° 0 min 0,000 mm 2,2 UV-I 281 W/m² 14,9 °C 21,0 °C 8,0 km/h (2 Bft)
15.06.2019 14:55 21,0 °C 65 % 1012,0 hPa 0,0 mm 7,9 km/h (2 Bft) NW 322 ° 0 min 0,000 mm 2,4 UV-I 294 W/m² 14,2 °C 21,0 °C 12,9 km/h (3 Bft)
15.06.2019 14:56 21,1 °C 67 % 1011,9 hPa 0,0 mm 8,7 km/h (2 Bft) W-NW 288 ° 0 min 0,000 mm 2,4 UV-I 299 W/m² 14,7 °C 21,1 °C 12,9 km/h (3 Bft)
15.06.2019 14:57 21,1 °C 65 % 1011,9 hPa 0,0 mm 6,3 km/h (2 Bft) NW 325 ° 0 min 0,000 mm 2,4 UV-I 294 W/m² 14,3 °C 21,1 °C 9,7 km/h (2 Bft)
15.06.2019 14:58 21,1 °C 66 % 1012,0 hPa 0,0 mm 6,4 km/h (2 Bft) W-NW 302 ° 0 min 0,000 mm 2,4 UV-I 287 W/m² 14,5 °C 21,1 °C 12,9 km/h (3 Bft)
15.06.2019 14:59 21,1 °C 67 % 1011,9 hPa 0,0 mm 5,3 km/h (1 Bft) W-NW 290 ° 0 min 0,000 mm 2,4 UV-I 285 W/m² 14,7 °C 21,1 °C 9,7 km/h (2 Bft)
15.06.2019 15:00 21,1 °C 68 % 1011,9 hPa 0,0 mm 9,4 km/h (2 Bft) W 277 ° 0 min 0,000 mm 2,4 UV-I 285 W/m² 15,0 °C 21,1 °C 16,1 km/h (3 Bft)
15.06.2019 15:01 21,1 °C 64 % 1012,0 hPa 0,0 mm 7,0 km/h (2 Bft) W-NW 300 ° 0 min 0,228 mm 2,4 UV-I 285 W/m² 14,0 °C 21,1 °C 12,9 km/h (3 Bft)
15.06.2019 15:02 21,1 °C 63 % 1012,0 hPa 0,0 mm 6,6 km/h (2 Bft) N-NW 334 ° 0 min 0,000 mm 2,5 UV-I 299 W/m² 13,8 °C 21,1 °C 12,9 km/h (3 Bft)
15.06.2019 15:03 21,1 °C 65 % 1012,0 hPa 0,0 mm 6,4 km/h (2 Bft) W-NW 299 ° 0 min 0,000 mm 2,6 UV-I 323 W/m² 14,3 °C 21,1 °C 12,9 km/h (3 Bft)
15.06.2019 15:04 21,1 °C 65 % 1012,0 hPa 0,0 mm 5,6 km/h (1 Bft) N-NW 327 ° 0 min 0,000 mm 2,8 UV-I 345 W/m² 14,3 °C 21,1 °C 9,7 km/h (2 Bft)
15.06.2019 15:05 21,1 °C 64 % 1012,0 hPa 0,0 mm 2,7 km/h (1 Bft) NW 313 ° 0 min 0,000 mm 2,8 UV-I 355 W/m² 14,0 °C 21,1 °C 6,4 km/h (2 Bft)
15.06.2019 15:06 21,2 °C 66 % 1012,0 hPa 0,0 mm 4,6 km/h (1 Bft) W 259 ° 0 min 0,000 mm 2,9 UV-I 355 W/m² 14,6 °C 21,2 °C 9,7 km/h (2 Bft)
15.06.2019 15:07 21,2 °C 65 % 1012,0 hPa 0,0 mm 8,8 km/h (2 Bft) W-NW 282 ° 0 min 0,000 mm 2,8 UV-I 350 W/m² 14,4 °C 21,2 °C 12,9 km/h (3 Bft)
15.06.2019 15:08 21,2 °C 66 % 1012,0 hPa 0,0 mm 6,1 km/h (2 Bft) W-NW 286 ° 0 min 0,000 mm 2,8 UV-I 346 W/m² 14,6 °C 21,2 °C 9,7 km/h (2 Bft)
15.06.2019 15:09 21,2 °C 68 % 1012,0 hPa 0,0 mm 5,8 km/h (2 Bft) W 261 ° 0 min 0,000 mm 2,8 UV-I 345 W/m² 15,1 °C 21,2 °C 9,7 km/h (2 Bft)
15.06.2019 15:10 21,3 °C 66 % 1012,0 hPa 0,0 mm 6,0 km/h (2 Bft) W 266 ° 0 min 0,000 mm 2,8 UV-I 339 W/m² 14,7 °C 21,3 °C 11,3 km/h (2 Bft)
15.06.2019 15:11 21,3 °C 66 % 1012,0 hPa 0,0 mm 6,6 km/h (2 Bft) W 278 ° 0 min 0,000 mm 2,7 UV-I 330 W/m² 14,7 °C 21,3 °C 8,0 km/h (2 Bft)
15.06.2019 15:12 21,3 °C 64 % 1011,9 hPa 0,0 mm 3,7 km/h (1 Bft) W-NW 292 ° 0 min 0,000 mm 2,7 UV-I 316 W/m² 14,2 °C 21,3 °C 9,7 km/h (2 Bft)
15.06.2019 15:13 21,3 °C 66 % 1011,9 hPa 0,0 mm 8,1 km/h (2 Bft) W-NW 286 ° 0 min 0,000 mm 2,6 UV-I 313 W/m² 14,7 °C 21,3 °C 16,1 km/h (3 Bft)
15.06.2019 15:14 21,3 °C 63 % 1012,0 hPa 0,0 mm 11,1 km/h (2 Bft) W-NW 292 ° 0 min 0,000 mm 2,6 UV-I 311 W/m² 14,0 °C 21,3 °C 17,7 km/h (3 Bft)
15.06.2019 15:15 21,2 °C 62 % 1012,0 hPa 0,0 mm 11,1 km/h (2 Bft) W-NW 290 ° 0 min 0,000 mm 2,7 UV-I 315 W/m² 13,6 °C 21,2 °C 16,1 km/h (3 Bft)
15.06.2019 15:16 21,2 °C 64 % 1012,0 hPa 0,0 mm 11,1 km/h (2 Bft) W-SW 244 ° 0 min 0,000 mm 2,7 UV-I 316 W/m² 14,1 °C 21,2 °C 16,1 km/h (3 Bft)
15.06.2019 15:17 21,2 °C 61 % 1012,0 hPa 0,0 mm 8,7 km/h (2 Bft) W 277 ° 0 min 0,000 mm 2,6 UV-I 301 W/m² 13,4 °C 21,2 °C 14,5 km/h (3 Bft)
15.06.2019 15:18 21,1 °C 63 % 1012,0 hPa 0,0 mm 11,8 km/h (2 Bft) W 272 ° 0 min 0,000 mm 2,5 UV-I 283 W/m² 13,8 °C 21,1 °C 17,7 km/h (3 Bft)
15.06.2019 15:19 21,1 °C 62 % 1012,0 hPa 0,0 mm 4,8 km/h (1 Bft) W-SW 252 ° 0 min 0,000 mm 2,2 UV-I 264 W/m² 13,5 °C 21,1 °C 11,3 km/h (2 Bft)
15.06.2019 15:20 21,1 °C 63 % 1012,0 hPa 0,0 mm 7,1 km/h (2 Bft) W 277 ° 0 min 0,000 mm 2,1 UV-I 244 W/m² 13,8 °C 21,1 °C 12,9 km/h (3 Bft)
15.06.2019 15:21 21,0 °C 62 % 1012,0 hPa 0,0 mm 9,9 km/h (2 Bft) N-NW 330 ° 0 min 0,000 mm 2,0 UV-I 229 W/m² 13,4 °C 21,0 °C 14,5 km/h (3 Bft)
15.06.2019 15:22 20,9 °C 63 % 1012,0 hPa 0,0 mm 6,8 km/h (2 Bft) W 267 ° 0 min 0,000 mm 1,9 UV-I 221 W/m² 13,6 °C 20,9 °C 12,9 km/h (3 Bft)
15.06.2019 15:23 20,9 °C 63 % 1012,0 hPa 0,0 mm 8,0 km/h (2 Bft) W 265 ° 0 min 0,000 mm 1,9 UV-I 216 W/m² 13,6 °C 20,9 °C 11,3 km/h (2 Bft)
15.06.2019 15:24 20,9 °C 63 % 1011,9 hPa 0,0 mm 5,0 km/h (1 Bft) W 279 ° 0 min 0,000 mm 1,8 UV-I 207 W/m² 13,6 °C 20,9 °C 6,4 km/h (2 Bft)
15.06.2019 15:25 20,9 °C 63 % 1012,0 hPa 0,0 mm 3,3 km/h (1 Bft) W 273 ° 0 min 0,000 mm 1,8 UV-I 206 W/m² 13,6 °C 20,9 °C 6,4 km/h (2 Bft)
15.06.2019 15:26 20,8 °C 64 % 1012,0 hPa 0,0 mm 7,6 km/h (2 Bft) W 279 ° 0 min 0,000 mm 1,8 UV-I 209 W/m² 13,7 °C 20,8 °C 9,7 km/h (2 Bft)
15.06.2019 15:27 20,8 °C 64 % 1012,0 hPa 0,0 mm 2,8 km/h (1 Bft) S-SW 205 ° 0 min 0,000 mm 1,8 UV-I 213 W/m² 13,7 °C 20,8 °C 4,8 km/h (1 Bft)
15.06.2019 15:28 20,8 °C 65 % 1012,0 hPa 0,0 mm 1,5 km/h (1 Bft) W-SW 257 ° 0 min 0,000 mm 1,9 UV-I 220 W/m² 14,0 °C 20,8 °C 6,4 km/h (2 Bft)
15.06.2019 15:29 20,7 °C 65 % 1012,0 hPa 0,0 mm 7,2 km/h (2 Bft) W-NW 298 ° 0 min 0,000 mm 1,9 UV-I 229 W/m² 13,9 °C 20,7 °C 9,7 km/h (2 Bft)
15.06.2019 15:30 20,7 °C 65 % 1012,0 hPa 0,0 mm 5,0 km/h (1 Bft) W 277 ° 0 min 0,000 mm 1,8 UV-I 227 W/m² 13,9 °C 20,7 °C 8,0 km/h (2 Bft)
15.06.2019 15:31 20,7 °C 66 % 1012,0 hPa 0,0 mm 8,0 km/h (2 Bft) W-SW 257 ° 0 min 0,000 mm 1,8 UV-I 221 W/m² 14,1 °C 20,7 °C 12,9 km/h (3 Bft)
15.06.2019 15:32 20,7 °C 63 % 1012,1 hPa 0,0 mm 6,3 km/h (2 Bft) W-NW 290 ° 0 min 0,000 mm 1,8 UV-I 218 W/m² 13,4 °C 20,7 °C 9,7 km/h (2 Bft)
15.06.2019 15:33 20,7 °C 64 % 1012,1 hPa 0,0 mm 4,8 km/h (1 Bft) W-NW 289 ° 0 min 0,000 mm 1,8 UV-I 218 W/m² 13,6 °C 20,7 °C 6,4 km/h (2 Bft)
15.06.2019 15:34 20,7 °C 64 % 1012,1 hPa 0,0 mm 5,6 km/h (1 Bft) NW 313 ° 0 min 0,000 mm 1,8 UV-I 220 W/m² 13,6 °C 20,7 °C 8,0 km/h (2 Bft)
15.06.2019 15:35 20,7 °C 64 % 1012,1 hPa 0,0 mm 9,5 km/h (2 Bft) W 277 ° 0 min 0,000 mm 1,7 UV-I 207 W/m² 13,6 °C 20,7 °C 12,9 km/h (3 Bft)
15.06.2019 15:36 20,7 °C 64 % 1012,1 hPa 0,0 mm 9,3 km/h (2 Bft) W 267 ° 0 min 0,000 mm 1,6 UV-I 192 W/m² 13,6 °C 20,7 °C 12,9 km/h (3 Bft)
15.06.2019 15:37 20,7 °C 64 % 1012,1 hPa 0,0 mm 7,2 km/h (2 Bft) W-SW 246 ° 0 min 0,000 mm 1,5 UV-I 178 W/m² 13,6 °C 20,7 °C 16,1 km/h (3 Bft)
15.06.2019 15:38 20,7 °C 64 % 1012,1 hPa 0,0 mm 10,8 km/h (2 Bft) W 281 ° 0 min 0,000 mm 1,5 UV-I 174 W/m² 13,6 °C 20,7 °C 16,1 km/h (3 Bft)
15.06.2019 15:39 20,6 °C 64 % 1012,1 hPa 0,0 mm 7,5 km/h (2 Bft) W-NW 300 ° 0 min 0,000 mm 1,5 UV-I 181 W/m² 13,5 °C 20,6 °C 12,9 km/h (3 Bft)
15.06.2019 15:40 20,6 °C 64 % 1012,1 hPa 0,0 mm 7,2 km/h (2 Bft) W 275 ° 0 min 0,000 mm 1,6 UV-I 195 W/m² 13,5 °C 20,6 °C 12,9 km/h (3 Bft)
15.06.2019 15:41 20,6 °C 66 % 1012,1 hPa 0,0 mm 3,4 km/h (1 Bft) NW 319 ° 0 min 0,000 mm 1,7 UV-I 206 W/m² 14,0 °C 20,6 °C 6,4 km/h (2 Bft)
15.06.2019 15:42 20,6 °C 66 % 1012,1 hPa 0,0 mm 4,2 km/h (1 Bft) NW 323 ° 0 min 0,000 mm 1,8 UV-I 209 W/m² 14,0 °C 20,6 °C 6,4 km/h (2 Bft)
15.06.2019 15:43 20,6 °C 64 % 1012,1 hPa 0,0 mm 2,7 km/h (1 Bft) W-NW 302 ° 0 min 0,000 mm 1,8 UV-I 218 W/m² 13,5 °C 20,6 °C 4,8 km/h (1 Bft)
15.06.2019 15:44 20,6 °C 66 % 1012,1 hPa 0,0 mm 0,9 km/h (0 Bft) W-NW 301 ° 0 min 0,000 mm 2,0 UV-I 236 W/m² 14,0 °C 20,6 °C 3,2 km/h (1 Bft)
15.06.2019 15:45 20,7 °C 67 % 1012,0 hPa 0,0 mm 0,3 km/h (0 Bft) NW 305 ° 0 min 0,000 mm 2,2 UV-I 264 W/m² 14,3 °C 20,7 °C 3,2 km/h (1 Bft)
15.06.2019 15:46 20,7 °C 66 % 1012,1 hPa 0,0 mm 0,8 km/h (0 Bft) NW 305 ° 0 min 0,000 mm 2,3 UV-I 287 W/m² 14,1 °C 20,7 °C 1,6 km/h (1 Bft)
15.06.2019 15:47 20,7 °C 66 % 1012,0 hPa 0,0 mm 2,5 km/h (1 Bft) W 276 ° 0 min 0,000 mm 2,4 UV-I 306 W/m² 14,1 °C 20,7 °C 4,8 km/h (1 Bft)
15.06.2019 15:48 20,8 °C 66 % 1012,0 hPa 0,0 mm 5,9 km/h (2 Bft) W 268 ° 0 min 0,000 mm 2,4 UV-I 309 W/m² 14,2 °C 20,8 °C 11,3 km/h (2 Bft)
15.06.2019 15:49 20,8 °C 66 % 1012,0 hPa 0,0 mm 11,5 km/h (2 Bft) W 265 ° 0 min 0,000 mm 2,4 UV-I 315 W/m² 14,2 °C 20,8 °C 14,5 km/h (3 Bft)
15.06.2019 15:50 20,8 °C 67 % 1012,0 hPa 0,0 mm 8,8 km/h (2 Bft) W-NW 288 ° 0 min 0,000 mm 2,5 UV-I 322 W/m² 14,4 °C 20,8 °C 12,9 km/h (3 Bft)
15.06.2019 15:51 20,8 °C 66 % 1012,0 hPa 0,0 mm 5,3 km/h (1 Bft) W-NW 284 ° 0 min 0,000 mm 2,5 UV-I 330 W/m² 14,2 °C 20,8 °C 9,7 km/h (2 Bft)
15.06.2019 15:52 20,9 °C 67 % 1012,0 hPa 0,0 mm 3,9 km/h (1 Bft) W 261 ° 0 min 0,000 mm 2,6 UV-I 355 W/m² 14,5 °C 20,9 °C 9,7 km/h (2 Bft)
15.06.2019 15:53 20,9 °C 65 % 1012,0 hPa 0,0 mm 7,7 km/h (2 Bft) W-NW 283 ° 0 min 0,000 mm 2,7 UV-I 366 W/m² 14,1 °C 20,9 °C 11,3 km/h (2 Bft)
15.06.2019 15:54 20,9 °C 65 % 1012,1 hPa 0,0 mm 4,5 km/h (1 Bft) W-NW 291 ° 0 min 0,000 mm 2,8 UV-I 374 W/m² 14,1 °C 20,9 °C 9,7 km/h (2 Bft)
15.06.2019 15:55 21,0 °C 64 % 1012,0 hPa 0,0 mm 0,0 km/h (0 Bft) W-NW 291 ° 0 min 0,000 mm 2,8 UV-I 383 W/m² 13,9 °C 21,0 °C 0,0 km/h (0 Bft)
15.06.2019 15:56 21,1 °C 67 % 1012,0 hPa 0,0 mm 3,0 km/h (1 Bft) W-SW 251 ° 0 min 0,000 mm 2,8 UV-I 378 W/m² 14,7 °C 21,1 °C 11,3 km/h (2 Bft)
15.06.2019 15:57 21,1 °C 65 % 1012,0 hPa 0,0 mm 6,0 km/h (2 Bft) W-NW 292 ° 0 min 0,000 mm 2,8 UV-I 381 W/m² 14,3 °C 21,1 °C 9,7 km/h (2 Bft)
15.06.2019 15:58 21,2 °C 67 % 1012,0 hPa 0,0 mm 3,2 km/h (1 Bft) W-NW 287 ° 0 min 0,000 mm 2,9 UV-I 410 W/m² 14,8 °C 21,2 °C 4,8 km/h (1 Bft)
15.06.2019 15:59 21,2 °C 67 % 1012,0 hPa 0,0 mm 3,7 km/h (1 Bft) NW 304 ° 0 min 0,000 mm 3,0 UV-I 378 W/m² 14,8 °C 21,2 °C 8,0 km/h (2 Bft)
15.06.2019 16:00 21,3 °C 64 % 1012,0 hPa 0,0 mm 6,3 km/h (2 Bft) N-NW 331 ° 0 min 0,000 mm 2,7 UV-I 362 W/m² 14,2 °C 21,3 °C 9,7 km/h (2 Bft)
15.06.2019 16:01 21,3 °C 64 % 1012,0 hPa 0,0 mm 4,2 km/h (1 Bft) W 278 ° 0 min 0,204 mm 2,7 UV-I 350 W/m² 14,2 °C 21,3 °C 9,7 km/h (2 Bft)
15.06.2019 16:02 21,3 °C 64 % 1012,0 hPa 0,0 mm 3,7 km/h (1 Bft) S 178 ° 0 min 0,000 mm 2,6 UV-I 341 W/m² 14,2 °C 21,3 °C 6,4 km/h (2 Bft)
15.06.2019 16:03 21,3 °C 64 % 1011,9 hPa 0,0 mm 2,3 km/h (1 Bft) W-SW 255 ° 0 min 0,000 mm 2,6 UV-I 334 W/m² 14,2 °C 21,3 °C 8,0 km/h (2 Bft)
15.06.2019 16:04 21,3 °C 63 % 1011,9 hPa 0,0 mm 4,4 km/h (1 Bft) W 275 ° 0 min 0,000 mm 2,5 UV-I 322 W/m² 14,0 °C 21,3 °C 9,7 km/h (2 Bft)
15.06.2019 16:05 21,2 °C 64 % 1011,9 hPa 0,0 mm 9,2 km/h (2 Bft) W-SW 254 ° 0 min 0,000 mm 2,4 UV-I 313 W/m² 14,1 °C 21,2 °C 12,9 km/h (3 Bft)
15.06.2019 16:06 21,2 °C 66 % 1011,9 hPa 0,0 mm 7,1 km/h (2 Bft) W 270 ° 0 min 0,000 mm 2,4 UV-I 325 W/m² 14,6 °C 21,2 °C 11,3 km/h (2 Bft)
15.06.2019 16:07 21,3 °C 67 % 1011,9 hPa 0,0 mm 11,7 km/h (2 Bft) W 276 ° 0 min 0,000 mm 2,7 UV-I 355 W/m² 14,9 °C 21,3 °C 14,5 km/h (3 Bft)
15.06.2019 16:08 21,3 °C 66 % 1011,9 hPa 0,0 mm 10,7 km/h (2 Bft) W 277 ° 0 min 0,000 mm 2,9 UV-I 383 W/m² 14,7 °C 21,3 °C 14,5 km/h (3 Bft)
15.06.2019 16:09 21,3 °C 65 % 1011,8 hPa 0,0 mm 7,4 km/h (2 Bft) W 265 ° 0 min 0,000 mm 2,9 UV-I 396 W/m² 14,4 °C 21,3 °C 12,9 km/h (3 Bft)
15.06.2019 16:10 21,3 °C 64 % 1011,8 hPa 0,0 mm 7,8 km/h (2 Bft) W 274 ° 0 min 0,000 mm 2,9 UV-I 376 W/m² 14,2 °C 21,3 °C 12,9 km/h (3 Bft)
15.06.2019 16:11 21,3 °C 63 % 1011,8 hPa 0,0 mm 4,2 km/h (1 Bft) W-NW 288 ° 0 min 0,000 mm 2,8 UV-I 367 W/m² 14,0 °C 21,3 °C 6,4 km/h (2 Bft)
15.06.2019 16:12 21,2 °C 62 % 1011,8 hPa 0,0 mm 7,4 km/h (2 Bft) W-NW 301 ° 0 min 0,000 mm 2,7 UV-I 359 W/m² 13,6 °C 21,2 °C 12,9 km/h (3 Bft)
15.06.2019 16:13 21,3 °C 62 % 1011,8 hPa 0,0 mm 6,6 km/h (2 Bft) W 274 ° 0 min 0,000 mm 2,7 UV-I 348 W/m² 13,7 °C 21,3 °C 11,3 km/h (2 Bft)
15.06.2019 16:14 21,3 °C 62 % 1011,9 hPa 0,0 mm 6,6 km/h (2 Bft) W-NW 288 ° 0 min 0,000 mm 2,6 UV-I 338 W/m² 13,7 °C 21,3 °C 11,3 km/h (2 Bft)
15.06.2019 16:15 21,3 °C 62 % 1011,8 hPa 0,0 mm 8,6 km/h (2 Bft) W-NW 288 ° 0 min 0,000 mm 2,6 UV-I 334 W/m² 13,7 °C 21,3 °C 14,5 km/h (3 Bft)
15.06.2019 16:16 21,3 °C 64 % 1011,8 hPa 0,0 mm 7,6 km/h (2 Bft) NW 317 ° 0 min 0,000 mm 2,6 UV-I 350 W/m² 14,2 °C 21,3 °C 11,3 km/h (2 Bft)
15.06.2019 16:17 21,3 °C 65 % 1011,9 hPa 0,0 mm 5,1 km/h (1 Bft) W-NW 295 ° 0 min 0,000 mm 2,7 UV-I 360 W/m² 14,4 °C 21,3 °C 11,3 km/h (2 Bft)
15.06.2019 16:18 21,3 °C 63 % 1011,8 hPa 0,0 mm 9,9 km/h (2 Bft) W 264 ° 0 min 0,000 mm 2,7 UV-I 360 W/m² 14,0 °C 21,3 °C 16,1 km/h (3 Bft)
15.06.2019 16:19 21,3 °C 63 % 1011,8 hPa 0,0 mm 6,6 km/h (2 Bft) W 263 ° 0 min 0,000 mm 2,6 UV-I 352 W/m² 14,0 °C 21,3 °C 11,3 km/h (2 Bft)
15.06.2019 16:20 21,3 °C 62 % 1011,8 hPa 0,0 mm 11,2 km/h (2 Bft) W 259 ° 0 min 0,000 mm 2,5 UV-I 341 W/m² 13,7 °C 21,3 °C 14,5 km/h (3 Bft)
15.06.2019 16:21 21,3 °C 62 % 1011,8 hPa 0,0 mm 8,0 km/h (2 Bft) W 270 ° 0 min 0,000 mm 2,4 UV-I 330 W/m² 13,7 °C 21,3 °C 14,5 km/h (3 Bft)
15.06.2019 16:22 21,2 °C 62 % 1011,8 hPa 0,0 mm 9,3 km/h (2 Bft) W 278 ° 0 min 0,000 mm 2,3 UV-I 316 W/m² 13,6 °C 21,2 °C 14,5 km/h (3 Bft)
15.06.2019 16:23 21,2 °C 62 % 1011,8 hPa 0,0 mm 8,3 km/h (2 Bft) W-NW 284 ° 0 min 0,000 mm 2,2 UV-I 309 W/m² 13,6 °C 21,2 °C 12,9 km/h (3 Bft)
15.06.2019 16:24 21,2 °C 62 % 1011,8 hPa 0,0 mm 8,5 km/h (2 Bft) W 281 ° 0 min 0,000 mm 2,2 UV-I 301 W/m² 13,6 °C 21,2 °C 12,9 km/h (3 Bft)
15.06.2019 16:25 21,2 °C 62 % 1011,8 hPa 0,0 mm 9,2 km/h (2 Bft) W-NW 286 ° 0 min 0,000 mm 2,1 UV-I 287 W/m² 13,6 °C 21,2 °C 16,1 km/h (3 Bft)
15.06.2019 16:26 21,2 °C 63 % 1011,8 hPa 0,0 mm 7,4 km/h (2 Bft) N-NW 344 ° 0 min 0,000 mm 2,0 UV-I 274 W/m² 13,9 °C 21,2 °C 11,3 km/h (2 Bft)
15.06.2019 16:27 21,2 °C 62 % 1011,8 hPa 0,0 mm 6,0 km/h (2 Bft) W-NW 283 ° 0 min 0,000 mm 1,9 UV-I 262 W/m² 13,6 °C 21,2 °C 14,5 km/h (3 Bft)
15.06.2019 16:28 21,1 °C 62 % 1011,8 hPa 0,0 mm 10,9 km/h (2 Bft) W-NW 303 ° 0 min 0,000 mm 1,9 UV-I 246 W/m² 13,5 °C 21,1 °C 14,5 km/h (3 Bft)
15.06.2019 16:29 21,1 °C 63 % 1011,8 hPa 0,0 mm 6,4 km/h (2 Bft) W-NW 289 ° 0 min 0,000 mm 1,8 UV-I 239 W/m² 13,8 °C 21,1 °C 9,7 km/h (2 Bft)
15.06.2019 16:30 21,1 °C 63 % 1011,8 hPa 0,0 mm 6,0 km/h (2 Bft) W-NW 287 ° 0 min 0,000 mm 1,8 UV-I 237 W/m² 13,8 °C 21,1 °C 9,7 km/h (2 Bft)
15.06.2019 16:31 21,1 °C 64 % 1011,8 hPa 0,0 mm 5,2 km/h (1 Bft) W-NW 286 ° 0 min 0,000 mm 1,8 UV-I 237 W/m² 14,0 °C 21,1 °C 8,0 km/h (2 Bft)
15.06.2019 16:32 21,1 °C 64 % 1011,8 hPa 0,0 mm 6,4 km/h (2 Bft) NW 326 ° 0 min 0,000 mm 1,7 UV-I 236 W/m² 14,0 °C 21,1 °C 12,9 km/h (3 Bft)
15.06.2019 16:33 21,1 °C 63 % 1011,8 hPa 0,0 mm 6,5 km/h (2 Bft) W 280 ° 0 min 0,000 mm 1,7 UV-I 232 W/m² 13,8 °C 21,1 °C 11,3 km/h (2 Bft)
15.06.2019 16:34 21,0 °C 62 % 1011,7 hPa 0,0 mm 7,1 km/h (2 Bft) W-NW 302 ° 0 min 0,000 mm 1,7 UV-I 220 W/m² 13,4 °C 21,0 °C 14,5 km/h (3 Bft)
15.06.2019 16:35 21,0 °C 62 % 1011,8 hPa 0,0 mm 8,5 km/h (2 Bft) W 279 ° 0 min 0,000 mm 1,6 UV-I 211 W/m² 13,4 °C 21,0 °C 14,5 km/h (3 Bft)
15.06.2019 16:36 20,9 °C 62 % 1011,7 hPa 0,0 mm 4,8 km/h (1 Bft) W-NW 300 ° 0 min 0,000 mm 1,5 UV-I 202 W/m² 13,3 °C 20,9 °C 9,7 km/h (2 Bft)
15.06.2019 16:37 20,9 °C 62 % 1011,8 hPa 0,0 mm 5,4 km/h (1 Bft) W 265 ° 0 min 0,000 mm 1,4 UV-I 193 W/m² 13,3 °C 20,9 °C 8,0 km/h (2 Bft)
15.06.2019 16:38 20,9 °C 61 % 1011,8 hPa 0,0 mm 4,7 km/h (1 Bft) NW 321 ° 0 min 0,000 mm 1,4 UV-I 186 W/m² 13,1 °C 20,9 °C 11,3 km/h (2 Bft)
15.06.2019 16:39 20,8 °C 62 % 1011,8 hPa 0,0 mm 3,1 km/h (1 Bft) N-NW 337 ° 0 min 0,000 mm 1,4 UV-I 186 W/m² 13,2 °C 20,8 °C 6,4 km/h (2 Bft)
15.06.2019 16:40 20,8 °C 63 % 1011,7 hPa 0,0 mm 6,4 km/h (2 Bft) NW 318 ° 0 min 0,000 mm 1,4 UV-I 190 W/m² 13,5 °C 20,8 °C 11,3 km/h (2 Bft)
15.06.2019 16:41 20,8 °C 63 % 1011,7 hPa 0,0 mm 2,5 km/h (1 Bft) NW 317 ° 0 min 0,000 mm 1,4 UV-I 192 W/m² 13,5 °C 20,8 °C 6,4 km/h (2 Bft)
15.06.2019 16:42 20,8 °C 63 % 1011,7 hPa 0,0 mm 3,9 km/h (1 Bft) W 279 ° 0 min 0,000 mm 1,4 UV-I 190 W/m² 13,5 °C 20,8 °C 6,4 km/h (2 Bft)
15.06.2019 16:43 20,8 °C 67 % 1011,7 hPa 0,0 mm 0,4 km/h (0 Bft) W 279 ° 0 min 0,000 mm 1,4 UV-I 186 W/m² 14,4 °C 20,8 °C 3,2 km/h (1 Bft)
15.06.2019 16:44 20,8 °C 65 % 1011,7 hPa 0,0 mm 3,6 km/h (1 Bft) W-NW 296 ° 0 min 0,000 mm 1,4 UV-I 181 W/m² 14,0 °C 20,8 °C 6,4 km/h (2 Bft)
15.06.2019 16:45 20,8 °C 64 % 1011,7 hPa 0,0 mm 2,2 km/h (1 Bft) W-NW 295 ° 0 min 0,000 mm 1,3 UV-I 160 W/m² 13,7 °C 20,8 °C 4,8 km/h (1 Bft)
15.06.2019 16:46 20,8 °C 65 % 1011,7 hPa 0,0 mm 2,7 km/h (1 Bft) W 270 ° 0 min 0,000 mm 1,3 UV-I 148 W/m² 14,0 °C 20,8 °C 4,8 km/h (1 Bft)
15.06.2019 16:47 20,8 °C 65 % 1011,7 hPa 0,0 mm 2,0 km/h (1 Bft) W 270 ° 0 min 0,000 mm 1,2 UV-I 135 W/m² 14,0 °C 20,8 °C 4,8 km/h (1 Bft)
15.06.2019 16:48 20,8 °C 64 % 1011,7 hPa 0,0 mm 5,6 km/h (1 Bft) W-NW 288 ° 0 min 0,000 mm 1,3 UV-I 135 W/m² 13,7 °C 20,8 °C 9,7 km/h (2 Bft)
15.06.2019 16:49 20,7 °C 66 % 1011,7 hPa 0,0 mm 4,5 km/h (1 Bft) W 263 ° 0 min 0,000 mm 1,3 UV-I 148 W/m² 14,1 °C 20,7 °C 9,7 km/h (2 Bft)
15.06.2019 16:50 20,7 °C 64 % 1011,6 hPa 0,0 mm 3,4 km/h (1 Bft) W-NW 286 ° 0 min 0,000 mm 1,5 UV-I 167 W/m² 13,6 °C 20,7 °C 4,8 km/h (1 Bft)
15.06.2019 16:51 20,7 °C 66 % 1011,6 hPa 0,0 mm 3,8 km/h (1 Bft) W 275 ° 0 min 0,000 mm 1,5 UV-I 171 W/m² 14,1 °C 20,7 °C 4,8 km/h (1 Bft)
15.06.2019 16:52 20,7 °C 66 % 1011,6 hPa 0,0 mm 3,1 km/h (1 Bft) W 275 ° 0 min 0,000 mm 1,3 UV-I 144 W/m² 14,1 °C 20,7 °C 6,4 km/h (2 Bft)
15.06.2019 16:53 20,7 °C 65 % 1011,6 hPa 0,0 mm 2,5 km/h (1 Bft) W 274 ° 0 min 0,000 mm 1,2 UV-I 120 W/m² 13,9 °C 20,7 °C 3,2 km/h (1 Bft)
15.06.2019 16:54 20,7 °C 66 % 1011,7 hPa 0,0 mm 1,7 km/h (1 Bft) W-NW 292 ° 0 min 0,000 mm 1,0 UV-I 100 W/m² 14,1 °C 20,7 °C 3,2 km/h (1 Bft)
15.06.2019 16:55 20,7 °C 65 % 1011,7 hPa 0,0 mm 2,4 km/h (1 Bft) SW 221 ° 0 min 0,000 mm 0,9 UV-I 88 W/m² 13,9 °C 20,7 °C 4,8 km/h (1 Bft)
15.06.2019 16:56 20,6 °C 64 % 1011,7 hPa 0,0 mm 3,1 km/h (1 Bft) W 276 ° 0 min 0,000 mm 0,9 UV-I 84 W/m² 13,5 °C 20,6 °C 9,7 km/h (2 Bft)
15.06.2019 16:57 20,6 °C 64 % 1011,7 hPa 0,0 mm 2,2 km/h (1 Bft) W 273 ° 0 min 0,000 mm 0,8 UV-I 91 W/m² 13,5 °C 20,6 °C 4,8 km/h (1 Bft)
15.06.2019 16:58 20,6 °C 65 % 1011,7 hPa 0,0 mm 4,8 km/h (1 Bft) W 269 ° 0 min 0,000 mm 0,9 UV-I 100 W/m² 13,8 °C 20,6 °C 6,4 km/h (2 Bft)
15.06.2019 16:59 20,5 °C 64 % 1011,6 hPa 0,0 mm 4,2 km/h (1 Bft) W 262 ° 0 min 0,000 mm 1,0 UV-I 111 W/m² 13,5 °C 20,5 °C 6,4 km/h (2 Bft)
15.06.2019 17:00 20,5 °C 64 % 1011,7 hPa 0,0 mm 3,7 km/h (1 Bft) W 262 ° 0 min 0,000 mm 1,0 UV-I 121 W/m² 13,5 °C 20,5 °C 6,4 km/h (2 Bft)
15.06.2019 17:01 20,4 °C 65 % 1011,6 hPa 0,0 mm 2,7 km/h (1 Bft) W-NW 296 ° 0 min 0,177 mm 1,1 UV-I 132 W/m² 13,6 °C 20,4 °C 4,8 km/h (1 Bft)
15.06.2019 17:02 20,4 °C 65 % 1011,6 hPa 0,0 mm 2,4 km/h (1 Bft) W 264 ° 0 min 0,000 mm 1,1 UV-I 141 W/m² 13,6 °C 20,4 °C 6,4 km/h (2 Bft)
15.06.2019 17:03 20,4 °C 66 % 1011,6 hPa 0,0 mm 2,4 km/h (1 Bft) W-NW 290 ° 0 min 0,000 mm 1,2 UV-I 148 W/m² 13,8 °C 20,4 °C 6,4 km/h (2 Bft)
15.06.2019 17:04 20,4 °C 67 % 1011,5 hPa 0,0 mm 1,2 km/h (1 Bft) W-NW 287 ° 0 min 0,000 mm 1,1 UV-I 144 W/m² 14,1 °C 20,4 °C 3,2 km/h (1 Bft)
15.06.2019 17:05 20,4 °C 67 % 1011,6 hPa 0,0 mm 0,6 km/h (0 Bft) W-NW 287 ° 0 min 0,000 mm 1,0 UV-I 135 W/m² 14,1 °C 20,4 °C 1,6 km/h (1 Bft)
15.06.2019 17:06 20,4 °C 66 % 1011,6 hPa 0,0 mm 1,6 km/h (1 Bft) W-NW 292 ° 0 min 0,000 mm 1,0 UV-I 123 W/m² 13,8 °C 20,4 °C 4,8 km/h (1 Bft)
15.06.2019 17:07 20,4 °C 66 % 1011,5 hPa 0,0 mm 2,3 km/h (1 Bft) W-NW 286 ° 0 min 0,000 mm 0,9 UV-I 109 W/m² 13,8 °C 20,4 °C 3,2 km/h (1 Bft)
15.06.2019 17:08 20,5 °C 66 % 1011,6 hPa 0,0 mm 0,9 km/h (0 Bft) W 280 ° 0 min 0,000 mm 0,8 UV-I 95 W/m² 13,9 °C 20,5 °C 4,8 km/h (1 Bft)
15.06.2019 17:09 20,4 °C 66 % 1011,6 hPa 0,0 mm 2,7 km/h (1 Bft) W 280 ° 0 min 0,000 mm 0,7 UV-I 81 W/m² 13,8 °C 20,4 °C 3,2 km/h (1 Bft)
15.06.2019 17:10 20,4 °C 66 % 1011,5 hPa 0,0 mm 2,7 km/h (1 Bft) W 280 ° 0 min 0,000 mm 0,7 UV-I 77 W/m² 13,8 °C 20,4 °C 4,8 km/h (1 Bft)
15.06.2019 17:11 20,4 °C 67 % 1011,5 hPa 0,0 mm 0,1 km/h (0 Bft) W 280 ° 0 min 0,000 mm 0,7 UV-I 76 W/m² 14,1 °C 20,4 °C 1,6 km/h (1 Bft)
15.06.2019 17:12 20,4 °C 67 % 1011,5 hPa 0,0 mm 0,0 km/h (0 Bft) W 280 ° 0 min 0,000 mm 0,6 UV-I 74 W/m² 14,1 °C 20,4 °C 0,0 km/h (0 Bft)
15.06.2019 17:13 20,3 °C 67 % 1011,5 hPa 0,0 mm 0,0 km/h (0 Bft) W 280 ° 0 min 0,000 mm 0,6 UV-I 72 W/m² 14,0 °C 20,3 °C 0,0 km/h (0 Bft)
15.06.2019 17:14 20,3 °C 66 % 1011,5 hPa 0,0 mm 0,0 km/h (0 Bft) W 280 ° 0 min 0,000 mm 0,6 UV-I 72 W/m² 13,7 °C 20,3 °C 0,0 km/h (0 Bft)
15.06.2019 17:15 20,3 °C 66 % 1011,5 hPa 0,0 mm 0,0 km/h (0 Bft) W 280 ° 0 min 0,000 mm 0,6 UV-I 74 W/m² 13,7 °C 20,3 °C 0,0 km/h (0 Bft)
15.06.2019 17:16 20,3 °C 65 % 1011,5 hPa 0,0 mm 0,0 km/h (0 Bft) W 280 ° 0 min 0,000 mm 0,7 UV-I 77 W/m² 13,5 °C 20,3 °C 0,0 km/h (0 Bft)
15.06.2019 17:17 20,3 °C 67 % 1011,5 hPa 0,0 mm 0,1 km/h (0 Bft) W 280 ° 0 min 0,000 mm 0,7 UV-I 83 W/m² 14,0 °C 20,3 °C 1,6 km/h (1 Bft)
15.06.2019 17:18 20,2 °C 68 % 1011,4 hPa 0,0 mm 0,0 km/h (0 Bft) W 280 ° 0 min 0,000 mm 0,8 UV-I 90 W/m² 14,1 °C 20,2 °C 0,0 km/h (0 Bft)
15.06.2019 17:19 20,2 °C 69 % 1011,5 hPa 0,0 mm 0,0 km/h (0 Bft) W 280 ° 0 min 0,000 mm 0,8 UV-I 95 W/m² 14,3 °C 20,2 °C 0,0 km/h (0 Bft)
15.06.2019 17:20 20,2 °C 73 % 1011,5 hPa 0,0 mm 0,0 km/h (0 Bft) W 280 ° 0 min 0,000 mm 0,8 UV-I 100 W/m² 15,2 °C 20,2 °C 0,0 km/h (0 Bft)
15.06.2019 17:21 20,1 °C 69 % 1011,5 hPa 0,0 mm 2,3 km/h (1 Bft) W 279 ° 0 min 0,000 mm 0,8 UV-I 98 W/m² 14,2 °C 20,1 °C 4,8 km/h (1 Bft)
15.06.2019 17:22 20,1 °C 70 % 1011,5 hPa 0,0 mm 0,8 km/h (0 Bft) W 279 ° 0 min 0,000 mm 0,8 UV-I 95 W/m² 14,5 °C 20,1 °C 1,6 km/h (1 Bft)
15.06.2019 17:23 20,1 °C 71 % 1011,5 hPa 0,0 mm 0,0 km/h (0 Bft) W 279 ° 0 min 0,000 mm 0,8 UV-I 91 W/m² 14,7 °C 20,1 °C 0,0 km/h (0 Bft)
15.06.2019 17:24 20,1 °C 69 % 1011,4 hPa 0,0 mm 0,0 km/h (0 Bft) W 279 ° 0 min 0,000 mm 0,7 UV-I 90 W/m² 14,2 °C 20,1 °C 0,0 km/h (0 Bft)
15.06.2019 17:25 20,1 °C 68 % 1011,5 hPa 0,0 mm 0,7 km/h (0 Bft) W 280 ° 0 min 0,000 mm 0,7 UV-I 88 W/m² 14,0 °C 20,1 °C 1,6 km/h (1 Bft)
15.06.2019 17:26 20,1 °C 68 % 1011,4 hPa 0,0 mm 0,9 km/h (0 Bft) W 280 ° 0 min 0,000 mm 0,7 UV-I 88 W/m² 14,0 °C 20,1 °C 1,6 km/h (1 Bft)
15.06.2019 17:27 20,1 °C 67 % 1011,5 hPa 0,0 mm 3,3 km/h (1 Bft) W 259 ° 0 min 0,000 mm 0,8 UV-I 91 W/m² 13,8 °C 20,1 °C 8,0 km/h (2 Bft)
15.06.2019 17:28 20,1 °C 68 % 1011,5 hPa 0,0 mm 3,1 km/h (1 Bft) W-NW 290 ° 0 min 0,000 mm 0,8 UV-I 95 W/m² 14,0 °C 20,1 °C 6,4 km/h (2 Bft)
15.06.2019 17:29 20,1 °C 66 % 1011,4 hPa 0,0 mm 0,6 km/h (0 Bft) W 278 ° 0 min 0,000 mm 0,8 UV-I 98 W/m² 13,5 °C 20,1 °C 4,8 km/h (1 Bft)
15.06.2019 17:30 20,1 °C 66 % 1011,5 hPa 0,0 mm 4,8 km/h (1 Bft) W-SW 254 ° 0 min 0,000 mm 0,8 UV-I 100 W/m² 13,5 °C 20,1 °C 6,4 km/h (2 Bft)
15.06.2019 17:31 20,1 °C 65 % 1011,5 hPa 0,0 mm 2,1 km/h (1 Bft) W-SW 244 ° 0 min 0,000 mm 0,8 UV-I 97 W/m² 13,3 °C 20,1 °C 4,8 km/h (1 Bft)
15.06.2019 17:32 20,2 °C 67 % 1011,5 hPa 0,0 mm 2,0 km/h (1 Bft) W-SW 246 ° 0 min 0,000 mm 0,7 UV-I 86 W/m² 13,9 °C 20,2 °C 4,8 km/h (1 Bft)
15.06.2019 17:33 20,1 °C 66 % 1011,5 hPa 0,0 mm 0,7 km/h (0 Bft) W-SW 246 ° 0 min 0,000 mm 0,7 UV-I 83 W/m² 13,5 °C 20,1 °C 3,2 km/h (1 Bft)
15.06.2019 17:34 20,1 °C 66 % 1011,5 hPa 0,0 mm 0,0 km/h (0 Bft) W-SW 245 ° 0 min 0,000 mm 0,6 UV-I 79 W/m² 13,5 °C 20,1 °C 0,0 km/h (0 Bft)
15.06.2019 17:35 20,1 °C 67 % 1011,6 hPa 0,0 mm 0,0 km/h (0 Bft) W-SW 243 ° 0 min 0,000 mm 0,6 UV-I 77 W/m² 13,8 °C 20,1 °C 0,0 km/h (0 Bft)
15.06.2019 17:36 20,1 °C 66 % 1011,5 hPa 0,0 mm 0,1 km/h (0 Bft) W-SW 243 ° 0 min 0,000 mm 0,6 UV-I 77 W/m² 13,5 °C 20,1 °C 1,6 km/h (1 Bft)
15.06.2019 17:37 20,1 °C 68 % 1011,5 hPa 0,0 mm 0,1 km/h (0 Bft) W-SW 243 ° 0 min 0,000 mm 0,6 UV-I 77 W/m² 14,0 °C 20,1 °C 1,6 km/h (1 Bft)
15.06.2019 17:38 20,1 °C 67 % 1011,5 hPa 0,0 mm 0,0 km/h (0 Bft) W-SW 243 ° 0 min 0,000 mm 0,6 UV-I 77 W/m² 13,8 °C 20,1 °C 0,0 km/h (0 Bft)
15.06.2019 17:39 20,1 °C 70 % 1011,5 hPa 0,0 mm 0,0 km/h (0 Bft) W-SW 243 ° 0 min 0,000 mm 0,6 UV-I 77 W/m² 14,5 °C 20,1 °C 0,0 km/h (0 Bft)
15.06.2019 17:40 20,0 °C 67 % 1011,5 hPa 0,0 mm 0,0 km/h (0 Bft) W-SW 243 ° 0 min 0,000 mm 0,6 UV-I 77 W/m² 13,7 °C 20,0 °C 0,0 km/h (0 Bft)
15.06.2019 17:41 20,0 °C 69 % 1011,5 hPa 0,0 mm 0,1 km/h (0 Bft) W-SW 243 ° 0 min 0,000 mm 0,5 UV-I 76 W/m² 14,1 °C 20,0 °C 1,6 km/h (1 Bft)
15.06.2019 17:42 20,0 °C 67 % 1011,5 hPa 0,0 mm 0,0 km/h (0 Bft) W-SW 243 ° 0 min 0,000 mm 0,5 UV-I 76 W/m² 13,7 °C 20,0 °C 0,0 km/h (0 Bft)
15.06.2019 17:43 20,0 °C 66 % 1011,5 hPa 0,0 mm 0,0 km/h (0 Bft) W-SW 243 ° 0 min 0,000 mm 0,5 UV-I 76 W/m² 13,4 °C 20,0 °C 0,0 km/h (0 Bft)
15.06.2019 17:44 20,0 °C 66 % 1011,5 hPa 0,0 mm 0,0 km/h (0 Bft) W-SW 243 ° 0 min 0,000 mm 0,5 UV-I 77 W/m² 13,4 °C 20,0 °C 0,0 km/h (0 Bft)
15.06.2019 17:45 20,0 °C 66 % 1011,5 hPa 0,0 mm 0,0 km/h (0 Bft) W-SW 243 ° 0 min 0,000 mm 0,6 UV-I 81 W/m² 13,4 °C 20,0 °C 0,0 km/h (0 Bft)
15.06.2019 17:46 20,0 °C 68 % 1011,5 hPa 0,0 mm 0,0 km/h (0 Bft) W-SW 243 ° 0 min 0,000 mm 0,6 UV-I 83 W/m² 13,9 °C 20,0 °C 0,0 km/h (0 Bft)
15.06.2019 17:47 19,9 °C 66 % 1011,4 hPa 0,0 mm 0,0 km/h (0 Bft) W-SW 243 ° 0 min 0,000 mm 0,6 UV-I 86 W/m² 13,4 °C 19,9 °C 0,0 km/h (0 Bft)
15.06.2019 17:48 20,0 °C 65 % 1011,4 hPa 0,0 mm 0,0 km/h (0 Bft) W-SW 243 ° 0 min 0,000 mm 0,6 UV-I 90 W/m² 13,2 °C 20,0 °C 0,0 km/h (0 Bft)
15.06.2019 17:49 20,0 °C 69 % 1011,4 hPa 0,0 mm 0,0 km/h (0 Bft) W-SW 243 ° 0 min 0,000 mm 0,6 UV-I 93 W/m² 14,1 °C 20,0 °C 0,0 km/h (0 Bft)
15.06.2019 17:50 20,0 °C 69 % 1011,4 hPa 0,0 mm 2,3 km/h (1 Bft) W-SW 245 ° 0 min 0,000 mm 0,6 UV-I 98 W/m² 14,1 °C 20,0 °C 4,8 km/h (1 Bft)
15.06.2019 17:51 20,0 °C 69 % 1011,4 hPa 0,0 mm 0,0 km/h (0 Bft) W-SW 245 ° 0 min 0,000 mm 0,7 UV-I 98 W/m² 14,1 °C 20,0 °C 0,0 km/h (0 Bft)
15.06.2019 17:52 20,0 °C 70 % 1011,4 hPa 0,0 mm 0,9 km/h (0 Bft) W-SW 245 ° 0 min 0,000 mm 0,6 UV-I 98 W/m² 14,4 °C 20,0 °C 3,2 km/h (1 Bft)
15.06.2019 17:53 20,0 °C 68 % 1011,4 hPa 0,0 mm 0,3 km/h (0 Bft) W-SW 245 ° 0 min 0,000 mm 0,6 UV-I 97 W/m² 13,9 °C 20,0 °C 3,2 km/h (1 Bft)
15.06.2019 17:54 20,0 °C 71 % 1011,4 hPa 0,0 mm 0,0 km/h (0 Bft) W-SW 245 ° 0 min 0,000 mm 0,6 UV-I 97 W/m² 14,6 °C 20,0 °C 0,0 km/h (0 Bft)
15.06.2019 17:55 20,0 °C 70 % 1011,4 hPa 0,0 mm 0,1 km/h (0 Bft) W-SW 245 ° 0 min 0,000 mm 0,6 UV-I 97 W/m² 14,4 °C 20,0 °C 1,6 km/h (1 Bft)
15.06.2019 17:56 20,0 °C 67 % 1011,3 hPa 0,0 mm 0,0 km/h (0 Bft) W-SW 245 ° 0 min 0,000 mm 0,6 UV-I 98 W/m² 13,7 °C 20,0 °C 0,0 km/h (0 Bft)
15.06.2019 17:57 20,0 °C 67 % 1011,3 hPa 0,0 mm 0,0 km/h (0 Bft) W-SW 245 ° 0 min 0,000 mm 0,6 UV-I 98 W/m² 13,7 °C 20,0 °C 0,0 km/h (0 Bft)
15.06.2019 17:58 20,1 °C 69 % 1011,4 hPa 0,0 mm 0,0 km/h (0 Bft) W-SW 245 ° 0 min 0,000 mm 0,6 UV-I 98 W/m² 14,2 °C 20,1 °C 0,0 km/h (0 Bft)
15.06.2019 17:59 20,1 °C 69 % 1011,4 hPa 0,0 mm 0,0 km/h (0 Bft) W-SW 245 ° 0 min 0,000 mm 0,6 UV-I 98 W/m² 14,2 °C 20,1 °C 0,0 km/h (0 Bft)
15.06.2019 18:00 20,1 °C 73 % 1011,3 hPa 0,0 mm 0,0 km/h (0 Bft) W-SW 245 ° 0 min 0,000 mm 0,6 UV-I 97 W/m² 15,1 °C 20,1 °C 0,0 km/h (0 Bft)
15.06.2019 18:01 20,1 °C 70 % 1011,4 hPa 0,0 mm 0,0 km/h (0 Bft) W-SW 245 ° 0 min 0,051 mm 0,6 UV-I 91 W/m² 14,5 °C 20,1 °C 0,0 km/h (0 Bft)
15.06.2019 18:02 20,1 °C 70 % 1011,4 hPa 0,0 mm 0,0 km/h (0 Bft) W-SW 245 ° 0 min 0,000 mm 0,6 UV-I 90 W/m² 14,5 °C 20,1 °C 0,0 km/h (0 Bft)
15.06.2019 18:03 20,1 °C 69 % 1011,4 hPa 0,0 mm 0,0 km/h (0 Bft) W-SW 245 ° 0 min 0,000 mm 0,5 UV-I 88 W/m² 14,2 °C 20,1 °C 0,0 km/h (0 Bft)
15.06.2019 18:04 20,1 °C 70 % 1011,4 hPa 0,0 mm 0,0 km/h (0 Bft) W-SW 245 ° 0 min 0,000 mm 0,5 UV-I 88 W/m² 14,5 °C 20,1 °C 0,0 km/h (0 Bft)
15.06.2019 18:05 20,1 °C 72 % 1011,4 hPa 0,0 mm 1,3 km/h (1 Bft) W-SW 254 ° 0 min 0,000 mm 0,5 UV-I 90 W/m² 14,9 °C 20,1 °C 4,8 km/h (1 Bft)
15.06.2019 18:06 20,1 °C 69 % 1011,4 hPa 0,0 mm 1,3 km/h (1 Bft) W-SW 253 ° 0 min 0,000 mm 0,6 UV-I 93 W/m² 14,2 °C 20,1 °C 4,8 km/h (1 Bft)
15.06.2019 18:07 20,1 °C 70 % 1011,3 hPa 0,0 mm 0,1 km/h (0 Bft) W-SW 253 ° 0 min 0,000 mm 0,6 UV-I 97 W/m² 14,5 °C 20,1 °C 1,6 km/h (1 Bft)
15.06.2019 18:08 20,0 °C 71 % 1011,4 hPa 0,0 mm 3,1 km/h (1 Bft) W 261 ° 0 min 0,000 mm 0,6 UV-I 104 W/m² 14,6 °C 20,0 °C 4,8 km/h (1 Bft)
15.06.2019 18:09 20,1 °C 69 % 1011,3 hPa 0,0 mm 1,1 km/h (1 Bft) W 261 ° 0 min 0,000 mm 0,7 UV-I 109 W/m² 14,2 °C 20,1 °C 3,2 km/h (1 Bft)
15.06.2019 18:10 20,0 °C 69 % 1011,3 hPa 0,0 mm 0,0 km/h (0 Bft) W 261 ° 0 min 0,000 mm 0,7 UV-I 113 W/m² 14,1 °C 20,0 °C 0,0 km/h (0 Bft)
15.06.2019 18:11 20,1 °C 68 % 1011,3 hPa 0,0 mm 0,0 km/h (0 Bft) W 261 ° 0 min 0,000 mm 0,7 UV-I 114 W/m² 14,0 °C 20,1 °C 0,0 km/h (0 Bft)
15.06.2019 18:12 20,1 °C 67 % 1011,3 hPa 0,0 mm 0,0 km/h (0 Bft) W 261 ° 0 min 0,000 mm 0,7 UV-I 114 W/m² 13,8 °C 20,1 °C 0,0 km/h (0 Bft)
15.06.2019 18:13 20,1 °C 72 % 1011,3 hPa 0,0 mm 0,0 km/h (0 Bft) W 261 ° 0 min 0,000 mm 0,7 UV-I 114 W/m² 14,9 °C 20,1 °C 0,0 km/h (0 Bft)
15.06.2019 18:14 20,1 °C 68 % 1011,2 hPa 0,0 mm 0,0 km/h (0 Bft) W 261 ° 0 min 0,000 mm 0,7 UV-I 116 W/m² 14,0 °C 20,1 °C 0,0 km/h (0 Bft)
15.06.2019 18:15 20,1 °C 69 % 1011,2 hPa 0,0 mm 0,0 km/h (0 Bft) W 261 ° 0 min 0,000 mm 0,7 UV-I 118 W/m² 14,2 °C 20,1 °C 0,0 km/h (0 Bft)
15.06.2019 18:16 20,1 °C 70 % 1011,2 hPa 0,0 mm 0,0 km/h (0 Bft) W 261 ° 0 min 0,000 mm 0,7 UV-I 118 W/m² 14,5 °C 20,1 °C 0,0 km/h (0 Bft)
15.06.2019 18:17 20,1 °C 73 % 1011,2 hPa 0,0 mm 0,0 km/h (0 Bft) W 261 ° 0 min 0,000 mm 0,7 UV-I 116 W/m² 15,1 °C 20,1 °C 0,0 km/h (0 Bft)
15.06.2019 18:18 20,1 °C 68 % 1011,3 hPa 0,0 mm 0,0 km/h (0 Bft) W 261 ° 0 min 0,000 mm 0,7 UV-I 116 W/m² 14,0 °C 20,1 °C 0,0 km/h (0 Bft)
15.06.2019 18:19 20,1 °C 70 % 1011,2 hPa 0,0 mm 0,0 km/h (0 Bft) W 261 ° 0 min 0,000 mm 0,7 UV-I 113 W/m² 14,5 °C 20,1 °C 0,0 km/h (0 Bft)
15.06.2019 18:20 20,1 °C 68 % 1011,2 hPa 0,0 mm 0,0 km/h (0 Bft) W 261 ° 0 min 0,000 mm 0,7 UV-I 113 W/m² 14,0 °C 20,1 °C 0,0 km/h (0 Bft)
15.06.2019 18:21 20,2 °C 69 % 1011,2 hPa 0,0 mm 0,0 km/h (0 Bft) W 261 ° 0 min 0,000 mm 0,7 UV-I 116 W/m² 14,3 °C 20,2 °C 0,0 km/h (0 Bft)
15.06.2019 18:22 20,2 °C 66 % 1011,2 hPa 0,0 mm 0,0 km/h (0 Bft) W 261 ° 0 min 0,000 mm 0,7 UV-I 120 W/m² 13,6 °C 20,2 °C 0,0 km/h (0 Bft)
15.06.2019 18:23 20,2 °C 66 % 1011,2 hPa 0,0 mm 0,0 km/h (0 Bft) W 261 ° 0 min 0,000 mm 0,7 UV-I 123 W/m² 13,6 °C 20,2 °C 0,0 km/h (0 Bft)
15.06.2019 18:24 20,2 °C 65 % 1011,2 hPa 0,0 mm 0,0 km/h (0 Bft) W 261 ° 0 min 0,000 mm 0,7 UV-I 125 W/m² 13,4 °C 20,2 °C 0,0 km/h (0 Bft)
15.06.2019 18:25 20,2 °C 65 % 1011,2 hPa 0,0 mm 0,0 km/h (0 Bft) W 261 ° 0 min 0,000 mm 0,7 UV-I 123 W/m² 13,4 °C 20,2 °C 0,0 km/h (0 Bft)
15.06.2019 18:26 20,3 °C 66 % 1011,2 hPa 0,0 mm 0,0 km/h (0 Bft) W 261 ° 0 min 0,000 mm 0,7 UV-I 121 W/m² 13,7 °C 20,3 °C 0,0 km/h (0 Bft)
15.06.2019 18:27 20,2 °C 68 % 1011,2 hPa 0,0 mm 0,0 km/h (0 Bft) W 261 ° 0 min 0,000 mm 0,7 UV-I 118 W/m² 14,1 °C 20,2 °C 0,0 km/h (0 Bft)
15.06.2019 18:28 20,2 °C 67 % 1011,2 hPa 0,0 mm 0,0 km/h (0 Bft) W 261 ° 0 min 0,000 mm 0,7 UV-I 116 W/m² 13,9 °C 20,2 °C 0,0 km/h (0 Bft)
15.06.2019 18:29 20,1 °C 67 % 1011,2 hPa 0,0 mm 0,0 km/h (0 Bft) W 261 ° 0 min 0,000 mm 0,6 UV-I 114 W/m² 13,8 °C 20,1 °C 0,0 km/h (0 Bft)
15.06.2019 18:30 20,1 °C 66 % 1011,2 hPa 0,0 mm 0,0 km/h (0 Bft) W 261 ° 0 min 0,000 mm 0,6 UV-I 109 W/m² 13,5 °C 20,1 °C 0,0 km/h (0 Bft)
15.06.2019 18:31 20,1 °C 65 % 1011,2 hPa 0,0 mm 0,0 km/h (0 Bft) W 261 ° 0 min 0,000 mm 0,6 UV-I 93 W/m² 13,3 °C 20,1 °C 0,0 km/h (0 Bft)
15.06.2019 18:32 20,1 °C 68 % 1011,1 hPa 0,0 mm 0,0 km/h (0 Bft) W 261 ° 0 min 0,000 mm 0,5 UV-I 86 W/m² 14,0 °C 20,1 °C 0,0 km/h (0 Bft)
15.06.2019 18:33 20,1 °C 68 % 1011,2 hPa 0,0 mm 0,0 km/h (0 Bft) W 261 ° 0 min 0,000 mm 0,5 UV-I 81 W/m² 14,0 °C 20,1 °C 0,0 km/h (0 Bft)
15.06.2019 18:34 20,1 °C 68 % 1011,2 hPa 0,0 mm 0,0 km/h (0 Bft) W 261 ° 0 min 0,000 mm 0,5 UV-I 77 W/m² 14,0 °C 20,1 °C 0,0 km/h (0 Bft)
15.06.2019 18:35 20,1 °C 70 % 1011,2 hPa 0,0 mm 0,0 km/h (0 Bft) W 261 ° 0 min 0,000 mm 0,5 UV-I 76 W/m² 14,5 °C 20,1 °C 0,0 km/h (0 Bft)
15.06.2019 18:36 20,1 °C 71 % 1011,1 hPa 0,0 mm 0,0 km/h (0 Bft) W 261 ° 0 min 0,000 mm 0,5 UV-I 72 W/m² 14,7 °C 20,1 °C 0,0 km/h (0 Bft)
15.06.2019 18:37 20,1 °C 71 % 1011,1 hPa 0,0 mm 0,0 km/h (0 Bft) W 261 ° 0 min 0,000 mm 0,0 UV-I 72 W/m² 14,7 °C 20,1 °C 0,0 km/h (0 Bft)
15.06.2019 18:38 20,0 °C 73 % 1011,2 hPa 0,0 mm 0,0 km/h (0 Bft) W 261 ° 0 min 0,000 mm 0,5 UV-I 76 W/m² 15,0 °C 20,0 °C 0,0 km/h (0 Bft)
15.06.2019 18:39 19,9 °C 70 % 1011,1 hPa 0,0 mm 0,0 km/h (0 Bft) W 261 ° 0 min 0,000 mm 0,5 UV-I 77 W/m² 14,3 °C 19,9 °C 0,0 km/h (0 Bft)
15.06.2019 18:40 19,9 °C 72 % 1011,1 hPa 0,0 mm 0,0 km/h (0 Bft) W 261 ° 0 min 0,000 mm 0,5 UV-I 83 W/m² 14,7 °C 19,9 °C 0,0 km/h (0 Bft)
15.06.2019 18:41 19,8 °C 70 % 1011,1 hPa 0,0 mm 0,0 km/h (0 Bft) W 261 ° 0 min 0,000 mm 0,5 UV-I 86 W/m² 14,2 °C 19,8 °C 0,0 km/h (0 Bft)
15.06.2019 18:42 19,8 °C 71 % 1011,1 hPa 0,0 mm 0,0 km/h (0 Bft) W 261 ° 0 min 0,000 mm 0,5 UV-I 93 W/m² 14,4 °C 19,8 °C 0,0 km/h (0 Bft)
15.06.2019 18:43 19,8 °C 69 % 1011,1 hPa 0,0 mm 0,0 km/h (0 Bft) W 261 ° 0 min 0,000 mm 0,6 UV-I 97 W/m² 13,9 °C 19,8 °C 0,0 km/h (0 Bft)
15.06.2019 18:44 19,8 °C 68 % 1011,1 hPa 0,0 mm 0,0 km/h (0 Bft) W 261 ° 0 min 0,000 mm 0,6 UV-I 97 W/m² 13,7 °C 19,8 °C 0,0 km/h (0 Bft)
15.06.2019 18:45 19,8 °C 71 % 1011,1 hPa 0,0 mm 0,0 km/h (0 Bft) W 261 ° 0 min 0,000 mm 0,5 UV-I 97 W/m² 14,4 °C 19,8 °C 0,0 km/h (0 Bft)
15.06.2019 18:46 19,8 °C 69 % 1011,0 hPa 0,0 mm 0,0 km/h (0 Bft) W 261 ° 0 min 0,000 mm 0,5 UV-I 91 W/m² 13,9 °C 19,8 °C 0,0 km/h (0 Bft)
15.06.2019 18:47 19,8 °C 69 % 1011,1 hPa 0,0 mm 0,0 km/h (0 Bft) W 261 ° 0 min 0,000 mm 0,5 UV-I 86 W/m² 13,9 °C 19,8 °C 0,0 km/h (0 Bft)
15.06.2019 18:48 19,8 °C 69 % 1011,1 hPa 0,0 mm 0,0 km/h (0 Bft) W 261 ° 0 min 0,000 mm 0,5 UV-I 76 W/m² 13,9 °C 19,8 °C 0,0 km/h (0 Bft)
15.06.2019 18:49 19,8 °C 68 % 1011,0 hPa 0,0 mm 0,0 km/h (0 Bft) W 261 ° 0 min 0,000 mm 0,0 UV-I 72 W/m² 13,7 °C 19,8 °C 0,0 km/h (0 Bft)
15.06.2019 18:50 19,8 °C 70 % 1011,0 hPa 0,0 mm 0,0 km/h (0 Bft) W 261 ° 0 min 0,000 mm 0,0 UV-I 72 W/m² 14,2 °C 19,8 °C 0,0 km/h (0 Bft)
15.06.2019 18:51 19,8 °C 71 % 1011,1 hPa 0,0 mm 0,0 km/h (0 Bft) W 261 ° 0 min 0,000 mm 0,0 UV-I 72 W/m² 14,4 °C 19,8 °C 0,0 km/h (0 Bft)
15.06.2019 18:52 19,8 °C 71 % 1011,0 hPa 0,0 mm 0,0 km/h (0 Bft) W 261 ° 0 min 0,000 mm 0,0 UV-I 72 W/m² 14,4 °C 19,8 °C 0,0 km/h (0 Bft)
15.06.2019 18:53 19,8 °C 72 % 1011,1 hPa 0,0 mm 0,0 km/h (0 Bft) W 261 ° 0 min 0,000 mm 0,0 UV-I 72 W/m² 14,6 °C 19,8 °C 0,0 km/h (0 Bft)
15.06.2019 18:54 19,7 °C 70 % 1011,0 hPa 0,0 mm 0,0 km/h (0 Bft) W 261 ° 0 min 0,000 mm 0,0 UV-I 70 W/m² 14,1 °C 19,7 °C 0,0 km/h (0 Bft)
15.06.2019 18:55 19,7 °C 70 % 1011,0 hPa 0,0 mm 0,0 km/h (0 Bft) W 261 ° 0 min 0,000 mm 0,0 UV-I 69 W/m² 14,1 °C 19,7 °C 0,0 km/h (0 Bft)
15.06.2019 18:56 19,7 °C 72 % 1011,0 hPa 0,0 mm 0,0 km/h (0 Bft) W 261 ° 0 min 0,000 mm 0,0 UV-I 67 W/m² 14,5 °C 19,7 °C 0,0 km/h (0 Bft)
15.06.2019 18:57 19,6 °C 72 % 1011,0 hPa 0,0 mm 0,0 km/h (0 Bft) W 261 ° 0 min 0,000 mm 0,0 UV-I 63 W/m² 14,4 °C 19,6 °C 0,0 km/h (0 Bft)
15.06.2019 18:58 19,5 °C 70 % 1011,0 hPa 0,0 mm 0,0 km/h (0 Bft) W 261 ° 0 min 0,000 mm 0,0 UV-I 62 W/m² 13,9 °C 19,5 °C 0,0 km/h (0 Bft)
15.06.2019 18:59 19,5 °C 70 % 1011,0 hPa 0,0 mm 0,0 km/h (0 Bft) W 261 ° 0 min 0,000 mm 0,0 UV-I 62 W/m² 13,9 °C 19,5 °C 0,0 km/h (0 Bft)
15.06.2019 19:00 19,4 °C 69 % 1011,0 hPa 0,0 mm 0,0 km/h (0 Bft) W 261 ° 0 min 0,000 mm 0,0 UV-I 63 W/m² 13,6 °C 19,4 °C 0,0 km/h (0 Bft)
15.06.2019 19:01 19,5 °C 70 % 1011,0 hPa 0,0 mm 0,0 km/h (0 Bft) W 261 ° 0 min 0,051 mm 0,0 UV-I 65 W/m² 13,9 °C 19,5 °C 0,0 km/h (0 Bft)
15.06.2019 19:02 19,4 °C 70 % 1011,0 hPa 0,0 mm 0,0 km/h (0 Bft) W 261 ° 0 min 0,000 mm 0,0 UV-I 63 W/m² 13,8 °C 19,4 °C 0,0 km/h (0 Bft)
15.06.2019 19:03 19,4 °C 71 % 1011,0 hPa 0,0 mm 0,0 km/h (0 Bft) W 261 ° 0 min 0,000 mm 0,0 UV-I 62 W/m² 14,0 °C 19,4 °C 0,0 km/h (0 Bft)
15.06.2019 19:04 19,4 °C 70 % 1011,0 hPa 0,0 mm 0,0 km/h (0 Bft) W 261 ° 0 min 0,000 mm 0,0 UV-I 62 W/m² 13,8 °C 19,4 °C 0,0 km/h (0 Bft)
15.06.2019 19:05 19,4 °C 72 % 1011,0 hPa 0,0 mm 0,0 km/h (0 Bft) W 261 ° 0 min 0,000 mm 0,0 UV-I 60 W/m² 14,2 °C 19,4 °C 0,0 km/h (0 Bft)
15.06.2019 19:06 19,4 °C 73 % 1011,1 hPa 0,0 mm 0,0 km/h (0 Bft) W 261 ° 0 min 0,000 mm 0,0 UV-I 56 W/m² 14,4 °C 19,4 °C 0,0 km/h (0 Bft)
15.06.2019 19:07 19,3 °C 73 % 1011,0 hPa 0,0 mm 0,0 km/h (0 Bft) W 261 ° 0 min 0,000 mm 0,0 UV-I 54 W/m² 14,3 °C 19,3 °C 0,0 km/h (0 Bft)
15.06.2019 19:08 19,3 °C 73 % 1011,1 hPa 0,0 mm 0,0 km/h (0 Bft) W 261 ° 0 min 0,000 mm 0,0 UV-I 53 W/m² 14,3 °C 19,3 °C 0,0 km/h (0 Bft)
15.06.2019 19:09 19,3 °C 74 % 1011,1 hPa 0,0 mm 0,0 km/h (0 Bft) W 261 ° 0 min 0,000 mm 0,0 UV-I 47 W/m² 14,5 °C 19,3 °C 0,0 km/h (0 Bft)
15.06.2019 19:10 19,2 °C 75 % 1011,1 hPa 0,0 mm 0,0 km/h (0 Bft) W 261 ° 0 min 0,000 mm 0,0 UV-I 44 W/m² 14,7 °C 19,2 °C 0,0 km/h (0 Bft)
15.06.2019 19:11 19,2 °C 74 % 1011,2 hPa 0,0 mm 0,0 km/h (0 Bft) W 261 ° 0 min 0,000 mm 0,0 UV-I 42 W/m² 14,4 °C 19,2 °C 0,0 km/h (0 Bft)
15.06.2019 19:12 19,2 °C 72 % 1011,2 hPa 0,0 mm 0,0 km/h (0 Bft) W 261 ° 0 min 0,000 mm 0,0 UV-I 37 W/m² 14,0 °C 19,2 °C 0,0 km/h (0 Bft)
15.06.2019 19:13 19,2 °C 71 % 1011,2 hPa 0,0 mm 0,0 km/h (0 Bft) W 261 ° 0 min 0,000 mm 0,0 UV-I 35 W/m² 13,8 °C 19,2 °C 0,0 km/h (0 Bft)
15.06.2019 19:14 19,2 °C 71 % 1011,2 hPa 0,0 mm 0,0 km/h (0 Bft) W 261 ° 0 min 0,000 mm 0,0 UV-I 35 W/m² 13,8 °C 19,2 °C 0,0 km/h (0 Bft)
15.06.2019 19:15 19,2 °C 72 % 1011,2 hPa 0,0 mm 0,0 km/h (0 Bft) W 261 ° 0 min 0,000 mm 0,0 UV-I 35 W/m² 14,0 °C 19,2 °C 0,0 km/h (0 Bft)
15.06.2019 19:16 19,2 °C 69 % 1011,2 hPa 0,0 mm 0,0 km/h (0 Bft) W 261 ° 0 min 0,000 mm 0,0 UV-I 33 W/m² 13,4 °C 19,2 °C 0,0 km/h (0 Bft)
15.06.2019 19:17 19,3 °C 68 % 1011,2 hPa 0,0 mm 0,0 km/h (0 Bft) W 261 ° 0 min 0,000 mm 0,0 UV-I 33 W/m² 13,2 °C 19,3 °C 0,0 km/h (0 Bft)
15.06.2019 19:18 19,3 °C 71 % 1011,2 hPa 0,0 mm 0,0 km/h (0 Bft) W 261 ° 0 min 0,000 mm 0,0 UV-I 35 W/m² 13,9 °C 19,3 °C 0,0 km/h (0 Bft)
15.06.2019 19:19 19,3 °C 73 % 1011,2 hPa 0,0 mm 0,0 km/h (0 Bft) W 261 ° 0 min 0,000 mm 0,0 UV-I 35 W/m² 14,3 °C 19,3 °C 0,0 km/h (0 Bft)
15.06.2019 19:20 19,2 °C 73 % 1011,2 hPa 0,0 mm 0,0 km/h (0 Bft) W 261 ° 0 min 0,000 mm 0,0 UV-I 35 W/m² 14,2 °C 19,2 °C 0,0 km/h (0 Bft)
15.06.2019 19:21 19,1 °C 72 % 1011,2 hPa 0,0 mm 0,0 km/h (0 Bft) W 261 ° 0 min 0,000 mm 0,0 UV-I 33 W/m² 13,9 °C 19,1 °C 0,0 km/h (0 Bft)
15.06.2019 19:22 18,9 °C 74 % 1011,1 hPa 0,0 mm 0,0 km/h (0 Bft) N-NW 340 ° 0 min 0,000 mm 0,0 UV-I 32 W/m² 14,2 °C 18,9 °C 0,0 km/h (0 Bft)
15.06.2019 19:23 18,8 °C 74 % 1011,1 hPa 0,0 mm 0,0 km/h (0 Bft) N-NW 340 ° 0 min 0,000 mm 0,0 UV-I 32 W/m² 14,1 °C 18,8 °C 0,0 km/h (0 Bft)
15.06.2019 19:24 18,9 °C 72 % 1011,1 hPa 0,0 mm 0,0 km/h (0 Bft) N-NW 340 ° 0 min 0,000 mm 0,0 UV-I 30 W/m² 13,7 °C 18,9 °C 0,0 km/h (0 Bft)
15.06.2019 19:25 18,9 °C 72 % 1011,1 hPa 0,0 mm 0,0 km/h (0 Bft) N-NW 340 ° 0 min 0,000 mm 0,0 UV-I 28 W/m² 13,7 °C 18,9 °C 0,0 km/h (0 Bft)
15.06.2019 19:26 19,1 °C 72 % 1011,1 hPa 0,0 mm 0,0 km/h (0 Bft) N-NW 340 ° 0 min 0,000 mm 0,0 UV-I 26 W/m² 13,9 °C 19,1 °C 0,0 km/h (0 Bft)
15.06.2019 19:27 19,2 °C 70 % 1011,2 hPa 0,0 mm 0,0 km/h (0 Bft) N-NW 340 ° 0 min 0,000 mm 0,0 UV-I 26 W/m² 13,6 °C 19,2 °C 0,0 km/h (0 Bft)
15.06.2019 19:28 19,3 °C 71 % 1011,2 hPa 0,0 mm 2,1 km/h (1 Bft) N 355 ° 0 min 0,000 mm 0,0 UV-I 26 W/m² 13,9 °C 19,3 °C 4,8 km/h (1 Bft)
15.06.2019 19:29 19,4 °C 69 % 1011,1 hPa 0,0 mm 3,8 km/h (1 Bft) N-NO 24 ° 0 min 0,000 mm 0,0 UV-I 25 W/m² 13,6 °C 19,4 °C 4,8 km/h (1 Bft)
15.06.2019 19:30 19,4 °C 69 % 1011,2 hPa 0,0 mm 2,9 km/h (1 Bft) N-NO 28 ° 0 min 0,000 mm 0,0 UV-I 23 W/m² 13,6 °C 19,4 °C 4,8 km/h (1 Bft)
15.06.2019 19:31 19,6 °C 69 % 1011,1 hPa 0,0 mm 1,5 km/h (1 Bft) N-NO 28 ° 0 min 0,000 mm 0,0 UV-I 21 W/m² 13,8 °C 19,6 °C 4,8 km/h (1 Bft)
15.06.2019 19:32 19,7 °C 70 % 1011,2 hPa 0,0 mm 0,2 km/h (0 Bft) N-NO 28 ° 0 min 0,000 mm 0,0 UV-I 21 W/m² 14,1 °C 19,7 °C 1,6 km/h (1 Bft)
15.06.2019 19:33 19,7 °C 70 % 1011,2 hPa 0,0 mm 0,0 km/h (0 Bft) N-NO 28 ° 0 min 0,000 mm 0,0 UV-I 21 W/m² 14,1 °C 19,7 °C 0,0 km/h (0 Bft)
15.06.2019 19:34 19,7 °C 71 % 1011,2 hPa 0,0 mm 0,0 km/h (0 Bft) N-NO 17 ° 0 min 0,000 mm 0,0 UV-I 21 W/m² 14,3 °C 19,7 °C 0,0 km/h (0 Bft)
15.06.2019 19:35 19,7 °C 70 % 1011,1 hPa 0,0 mm 0,1 km/h (0 Bft) N 11 ° 0 min 0,000 mm 0,0 UV-I 19 W/m² 14,1 °C 19,7 °C 1,6 km/h (1 Bft)
15.06.2019 19:36 19,7 °C 71 % 1011,1 hPa 0,0 mm 2,5 km/h (1 Bft) N-NO 25 ° 0 min 0,000 mm 0,0 UV-I 18 W/m² 14,3 °C 19,7 °C 4,8 km/h (1 Bft)
15.06.2019 19:37 19,7 °C 71 % 1011,1 hPa 0,0 mm 1,3 km/h (1 Bft) N-NO 25 ° 0 min 0,000 mm 0,0 UV-I 16 W/m² 14,3 °C 19,7 °C 3,2 km/h (1 Bft)
15.06.2019 19:38 19,7 °C 71 % 1011,1 hPa 0,0 mm 0,3 km/h (0 Bft) N-NO 25 ° 0 min 0,000 mm 0,0 UV-I 16 W/m² 14,3 °C 19,7 °C 3,2 km/h (1 Bft)
15.06.2019 19:39 19,7 °C 72 % 1011,1 hPa 0,0 mm 3,9 km/h (1 Bft) O-NO 61 ° 0 min 0,000 mm 0,0 UV-I 16 W/m² 14,5 °C 19,7 °C 4,8 km/h (1 Bft)
15.06.2019 19:40 19,7 °C 72 % 1011,1 hPa 0,0 mm 1,9 km/h (1 Bft) O-NO 57 ° 0 min 0,000 mm 0,0 UV-I 14 W/m² 14,5 °C 19,7 °C 6,4 km/h (2 Bft)
15.06.2019 19:41 19,7 °C 72 % 1011,1 hPa 0,0 mm 0,7 km/h (0 Bft) O-NO 57 ° 0 min 0,000 mm 0,0 UV-I 12 W/m² 14,5 °C 19,7 °C 1,6 km/h (1 Bft)
15.06.2019 19:42 19,7 °C 72 % 1011,1 hPa 0,0 mm 1,2 km/h (1 Bft) O-NO 60 ° 0 min 0,000 mm 0,0 UV-I 12 W/m² 14,5 °C 19,7 °C 3,2 km/h (1 Bft)
15.06.2019 19:43 19,6 °C 72 % 1011,1 hPa 0,0 mm 3,1 km/h (1 Bft) N 349 ° 0 min 0,000 mm 0,0 UV-I 11 W/m² 14,4 °C 19,6 °C 4,8 km/h (1 Bft)
15.06.2019 19:44 19,7 °C 72 % 1011,1 hPa 0,0 mm 0,0 km/h (0 Bft) N 349 ° 0 min 0,000 mm 0,0 UV-I 11 W/m² 14,5 °C 19,7 °C 0,0 km/h (0 Bft)
15.06.2019 19:45 19,7 °C 72 % 1011,1 hPa 0,0 mm 0,0 km/h (0 Bft) N 349 ° 0 min 0,000 mm 0,0 UV-I 11 W/m² 14,5 °C 19,7 °C 0,0 km/h (0 Bft)
15.06.2019 19:46 19,7 °C 72 % 1011,1 hPa 0,0 mm 0,0 km/h (0 Bft) N 349 ° 0 min 0,000 mm 0,0 UV-I 11 W/m² 14,5 °C 19,7 °C 0,0 km/h (0 Bft)
15.06.2019 19:47 19,7 °C 72 % 1011,1 hPa 0,0 mm 1,2 km/h (1 Bft) O-NO 62 ° 0 min 0,000 mm 0,0 UV-I 12 W/m² 14,5 °C 19,7 °C 4,8 km/h (1 Bft)
15.06.2019 19:48 19,7 °C 72 % 1011,1 hPa 0,0 mm 3,1 km/h (1 Bft) O-NO 62 ° 0 min 0,000 mm 0,0 UV-I 12 W/m² 14,5 °C 19,7 °C 3,2 km/h (1 Bft)
15.06.2019 19:49 19,7 °C 72 % 1011,1 hPa 0,0 mm 1,9 km/h (1 Bft) O-NO 72 ° 0 min 0,000 mm 0,0 UV-I 14 W/m² 14,5 °C 19,7 °C 4,8 km/h (1 Bft)
15.06.2019 19:50 19,6 °C 72 % 1011,1 hPa 0,0 mm 0,2 km/h (0 Bft) O-NO 72 ° 0 min 0,000 mm 0,0 UV-I 14 W/m² 14,4 °C 19,6 °C 1,6 km/h (1 Bft)
15.06.2019 19:51 19,6 °C 73 % 1011,2 hPa 0,0 mm 0,6 km/h (0 Bft) O-NO 72 ° 0 min 0,000 mm 0,0 UV-I 14 W/m² 14,6 °C 19,6 °C 1,6 km/h (1 Bft)
15.06.2019 19:52 19,6 °C 73 % 1011,2 hPa 0,0 mm 1,1 km/h (1 Bft) O-NO 72 ° 0 min 0,000 mm 0,0 UV-I 14 W/m² 14,6 °C 19,6 °C 3,2 km/h (1 Bft)
15.06.2019 19:53 19,5 °C 73 % 1011,1 hPa 0,0 mm 0,0 km/h (0 Bft) O-NO 72 ° 0 min 0,000 mm 0,0 UV-I 14 W/m² 14,5 °C 19,5 °C 0,0 km/h (0 Bft)
15.06.2019 19:54 19,4 °C 73 % 1011,2 hPa 0,0 mm 0,9 km/h (0 Bft) N-NW 340 ° 0 min 0,000 mm 0,0 UV-I 14 W/m² 14,4 °C 19,4 °C 3,2 km/h (1 Bft)
15.06.2019 19:55 19,4 °C 74 % 1011,2 hPa 0,0 mm 3,2 km/h (1 Bft) N 355 ° 0 min 0,000 mm 0,0 UV-I 14 W/m² 14,6 °C 19,4 °C 4,8 km/h (1 Bft)
15.06.2019 19:56 19,4 °C 73 % 1011,2 hPa 0,0 mm 2,3 km/h (1 Bft) N 355 ° 0 min 0,000 mm 0,0 UV-I 14 W/m² 14,4 °C 19,4 °C 4,8 km/h (1 Bft)
15.06.2019 19:57 19,5 °C 73 % 1011,1 hPa 0,0 mm 0,1 km/h (0 Bft) N 355 ° 0 min 0,000 mm 0,0 UV-I 14 W/m² 14,5 °C 19,5 °C 1,6 km/h (1 Bft)
15.06.2019 19:58 19,5 °C 73 % 1011,2 hPa 0,0 mm 0,0 km/h (0 Bft) N 355 ° 0 min 0,000 mm 0,0 UV-I 14 W/m² 14,5 °C 19,5 °C 0,0 km/h (0 Bft)
15.06.2019 19:59 19,5 °C 73 % 1011,1 hPa 0,0 mm 0,0 km/h (0 Bft) N 355 ° 0 min 0,000 mm 0,0 UV-I 14 W/m² 14,5 °C 19,5 °C 0,0 km/h (0 Bft)
15.06.2019 20:00 19,5 °C 73 % 1011,1 hPa 0,0 mm 0,0 km/h (0 Bft) N 355 ° 0 min 0,000 mm 0,0 UV-I 12 W/m² 14,5 °C 19,5 °C 0,0 km/h (0 Bft)
15.06.2019 20:01 19,4 °C 73 % 1011,1 hPa 0,0 mm 0,0 km/h (0 Bft) N 355 ° 0 min 0,025 mm 0,0 UV-I 12 W/m² 14,4 °C 19,4 °C 0,0 km/h (0 Bft)
15.06.2019 20:02 19,4 °C 74 % 1011,1 hPa 0,0 mm 0,0 km/h (0 Bft) N 355 ° 0 min 0,000 mm 0,0 UV-I 12 W/m² 14,6 °C 19,4 °C 0,0 km/h (0 Bft)
15.06.2019 20:03 19,4 °C 73 % 1011,1 hPa 0,0 mm 0,0 km/h (0 Bft) N 355 ° 0 min 0,000 mm 0,0 UV-I 12 W/m² 14,4 °C 19,4 °C 0,0 km/h (0 Bft)
15.06.2019 20:04 19,4 °C 73 % 1011,0 hPa 0,0 mm 0,0 km/h (0 Bft) N 355 ° 0 min 0,000 mm 0,0 UV-I 12 W/m² 14,4 °C 19,4 °C 0,0 km/h (0 Bft)
15.06.2019 20:05 19,4 °C 74 % 1011,1 hPa 0,0 mm 0,0 km/h (0 Bft) N 355 ° 0 min 0,000 mm 0,0 UV-I 14 W/m² 14,6 °C 19,4 °C 0,0 km/h (0 Bft)
15.06.2019 20:06 19,4 °C 75 % 1011,1 hPa 0,0 mm 1,6 km/h (1 Bft) N 355 ° 0 min 0,000 mm 0,0 UV-I 14 W/m² 14,8 °C 19,4 °C 3,2 km/h (1 Bft)
15.06.2019 20:07 19,3 °C 75 % 1011,1 hPa 0,0 mm 2,3 km/h (1 Bft) N 355 ° 0 min 0,000 mm 0,0 UV-I 16 W/m² 14,8 °C 19,3 °C 4,8 km/h (1 Bft)
15.06.2019 20:08 19,3 °C 73 % 1011,0 hPa 0,0 mm 0,1 km/h (0 Bft) N 355 ° 0 min 0,000 mm 0,0 UV-I 16 W/m² 14,3 °C 19,3 °C 1,6 km/h (1 Bft)
15.06.2019 20:09 19,3 °C 73 % 1011,1 hPa 0,0 mm 0,0 km/h (0 Bft) N 355 ° 0 min 0,000 mm 0,0 UV-I 16 W/m² 14,3 °C 19,3 °C 0,0 km/h (0 Bft)
15.06.2019 20:10 19,3 °C 74 % 1011,0 hPa 0,0 mm 0,1 km/h (0 Bft) N 355 ° 0 min 0,000 mm 0,0 UV-I 14 W/m² 14,5 °C 19,3 °C 1,6 km/h (1 Bft)
15.06.2019 20:11 19,3 °C 74 % 1011,1 hPa 0,0 mm 0,0 km/h (0 Bft) N 355 ° 0 min 0,000 mm 0,0 UV-I 14 W/m² 14,5 °C 19,3 °C 0,0 km/h (0 Bft)
15.06.2019 20:12 19,3 °C 75 % 1011,1 hPa 0,0 mm 0,1 km/h (0 Bft) N-NO 15 ° 0 min 0,000 mm 0,0 UV-I 14 W/m² 14,8 °C 19,3 °C 1,6 km/h (1 Bft)
15.06.2019 20:13 19,3 °C 75 % 1011,0 hPa 0,0 mm 0,2 km/h (0 Bft) N-NO 15 ° 0 min 0,000 mm 0,0 UV-I 12 W/m² 14,8 °C 19,3 °C 1,6 km/h (1 Bft)
15.06.2019 20:14 19,3 °C 74 % 1011,1 hPa 0,0 mm 0,0 km/h (0 Bft) N-NO 15 ° 0 min 0,000 mm 0,0 UV-I 12 W/m² 14,5 °C 19,3 °C 0,0 km/h (0 Bft)
15.06.2019 20:15 19,3 °C 74 % 1011,1 hPa 0,0 mm 0,0 km/h (0 Bft) N-NO 15 ° 0 min 0,000 mm 0,0 UV-I 12 W/m² 14,5 °C 19,3 °C 0,0 km/h (0 Bft)
15.06.2019 20:16 19,3 °C 74 % 1011,0 hPa 0,0 mm 0,0 km/h (0 Bft) N-NO 15 ° 0 min 0,000 mm 0,0 UV-I 14 W/m² 14,5 °C 19,3 °C 0,0 km/h (0 Bft)
15.06.2019 20:17 19,3 °C 74 % 1011,0 hPa 0,0 mm 0,0 km/h (0 Bft) N-NO 15 ° 0 min 0,000 mm 0,0 UV-I 14 W/m² 14,5 °C 19,3 °C 0,0 km/h (0 Bft)
15.06.2019 20:18 19,2 °C 75 % 1011,0 hPa 0,0 mm 0,0 km/h (0 Bft) N-NO 15 ° 0 min 0,000 mm 0,0 UV-I 14 W/m² 14,7 °C 19,2 °C 0,0 km/h (0 Bft)
15.06.2019 20:19 19,2 °C 74 % 1011,0 hPa 0,0 mm 0,0 km/h (0 Bft) N-NO 15 ° 0 min 0,000 mm 0,0 UV-I 16 W/m² 14,4 °C 19,2 °C 0,0 km/h (0 Bft)
15.06.2019 20:20 19,2 °C 74 % 1011,0 hPa 0,0 mm 0,0 km/h (0 Bft) N-NO 15 ° 0 min 0,000 mm 0,0 UV-I 16 W/m² 14,4 °C 19,2 °C 0,0 km/h (0 Bft)
15.06.2019 20:21 19,2 °C 74 % 1011,0 hPa 0,0 mm 0,0 km/h (0 Bft) N-NO 15 ° 0 min 0,000 mm 0,0 UV-I 16 W/m² 14,4 °C 19,2 °C 0,0 km/h (0 Bft)
15.06.2019 20:22 19,2 °C 74 % 1011,0 hPa 0,0 mm 0,0 km/h (0 Bft) N-NO 15 ° 0 min 0,000 mm 0,0 UV-I 16 W/m² 14,4 °C 19,2 °C 0,0 km/h (0 Bft)
15.06.2019 20:23 19,2 °C 74 % 1011,0 hPa 0,0 mm 0,0 km/h (0 Bft) N-NO 15 ° 0 min 0,000 mm 0,0 UV-I 16 W/m² 14,4 °C 19,2 °C 0,0 km/h (0 Bft)
15.06.2019 20:24 19,2 °C 77 % 1011,0 hPa 0,0 mm 0,0 km/h (0 Bft) N-NO 15 ° 0 min 0,000 mm 0,0 UV-I 16 W/m² 15,1 °C 19,2 °C 0,0 km/h (0 Bft)
15.06.2019 20:25 19,0 °C 77 % 1011,0 hPa 0,0 mm 0,0 km/h (0 Bft) N-NO 15 ° 0 min 0,000 mm 0,0 UV-I 16 W/m² 14,9 °C 19,0 °C 0,0 km/h (0 Bft)
15.06.2019 20:26 18,9 °C 76 % 1011,0 hPa 0,0 mm 0,0 km/h (0 Bft) N-NO 15 ° 0 min 0,000 mm 0,0 UV-I 16 W/m² 14,6 °C 18,9 °C 0,0 km/h (0 Bft)
15.06.2019 20:27 18,8 °C 76 % 1011,0 hPa 0,0 mm 0,0 km/h (0 Bft) N-NO 15 ° 0 min 0,000 mm 0,0 UV-I 14 W/m² 14,5 °C 18,8 °C 0,0 km/h (0 Bft)
15.06.2019 20:28 18,8 °C 76 % 1010,9 hPa 0,0 mm 0,0 km/h (0 Bft) N-NO 15 ° 0 min 0,000 mm 0,0 UV-I 14 W/m² 14,5 °C 18,8 °C 0,0 km/h (0 Bft)
15.06.2019 20:29 18,8 °C 76 % 1010,9 hPa 0,0 mm 0,0 km/h (0 Bft) N-NO 15 ° 0 min 0,000 mm 0,0 UV-I 12 W/m² 14,5 °C 18,8 °C 0,0 km/h (0 Bft)
15.06.2019 20:30 18,8 °C 76 % 1010,9 hPa 0,0 mm 0,0 km/h (0 Bft) N-NO 15 ° 0 min 0,000 mm 0,0 UV-I 12 W/m² 14,5 °C 18,8 °C 0,0 km/h (0 Bft)
15.06.2019 20:31 18,8 °C 76 % 1010,9 hPa 0,0 mm 0,0 km/h (0 Bft) N-NO 15 ° 0 min 0,000 mm 0,0 UV-I 11 W/m² 14,5 °C 18,8 °C 0,0 km/h (0 Bft)
15.06.2019 20:32 18,9 °C 75 % 1010,9 hPa 0,0 mm 0,0 km/h (0 Bft) N-NO 15 ° 0 min 0,000 mm 0,0 UV-I 9 W/m² 14,4 °C 18,9 °C 0,0 km/h (0 Bft)
15.06.2019 20:33 18,9 °C 75 % 1010,9 hPa 0,0 mm 0,0 km/h (0 Bft) N-NO 15 ° 0 min 0,000 mm 0,0 UV-I 9 W/m² 14,4 °C 18,9 °C 0,0 km/h (0 Bft)
15.06.2019 20:34 18,9 °C 76 % 1010,9 hPa 0,0 mm 0,0 km/h (0 Bft) N-NO 15 ° 0 min 0,000 mm 0,0 UV-I 7 W/m² 14,6 °C 18,9 °C 0,0 km/h (0 Bft)
15.06.2019 20:35 18,9 °C 75 % 1011,0 hPa 0,0 mm 0,0 km/h (0 Bft) N-NO 15 ° 0 min 0,000 mm 0,0 UV-I 5 W/m² 14,4 °C 18,9 °C 0,0 km/h (0 Bft)
15.06.2019 20:36 18,9 °C 76 % 1010,9 hPa 0,0 mm 0,0 km/h (0 Bft) N-NO 15 ° 0 min 0,000 mm 0,0 UV-I 5 W/m² 14,6 °C 18,9 °C 0,0 km/h (0 Bft)
15.06.2019 20:37 18,9 °C 76 % 1011,0 hPa 0,0 mm 0,0 km/h (0 Bft) N-NO 15 ° 0 min 0,000 mm 0,0 UV-I 5 W/m² 14,6 °C 18,9 °C 0,0 km/h (0 Bft)
15.06.2019 20:38 18,8 °C 76 % 1011,0 hPa 0,0 mm 0,0 km/h (0 Bft) N-NO 15 ° 0 min 0,000 mm 0,0 UV-I 0 W/m² 14,5 °C 18,8 °C 0,0 km/h (0 Bft)
15.06.2019 20:39 18,8 °C 77 % 1011,0 hPa 0,0 mm 0,0 km/h (0 Bft) N-NO 15 ° 0 min 0,000 mm 0,0 UV-I 0 W/m² 14,7 °C 18,8 °C 0,0 km/h (0 Bft)
15.06.2019 20:40 18,8 °C 78 % 1011,0 hPa 0,0 mm 0,0 km/h (0 Bft) N-NO 15 ° 0 min 0,000 mm 0,0 UV-I 0 W/m² 14,9 °C 18,8 °C 0,0 km/h (0 Bft)
15.06.2019 20:41 18,7 °C 79 % 1011,0 hPa 0,0 mm 0,0 km/h (0 Bft) N-NO 15 ° 0 min 0,000 mm 0,0 UV-I 0 W/m² 15,0 °C 18,7 °C 0,0 km/h (0 Bft)
15.06.2019 20:42 18,7 °C 79 % 1011,0 hPa 0,0 mm 0,0 km/h (0 Bft) N-NO 15 ° 0 min 0,000 mm 0,0 UV-I 0 W/m² 15,0 °C 18,7 °C 0,0 km/h (0 Bft)
15.06.2019 20:43 18,7 °C 80 % 1010,9 hPa 0,0 mm 0,0 km/h (0 Bft) N-NO 15 ° 0 min 0,000 mm 0,0 UV-I 0 W/m² 15,2 °C 18,7 °C 0,0 km/h (0 Bft)
15.06.2019 20:44 18,6 °C 80 % 1011,0 hPa 0,0 mm 0,0 km/h (0 Bft) N-NO 15 ° 0 min 0,000 mm 0,0 UV-I 0 W/m² 15,1 °C 18,6 °C 0,0 km/h (0 Bft)
15.06.2019 20:45 18,6 °C 80 % 1011,0 hPa 0,0 mm 0,0 km/h (0 Bft) N-NO 15 ° 0 min 0,000 mm 0,0 UV-I 0 W/m² 15,1 °C 18,6 °C 0,0 km/h (0 Bft)
15.06.2019 20:46 18,5 °C 79 % 1011,0 hPa 0,0 mm 0,0 km/h (0 Bft) N-NO 15 ° 0 min 0,000 mm 0,0 UV-I 0 W/m² 14,8 °C 18,5 °C 0,0 km/h (0 Bft)
15.06.2019 20:47 18,5 °C 79 % 1010,9 hPa 0,0 mm 0,0 km/h (0 Bft) N-NO 15 ° 0 min 0,000 mm 0,0 UV-I 0 W/m² 14,8 °C 18,5 °C 0,0 km/h (0 Bft)
15.06.2019 20:48 18,5 °C 78 % 1010,9 hPa 0,0 mm 0,0 km/h (0 Bft) N-NO 15 ° 0 min 0,000 mm 0,0 UV-I 0 W/m² 14,6 °C 18,5 °C 0,0 km/h (0 Bft)
15.06.2019 20:49 18,5 °C 79 % 1010,8 hPa 0,0 mm 0,0 km/h (0 Bft) N-NO 15 ° 0 min 0,000 mm 0,0 UV-I 0 W/m² 14,8 °C 18,5 °C 0,0 km/h (0 Bft)
15.06.2019 20:50 18,4 °C 80 % 1010,8 hPa 0,0 mm 0,0 km/h (0 Bft) N-NO 15 ° 0 min 0,000 mm 0,0 UV-I 0 W/m² 14,9 °C 18,4 °C 0,0 km/h (0 Bft)
15.06.2019 20:51 18,4 °C 81 % 1010,8 hPa 0,0 mm 0,0 km/h (0 Bft) N-NO 15 ° 0 min 0,000 mm 0,0 UV-I 0 W/m² 15,1 °C 18,4 °C 0,0 km/h (0 Bft)
15.06.2019 20:52 18,3 °C 81 % 1010,8 hPa 0,0 mm 0,0 km/h (0 Bft) N-NO 15 ° 0 min 0,000 mm 0,0 UV-I 0 W/m² 15,0 °C 18,3 °C 0,0 km/h (0 Bft)
15.06.2019 20:53 18,2 °C 81 % 1010,8 hPa 0,0 mm 0,0 km/h (0 Bft) N-NO 15 ° 0 min 0,000 mm 0,0 UV-I 0 W/m² 14,9 °C 18,2 °C 0,0 km/h (0 Bft)
15.06.2019 20:54 18,2 °C 81 % 1010,8 hPa 0,0 mm 0,0 km/h (0 Bft) N-NO 15 ° 0 min 0,000 mm 0,0 UV-I 0 W/m² 14,9 °C 18,2 °C 0,0 km/h (0 Bft)
15.06.2019 20:55 18,2 °C 81 % 1010,8 hPa 0,0 mm 0,0 km/h (0 Bft) N-NO 15 ° 0 min 0,000 mm 0,0 UV-I 0 W/m² 14,9 °C 18,2 °C 0,0 km/h (0 Bft)
15.06.2019 20:56 18,2 °C 81 % 1010,9 hPa 0,0 mm 0,0 km/h (0 Bft) N-NO 15 ° 0 min 0,000 mm 0,0 UV-I 0 W/m² 14,9 °C 18,2 °C 0,0 km/h (0 Bft)
15.06.2019 20:57 18,2 °C 80 % 1010,9 hPa 0,0 mm 0,0 km/h (0 Bft) N-NO 15 ° 0 min 0,000 mm 0,0 UV-I 0 W/m² 14,7 °C 18,2 °C 0,0 km/h (0 Bft)
15.06.2019 20:58 18,2 °C 80 % 1010,9 hPa 0,0 mm 0,0 km/h (0 Bft) N-NO 15 ° 0 min 0,000 mm 0,0 UV-I 0 W/m² 14,7 °C 18,2 °C 0,0 km/h (0 Bft)
15.06.2019 20:59 18,2 °C 80 % 1010,9 hPa 0,0 mm 0,0 km/h (0 Bft) N-NO 15 ° 0 min 0,000 mm 0,0 UV-I 0 W/m² 14,7 °C 18,2 °C 0,0 km/h (0 Bft)
15.06.2019 21:00 18,2 °C 81 % 1010,9 hPa 0,0 mm 0,0 km/h (0 Bft) N-NO 15 ° 0 min 0,000 mm 0,0 UV-I 0 W/m² 14,9 °C 18,2 °C 0,0 km/h (0 Bft)
15.06.2019 21:01 18,2 °C 81 % 1010,9 hPa 0,0 mm 0,0 km/h (0 Bft) N-NO 15 ° 0 min 0,000 mm 0,0 UV-I 0 W/m² 14,9 °C 18,2 °C 0,0 km/h (0 Bft)
15.06.2019 21:02 18,2 °C 82 % 1010,9 hPa 0,0 mm 0,0 km/h (0 Bft) N-NO 15 ° 0 min 0,000 mm 0,0 UV-I 0 W/m² 15,1 °C 18,2 °C 0,0 km/h (0 Bft)
15.06.2019 21:03 18,2 °C 81 % 1010,9 hPa 0,0 mm 0,0 km/h (0 Bft) N-NO 15 ° 0 min 0,000 mm 0,0 UV-I 0 W/m² 14,9 °C 18,2 °C 0,0 km/h (0 Bft)
15.06.2019 21:04 18,1 °C 81 % 1010,9 hPa 0,0 mm 0,0 km/h (0 Bft) N-NO 15 ° 0 min 0,000 mm 0,0 UV-I 0 W/m² 14,8 °C 18,1 °C 0,0 km/h (0 Bft)
15.06.2019 21:05 18,1 °C 81 % 1010,9 hPa 0,0 mm 0,0 km/h (0 Bft) N-NO 15 ° 0 min 0,000 mm 0,0 UV-I 0 W/m² 14,8 °C 18,1 °C 0,0 km/h (0 Bft)
15.06.2019 21:06 18,2 °C 81 % 1010,9 hPa 0,0 mm 0,0 km/h (0 Bft) N-NO 15 ° 0 min 0,000 mm 0,0 UV-I 0 W/m² 14,9 °C 18,2 °C 0,0 km/h (0 Bft)
15.06.2019 21:07 18,2 °C 81 % 1010,9 hPa 0,0 mm 0,0 km/h (0 Bft) N-NO 15 ° 0 min 0,000 mm 0,0 UV-I 0 W/m² 14,9 °C 18,2 °C 0,0 km/h (0 Bft)
15.06.2019 21:08 18,2 °C 81 % 1010,8 hPa 0,0 mm 0,0 km/h (0 Bft) N-NO 15 ° 0 min 0,000 mm 0,0 UV-I 0 W/m² 14,9 °C 18,2 °C 0,0 km/h (0 Bft)
15.06.2019 21:09 18,2 °C 81 % 1010,8 hPa 0,0 mm 0,0 km/h (0 Bft) N-NO 15 ° 0 min 0,000 mm 0,0 UV-I 0 W/m² 14,9 °C 18,2 °C 0,0 km/h (0 Bft)
15.06.2019 21:10 18,2 °C 81 % 1010,8 hPa 0,0 mm 0,0 km/h (0 Bft) N-NO 15 ° 0 min 0,000 mm 0,0 UV-I 0 W/m² 14,9 °C 18,2 °C 0,0 km/h (0 Bft)
15.06.2019 21:11 18,2 °C 80 % 1010,8 hPa 0,0 mm 0,0 km/h (0 Bft) N-NO 15 ° 0 min 0,000 mm 0,0 UV-I 0 W/m² 14,7 °C 18,2 °C 0,0 km/h (0 Bft)
15.06.2019 21:12 18,2 °C 81 % 1010,8 hPa 0,0 mm 0,0 km/h (0 Bft) N-NO 15 ° 0 min 0,000 mm 0,0 UV-I 0 W/m² 14,9 °C 18,2 °C 0,0 km/h (0 Bft)
15.06.2019 21:13 18,2 °C 81 % 1010,8 hPa 0,0 mm 0,0 km/h (0 Bft) N-NO 15 ° 0 min 0,000 mm 0,0 UV-I 0 W/m² 14,9 °C 18,2 °C 0,0 km/h (0 Bft)
15.06.2019 21:14 18,1 °C 81 % 1010,8 hPa 0,0 mm 0,0 km/h (0 Bft) N-NO 15 ° 0 min 0,000 mm 0,0 UV-I 0 W/m² 14,8 °C 18,1 °C 0,0 km/h (0 Bft)
15.06.2019 21:15 18,1 °C 82 % 1010,8 hPa 0,0 mm 0,0 km/h (0 Bft) N-NO 15 ° 0 min 0,000 mm 0,0 UV-I 0 W/m² 15,0 °C 18,1 °C 0,0 km/h (0 Bft)
15.06.2019 21:16 18,1 °C 81 % 1010,8 hPa 0,0 mm 0,0 km/h (0 Bft) N-NO 15 ° 0 min 0,000 mm 0,0 UV-I 0 W/m² 14,8 °C 18,1 °C 0,0 km/h (0 Bft)
15.06.2019 21:17 18,1 °C 81 % 1010,8 hPa 0,0 mm 0,0 km/h (0 Bft) N-NO 15 ° 0 min 0,000 mm 0,0 UV-I 0 W/m² 14,8 °C 18,1 °C 0,0 km/h (0 Bft)
15.06.2019 21:18 18,1 °C 79 % 1010,8 hPa 0,0 mm 0,0 km/h (0 Bft) N-NO 15 ° 0 min 0,000 mm 0,0 UV-I 0 W/m² 14,4 °C 18,1 °C 0,0 km/h (0 Bft)
15.06.2019 21:19 18,1 °C 80 % 1010,8 hPa 0,0 mm 0,0 km/h (0 Bft) N-NO 15 ° 0 min 0,000 mm 0,0 UV-I 0 W/m² 14,6 °C 18,1 °C 0,0 km/h (0 Bft)
15.06.2019 21:20 18,2 °C 81 % 1010,8 hPa 0,0 mm 0,0 km/h (0 Bft) N-NO 15 ° 0 min 0,000 mm 0,0 UV-I 0 W/m² 14,9 °C 18,2 °C 0,0 km/h (0 Bft)
15.06.2019 21:21 18,2 °C 80 % 1010,8 hPa 0,0 mm 0,0 km/h (0 Bft) N-NO 15 ° 0 min 0,000 mm 0,0 UV-I 0 W/m² 14,7 °C 18,2 °C 0,0 km/h (0 Bft)
15.06.2019 21:22 18,2 °C 80 % 1010,9 hPa 0,0 mm 0,0 km/h (0 Bft) N-NO 15 ° 0 min 0,000 mm 0,0 UV-I 0 W/m² 14,7 °C 18,2 °C 0,0 km/h (0 Bft)
15.06.2019 21:23 18,3 °C 79 % 1010,9 hPa 0,0 mm 0,0 km/h (0 Bft) N-NO 15 ° 0 min 0,000 mm 0,0 UV-I 0 W/m² 14,6 °C 18,3 °C 0,0 km/h (0 Bft)
15.06.2019 21:24 18,2 °C 81 % 1010,9 hPa 0,0 mm 0,0 km/h (0 Bft) N-NO 15 ° 0 min 0,000 mm 0,0 UV-I 0 W/m² 14,9 °C 18,2 °C 0,0 km/h (0 Bft)
15.06.2019 21:25 18,2 °C 81 % 1010,9 hPa 0,0 mm 0,0 km/h (0 Bft) N-NO 15 ° 0 min 0,000 mm 0,0 UV-I 0 W/m² 14,9 °C 18,2 °C 0,0 km/h (0 Bft)
15.06.2019 21:26 18,2 °C 81 % 1011,0 hPa 0,0 mm 0,0 km/h (0 Bft) N-NO 15 ° 0 min 0,000 mm 0,0 UV-I 0 W/m² 14,9 °C 18,2 °C 0,0 km/h (0 Bft)
15.06.2019 21:27 18,2 °C 81 % 1011,0 hPa 0,0 mm 0,0 km/h (0 Bft) N-NO 15 ° 0 min 0,000 mm 0,0 UV-I 0 W/m² 14,9 °C 18,2 °C 0,0 km/h (0 Bft)
15.06.2019 21:28 18,2 °C 81 % 1011,1 hPa 0,0 mm 0,0 km/h (0 Bft) N-NO 15 ° 0 min 0,000 mm 0,0 UV-I 0 W/m² 14,9 °C 18,2 °C 0,0 km/h (0 Bft)
15.06.2019 21:29 18,1 °C 81 % 1011,1 hPa 0,0 mm 0,0 km/h (0 Bft) N-NO 15 ° 0 min 0,000 mm 0,0 UV-I 0 W/m² 14,8 °C 18,1 °C 0,0 km/h (0 Bft)
15.06.2019 21:30 18,1 °C 82 % 1011,1 hPa 0,0 mm 0,0 km/h (0 Bft) N-NO 15 ° 0 min 0,000 mm 0,0 UV-I 0 W/m² 15,0 °C 18,1 °C 0,0 km/h (0 Bft)
15.06.2019 21:31 18,1 °C 82 % 1011,2 hPa 0,0 mm 0,0 km/h (0 Bft) N-NO 15 ° 0 min 0,000 mm 0,0 UV-I 0 W/m² 15,0 °C 18,1 °C 0,0 km/h (0 Bft)
15.06.2019 21:32 18,1 °C 81 % 1011,2 hPa 0,0 mm 0,1 km/h (0 Bft) N-NO 15 ° 0 min 0,000 mm 0,0 UV-I 0 W/m² 14,8 °C 18,1 °C 1,6 km/h (1 Bft)
15.06.2019 21:33 18,1 °C 81 % 1011,2 hPa 0,0 mm 0,0 km/h (0 Bft) N-NO 15 ° 0 min 0,000 mm 0,0 UV-I 0 W/m² 14,8 °C 18,1 °C 0,0 km/h (0 Bft)
15.06.2019 21:34 18,1 °C 82 % 1011,2 hPa 0,0 mm 0,0 km/h (0 Bft) N-NO 15 ° 0 min 0,000 mm 0,0 UV-I 0 W/m² 15,0 °C 18,1 °C 0,0 km/h (0 Bft)
15.06.2019 21:35 18,1 °C 82 % 1011,2 hPa 0,0 mm 0,0 km/h (0 Bft) N-NO 15 ° 0 min 0,000 mm 0,0 UV-I 0 W/m² 15,0 °C 18,1 °C 0,0 km/h (0 Bft)
15.06.2019 21:36 18,1 °C 83 % 1011,2 hPa 0,0 mm 0,0 km/h (0 Bft) N-NO 15 ° 0 min 0,000 mm 0,0 UV-I 0 W/m² 15,2 °C 18,1 °C 0,0 km/h (0 Bft)
15.06.2019 21:37 17,9 °C 83 % 1011,2 hPa 0,0 mm 0,0 km/h (0 Bft) N-NO 15 ° 0 min 0,000 mm 0,0 UV-I 0 W/m² 15,0 °C 17,9 °C 0,0 km/h (0 Bft)
15.06.2019 21:38 18,0 °C 82 % 1011,3 hPa 0,0 mm 0,0 km/h (0 Bft) N-NO 15 ° 0 min 0,000 mm 0,0 UV-I 0 W/m² 14,9 °C 18,0 °C 0,0 km/h (0 Bft)
15.06.2019 21:39 17,9 °C 82 % 1011,3 hPa 0,0 mm 0,0 km/h (0 Bft) N-NO 15 ° 0 min 0,000 mm 0,0 UV-I 0 W/m² 14,8 °C 17,9 °C 0,0 km/h (0 Bft)
15.06.2019 21:40 17,9 °C 82 % 1011,3 hPa 0,0 mm 0,0 km/h (0 Bft) N-NO 15 ° 0 min 0,000 mm 0,0 UV-I 0 W/m² 14,8 °C 17,9 °C 0,0 km/h (0 Bft)
15.06.2019 21:41 17,9 °C 82 % 1011,3 hPa 0,0 mm 0,0 km/h (0 Bft) N-NO 15 ° 0 min 0,000 mm 0,0 UV-I 0 W/m² 14,8 °C 17,9 °C 0,0 km/h (0 Bft)
15.06.2019 21:42 17,9 °C 83 % 1011,3 hPa 0,0 mm 0,0 km/h (0 Bft) N-NO 15 ° 0 min 0,000 mm 0,0 UV-I 0 W/m² 15,0 °C 17,9 °C 0,0 km/h (0 Bft)
15.06.2019 21:43 17,9 °C 83 % 1011,3 hPa 0,0 mm 0,0 km/h (0 Bft) N-NO 15 ° 0 min 0,000 mm 0,0 UV-I 0 W/m² 15,0 °C 17,9 °C 0,0 km/h (0 Bft)
15.06.2019 21:44 17,9 °C 82 % 1011,3 hPa 0,0 mm 0,0 km/h (0 Bft) N-NO 15 ° 0 min 0,000 mm 0,0 UV-I 0 W/m² 14,8 °C 17,9 °C 0,0 km/h (0 Bft)
15.06.2019 21:45 17,9 °C 82 % 1011,3 hPa 0,0 mm 0,0 km/h (0 Bft) N-NO 15 ° 0 min 0,000 mm 0,0 UV-I 0 W/m² 14,8 °C 17,9 °C 0,0 km/h (0 Bft)
15.06.2019 21:46 17,9 °C 82 % 1011,3 hPa 0,0 mm 0,0 km/h (0 Bft) N-NO 15 ° 0 min 0,000 mm 0,0 UV-I 0 W/m² 14,8 °C 17,9 °C 0,0 km/h (0 Bft)
15.06.2019 21:47 17,9 °C 83 % 1011,3 hPa 0,0 mm 0,0 km/h (0 Bft) N-NO 15 ° 0 min 0,000 mm 0,0 UV-I 0 W/m² 15,0 °C 17,9 °C 0,0 km/h (0 Bft)
15.06.2019 21:48 17,8 °C 83 % 1011,4 hPa 0,0 mm 0,0 km/h (0 Bft) N-NO 15 ° 0 min 0,000 mm 0,0 UV-I 0 W/m² 14,9 °C 17,8 °C 0,0 km/h (0 Bft)
15.06.2019 21:49 17,7 °C 83 % 1011,4 hPa 0,0 mm 0,0 km/h (0 Bft) N-NO 15 ° 0 min 0,000 mm 0,0 UV-I 0 W/m² 14,8 °C 17,7 °C 0,0 km/h (0 Bft)
15.06.2019 21:50 17,7 °C 83 % 1011,4 hPa 0,0 mm 0,0 km/h (0 Bft) N-NO 15 ° 0 min 0,000 mm 0,0 UV-I 0 W/m² 14,8 °C 17,7 °C 0,0 km/h (0 Bft)
15.06.2019 21:51 17,7 °C 82 % 1011,4 hPa 0,0 mm 0,0 km/h (0 Bft) N-NO 15 ° 0 min 0,000 mm 0,0 UV-I 0 W/m² 14,6 °C 17,7 °C 0,0 km/h (0 Bft)
15.06.2019 21:52 17,7 °C 81 % 1011,4 hPa 0,0 mm 0,0 km/h (0 Bft) N-NO 15 ° 0 min 0,000 mm 0,0 UV-I 0 W/m² 14,4 °C 17,7 °C 0,0 km/h (0 Bft)
15.06.2019 21:53 17,7 °C 82 % 1011,4 hPa 0,0 mm 0,0 km/h (0 Bft) N-NO 15 ° 0 min 0,000 mm 0,0 UV-I 0 W/m² 14,6 °C 17,7 °C 0,0 km/h (0 Bft)
15.06.2019 21:54 17,8 °C 84 % 1011,4 hPa 0,0 mm 0,0 km/h (0 Bft) N-NO 15 ° 0 min 0,000 mm 0,0 UV-I 0 W/m² 15,1 °C 17,8 °C 0,0 km/h (0 Bft)
15.06.2019 21:55 17,7 °C 84 % 1011,5 hPa 0,0 mm 0,0 km/h (0 Bft) N-NO 15 ° 0 min 0,000 mm 0,0 UV-I 0 W/m² 15,0 °C 17,7 °C 0,0 km/h (0 Bft)
15.06.2019 21:56 17,7 °C 84 % 1011,5 hPa 0,0 mm 0,0 km/h (0 Bft) N-NO 15 ° 0 min 0,000 mm 0,0 UV-I 0 W/m² 15,0 °C 17,7 °C 0,0 km/h (0 Bft)
15.06.2019 21:57 17,6 °C 84 % 1011,5 hPa 0,0 mm 0,0 km/h (0 Bft) N-NO 15 ° 0 min 0,000 mm 0,0 UV-I 0 W/m² 14,9 °C 17,6 °C 0,0 km/h (0 Bft)
15.06.2019 21:58 17,6 °C 84 % 1011,5 hPa 0,0 mm 0,0 km/h (0 Bft) N-NO 15 ° 0 min 0,000 mm 0,0 UV-I 0 W/m² 14,9 °C 17,6 °C 0,0 km/h (0 Bft)
15.06.2019 21:59 17,6 °C 84 % 1011,5 hPa 0,0 mm 0,0 km/h (0 Bft) N-NO 15 ° 0 min 0,000 mm 0,0 UV-I 0 W/m² 14,9 °C 17,6 °C 0,0 km/h (0 Bft)
15.06.2019 22:00 17,5 °C 83 % 1011,5 hPa 0,0 mm 0,0 km/h (0 Bft) N-NO 15 ° 0 min 0,000 mm 0,0 UV-I 0 W/m² 14,6 °C 17,5 °C 0,0 km/h (0 Bft)
15.06.2019 22:01 17,6 °C 84 % 1011,5 hPa 0,0 mm 0,0 km/h (0 Bft) N-NO 15 ° 0 min 0,000 mm 0,0 UV-I 0 W/m² 14,9 °C 17,6 °C 0,0 km/h (0 Bft)
15.06.2019 22:02 17,6 °C 84 % 1011,5 hPa 0,0 mm 0,0 km/h (0 Bft) N-NO 15 ° 0 min 0,000 mm 0,0 UV-I 0 W/m² 14,9 °C 17,6 °C 0,0 km/h (0 Bft)
15.06.2019 22:03 17,6 °C 84 % 1011,6 hPa 0,0 mm 0,0 km/h (0 Bft) N-NO 15 ° 0 min 0,000 mm 0,0 UV-I 0 W/m² 14,9 °C 17,6 °C 0,0 km/h (0 Bft)
15.06.2019 22:04 17,6 °C 84 % 1011,6 hPa 0,0 mm 0,0 km/h (0 Bft) N-NO 15 ° 0 min 0,000 mm 0,0 UV-I 0 W/m² 14,9 °C 17,6 °C 0,0 km/h (0 Bft)
15.06.2019 22:05 17,6 °C 83 % 1011,6 hPa 0,0 mm 0,0 km/h (0 Bft) N-NO 15 ° 0 min 0,000 mm 0,0 UV-I 0 W/m² 14,7 °C 17,6 °C 0,0 km/h (0 Bft)
15.06.2019 22:06 17,6 °C 82 % 1011,7 hPa 0,0 mm 0,0 km/h (0 Bft) N-NO 15 ° 0 min 0,000 mm 0,0 UV-I 0 W/m² 14,5 °C 17,6 °C 0,0 km/h (0 Bft)
15.06.2019 22:07 17,6 °C 83 % 1011,6 hPa 0,0 mm 0,0 km/h (0 Bft) N-NO 15 ° 0 min 0,000 mm 0,0 UV-I 0 W/m² 14,7 °C 17,6 °C 0,0 km/h (0 Bft)
15.06.2019 22:08 17,6 °C 83 % 1011,6 hPa 0,0 mm 0,0 km/h (0 Bft) N-NO 15 ° 0 min 0,000 mm 0,0 UV-I 0 W/m² 14,7 °C 17,6 °C 0,0 km/h (0 Bft)
15.06.2019 22:09 17,7 °C 82 % 1011,7 hPa 0,0 mm 0,0 km/h (0 Bft) N-NO 15 ° 0 min 0,000 mm 0,0 UV-I 0 W/m² 14,6 °C 17,7 °C 0,0 km/h (0 Bft)
15.06.2019 22:10 17,7 °C 83 % 1011,7 hPa 0,0 mm 0,0 km/h (0 Bft) N-NO 15 ° 0 min 0,000 mm 0,0 UV-I 0 W/m² 14,8 °C 17,7 °C 0,0 km/h (0 Bft)
15.06.2019 22:11 17,7 °C 83 % 1011,8 hPa 0,0 mm 0,0 km/h (0 Bft) N-NO 15 ° 0 min 0,000 mm 0,0 UV-I 0 W/m² 14,8 °C 17,7 °C 0,0 km/h (0 Bft)
15.06.2019 22:12 17,7 °C 83 % 1011,8 hPa 0,0 mm 0,0 km/h (0 Bft) N-NO 15 ° 0 min 0,000 mm 0,0 UV-I 0 W/m² 14,8 °C 17,7 °C 0,0 km/h (0 Bft)
15.06.2019 22:13 17,7 °C 82 % 1011,8 hPa 0,0 mm 0,0 km/h (0 Bft) N-NO 15 ° 0 min 0,000 mm 0,0 UV-I 0 W/m² 14,6 °C 17,7 °C 0,0 km/h (0 Bft)
15.06.2019 22:14 17,7 °C 83 % 1011,7 hPa 0,0 mm 0,0 km/h (0 Bft) N-NO 15 ° 0 min 0,000 mm 0,0 UV-I 0 W/m² 14,8 °C 17,7 °C 0,0 km/h (0 Bft)
15.06.2019 22:15 17,7 °C 82 % 1011,8 hPa 0,0 mm 0,0 km/h (0 Bft) N-NO 15 ° 0 min 0,000 mm 0,0 UV-I 0 W/m² 14,6 °C 17,7 °C 0,0 km/h (0 Bft)
15.06.2019 22:16 17,7 °C 82 % 1011,8 hPa 0,0 mm 0,0 km/h (0 Bft) N-NO 15 ° 0 min 0,000 mm 0,0 UV-I 0 W/m² 14,6 °C 17,7 °C 0,0 km/h (0 Bft)
15.06.2019 22:17 17,7 °C 82 % 1011,7 hPa 0,0 mm 0,0 km/h (0 Bft) N-NO 15 ° 0 min 0,000 mm 0,0 UV-I 0 W/m² 14,6 °C 17,7 °C 0,0 km/h (0 Bft)
15.06.2019 22:18 17,7 °C 83 % 1011,8 hPa 0,0 mm 0,0 km/h (0 Bft) N-NO 15 ° 0 min 0,000 mm 0,0 UV-I 0 W/m² 14,8 °C 17,7 °C 0,0 km/h (0 Bft)
15.06.2019 22:19 17,7 °C 83 % 1011,8 hPa 0,0 mm 0,0 km/h (0 Bft) N-NO 15 ° 0 min 0,000 mm 0,0 UV-I 0 W/m² 14,8 °C 17,7 °C 0,0 km/h (0 Bft)
15.06.2019 22:20 17,7 °C 82 % 1011,8 hPa 0,0 mm 0,0 km/h (0 Bft) N-NO 15 ° 0 min 0,000 mm 0,0 UV-I 0 W/m² 14,6 °C 17,7 °C 0,0 km/h (0 Bft)
15.06.2019 22:21 17,8 °C 82 % 1011,9 hPa 0,0 mm 0,0 km/h (0 Bft) N-NO 15 ° 0 min 0,000 mm 0,0 UV-I 0 W/m² 14,7 °C 17,8 °C 0,0 km/h (0 Bft)
15.06.2019 22:22 17,8 °C 83 % 1011,9 hPa 0,0 mm 0,0 km/h (0 Bft) N-NO 15 ° 0 min 0,000 mm 0,0 UV-I 0 W/m² 14,9 °C 17,8 °C 0,0 km/h (0 Bft)
15.06.2019 22:23 17,8 °C 83 % 1011,9 hPa 0,0 mm 1,7 km/h (1 Bft) N-NO 14 ° 0 min 0,000 mm 0,0 UV-I 0 W/m² 14,9 °C 17,8 °C 4,8 km/h (1 Bft)
15.06.2019 22:24 17,8 °C 83 % 1011,9 hPa 0,0 mm 3,1 km/h (1 Bft) N-NW 348 ° 0 min 0,000 mm 0,0 UV-I 0 W/m² 14,9 °C 17,8 °C 8,0 km/h (2 Bft)
15.06.2019 22:25 17,8 °C 83 % 1011,9 hPa 0,0 mm 6,2 km/h (2 Bft) N-NW 335 ° 0 min 0,000 mm 0,0 UV-I 0 W/m² 14,9 °C 17,8 °C 9,7 km/h (2 Bft)
15.06.2019 22:26 17,8 °C 83 % 1011,9 hPa 0,0 mm 6,5 km/h (2 Bft) NW 326 ° 0 min 0,000 mm 0,0 UV-I 0 W/m² 14,9 °C 17,8 °C 12,9 km/h (3 Bft)
15.06.2019 22:27 17,8 °C 83 % 1011,9 hPa 0,0 mm 7,8 km/h (2 Bft) NW 306 ° 0 min 0,000 mm 0,0 UV-I 0 W/m² 14,9 °C 17,8 °C 16,1 km/h (3 Bft)
15.06.2019 22:28 17,7 °C 83 % 1012,0 hPa 0,0 mm 4,0 km/h (1 Bft) N 5 ° 0 min 0,000 mm 0,0 UV-I 0 W/m² 14,8 °C 17,7 °C 8,0 km/h (2 Bft)
15.06.2019 22:29 17,7 °C 83 % 1012,0 hPa 0,0 mm 8,0 km/h (2 Bft) N-NW 333 ° 0 min 0,000 mm 0,0 UV-I 0 W/m² 14,8 °C 17,7 °C 14,5 km/h (3 Bft)
15.06.2019 22:30 17,7 °C 83 % 1012,0 hPa 0,0 mm 7,8 km/h (2 Bft) N-NW 337 ° 0 min 0,000 mm 0,0 UV-I 0 W/m² 14,8 °C 17,7 °C 14,5 km/h (3 Bft)
15.06.2019 22:31 17,6 °C 84 % 1012,0 hPa 0,0 mm 4,7 km/h (1 Bft) NW 321 ° 0 min 0,000 mm 0,0 UV-I 0 W/m² 14,9 °C 17,6 °C 8,0 km/h (2 Bft)
15.06.2019 22:32 17,5 °C 84 % 1012,1 hPa 0,0 mm 3,3 km/h (1 Bft) NW 326 ° 0 min 0,000 mm 0,0 UV-I 0 W/m² 14,8 °C 17,5 °C 6,4 km/h (2 Bft)
15.06.2019 22:33 17,4 °C 84 % 1012,0 hPa 0,0 mm 4,1 km/h (1 Bft) NW 325 ° 0 min 0,000 mm 0,0 UV-I 0 W/m² 14,7 °C 17,4 °C 6,4 km/h (2 Bft)
15.06.2019 22:34 17,4 °C 85 % 1012,0 hPa 0,0 mm 4,6 km/h (1 Bft) N-NW 337 ° 0 min 0,000 mm 0,0 UV-I 0 W/m² 14,8 °C 17,4 °C 6,4 km/h (2 Bft)
15.06.2019 22:35 17,3 °C 85 % 1012,1 hPa 0,0 mm 4,2 km/h (1 Bft) N-NW 331 ° 0 min 0,000 mm 0,0 UV-I 0 W/m² 14,8 °C 17,3 °C 6,4 km/h (2 Bft)
15.06.2019 22:36 17,3 °C 85 % 1012,1 hPa 0,0 mm 4,3 km/h (1 Bft) NW 318 ° 0 min 0,000 mm 0,0 UV-I 0 W/m² 14,8 °C 17,3 °C 8,0 km/h (2 Bft)
15.06.2019 22:37 17,3 °C 85 % 1012,1 hPa 0,0 mm 7,3 km/h (2 Bft) N-NW 335 ° 0 min 0,000 mm 0,0 UV-I 0 W/m² 14,8 °C 17,3 °C 12,9 km/h (3 Bft)
15.06.2019 22:38 17,2 °C 85 % 1012,1 hPa 0,0 mm 3,1 km/h (1 Bft) W-NW 288 ° 0 min 0,000 mm 0,0 UV-I 0 W/m² 14,7 °C 17,2 °C 6,4 km/h (2 Bft)
15.06.2019 22:39 17,2 °C 85 % 1012,1 hPa 0,0 mm 1,1 km/h (1 Bft) N-NW 328 ° 0 min 0,000 mm 0,0 UV-I 0 W/m² 14,7 °C 17,2 °C 4,8 km/h (1 Bft)
15.06.2019 22:40 17,1 °C 86 % 1012,2 hPa 0,0 mm 4,4 km/h (1 Bft) N-NW 332 ° 0 min 0,000 mm 0,0 UV-I 0 W/m² 14,7 °C 17,1 °C 8,0 km/h (2 Bft)
15.06.2019 22:41 17,1 °C 86 % 1012,1 hPa 0,0 mm 3,2 km/h (1 Bft) N-NW 333 ° 0 min 0,000 mm 0,0 UV-I 0 W/m² 14,7 °C 17,1 °C 4,8 km/h (1 Bft)
15.06.2019 22:42 17,0 °C 86 % 1012,1 hPa 0,0 mm 1,6 km/h (1 Bft) N-NW 344 ° 0 min 0,000 mm 0,0 UV-I 0 W/m² 14,6 °C 17,0 °C 4,8 km/h (1 Bft)
15.06.2019 22:43 17,0 °C 86 % 1012,1 hPa 0,0 mm 0,6 km/h (0 Bft) N-NW 342 ° 0 min 0,000 mm 0,0 UV-I 0 W/m² 14,6 °C 17,0 °C 3,2 km/h (1 Bft)
15.06.2019 22:44 16,9 °C 86 % 1012,1 hPa 0,0 mm 0,0 km/h (0 Bft) N-NW 342 ° 0 min 0,000 mm 0,0 UV-I 0 W/m² 14,5 °C 16,9 °C 0,0 km/h (0 Bft)
15.06.2019 22:45 16,9 °C 86 % 1012,2 hPa 0,0 mm 0,5 km/h (0 Bft) NW 322 ° 0 min 0,000 mm 0,0 UV-I 0 W/m² 14,5 °C 16,9 °C 8,0 km/h (2 Bft)
15.06.2019 22:46 16,8 °C 87 % 1012,2 hPa 0,0 mm 5,0 km/h (1 Bft) N-NO 17 ° 0 min 0,000 mm 0,0 UV-I 0 W/m² 14,6 °C 16,8 °C 8,0 km/h (2 Bft)
15.06.2019 22:47 16,8 °C 87 % 1012,2 hPa 0,0 mm 3,2 km/h (1 Bft) NW 323 ° 0 min 0,000 mm 0,0 UV-I 0 W/m² 14,6 °C 16,8 °C 6,4 km/h (2 Bft)
15.06.2019 22:48 16,8 °C 87 % 1012,2 hPa 0,0 mm 0,0 km/h (0 Bft) NW 323 ° 0 min 0,000 mm 0,0 UV-I 0 W/m² 14,6 °C 16,8 °C 0,0 km/h (0 Bft)
15.06.2019 22:49 16,8 °C 87 % 1012,2 hPa 0,0 mm 2,1 km/h (1 Bft) N-NW 332 ° 0 min 0,000 mm 0,0 UV-I 0 W/m² 14,6 °C 16,8 °C 6,4 km/h (2 Bft)
15.06.2019 22:50 16,7 °C 87 % 1012,2 hPa 0,0 mm 0,9 km/h (0 Bft) N-NW 333 ° 0 min 0,000 mm 0,0 UV-I 0 W/m² 14,5 °C 16,7 °C 3,2 km/h (1 Bft)
15.06.2019 22:51 16,7 °C 87 % 1012,2 hPa 0,0 mm 0,0 km/h (0 Bft) N-NW 332 ° 0 min 0,000 mm 0,0 UV-I 0 W/m² 14,5 °C 16,7 °C 0,0 km/h (0 Bft)
15.06.2019 22:52 16,7 °C 87 % 1012,2 hPa 0,0 mm 3,1 km/h (1 Bft) W-SW 257 ° 0 min 0,000 mm 0,0 UV-I 0 W/m² 14,5 °C 16,7 °C 4,8 km/h (1 Bft)
15.06.2019 22:53 16,7 °C 87 % 1012,2 hPa 0,0 mm 4,1 km/h (1 Bft) W-SW 257 ° 0 min 0,000 mm 0,0 UV-I 0 W/m² 14,5 °C 16,7 °C 6,4 km/h (2 Bft)
15.06.2019 22:54 16,7 °C 87 % 1012,2 hPa 0,0 mm 3,8 km/h (1 Bft) W 273 ° 0 min 0,000 mm 0,0 UV-I 0 W/m² 14,5 °C 16,7 °C 6,4 km/h (2 Bft)
15.06.2019 22:55 16,6 °C 87 % 1012,2 hPa 0,0 mm 4,5 km/h (1 Bft) NW 308 ° 0 min 0,000 mm 0,0 UV-I 0 W/m² 14,4 °C 16,6 °C 6,4 km/h (2 Bft)
15.06.2019 22:56 16,6 °C 87 % 1012,2 hPa 0,0 mm 4,4 km/h (1 Bft) W-SW 256 ° 0 min 0,000 mm 0,0 UV-I 0 W/m² 14,4 °C 16,6 °C 6,4 km/h (2 Bft)
15.06.2019 22:57 16,6 °C 87 % 1012,2 hPa 0,0 mm 4,8 km/h (1 Bft) W-SW 253 ° 0 min 0,000 mm 0,0 UV-I 0 W/m² 14,4 °C 16,6 °C 8,0 km/h (2 Bft)
15.06.2019 22:58 16,6 °C 87 % 1012,2 hPa 0,0 mm 7,6 km/h (2 Bft) W 269 ° 0 min 0,000 mm 0,0 UV-I 0 W/m² 14,4 °C 16,6 °C 11,3 km/h (2 Bft)
15.06.2019 22:59 16,5 °C 87 % 1012,2 hPa 0,0 mm 9,1 km/h (2 Bft) W 267 ° 0 min 0,000 mm 0,0 UV-I 0 W/m² 14,3 °C 16,5 °C 11,3 km/h (2 Bft)
15.06.2019 23:00 16,5 °C 87 % 1012,1 hPa 0,0 mm 9,1 km/h (2 Bft) W-SW 253 ° 0 min 0,000 mm 0,0 UV-I 0 W/m² 14,3 °C 16,5 °C 12,9 km/h (3 Bft)
15.06.2019 23:01 16,4 °C 87 % 1012,2 hPa 0,0 mm 5,3 km/h (1 Bft) W-NW 284 ° 0 min 0,026 mm 0,0 UV-I 0 W/m² 14,2 °C 16,4 °C 9,7 km/h (2 Bft)
15.06.2019 23:02 16,4 °C 87 % 1012,1 hPa 0,0 mm 3,8 km/h (1 Bft) W-NW 286 ° 0 min 0,000 mm 0,0 UV-I 0 W/m² 14,2 °C 16,4 °C 4,8 km/h (1 Bft)
15.06.2019 23:03 16,4 °C 87 % 1012,2 hPa 0,0 mm 4,1 km/h (1 Bft) W-NW 289 ° 0 min 0,000 mm 0,0 UV-I 0 W/m² 14,2 °C 16,4 °C 6,4 km/h (2 Bft)
15.06.2019 23:04 16,4 °C 87 % 1012,2 hPa 0,0 mm 2,8 km/h (1 Bft) W-NW 289 ° 0 min 0,000 mm 0,0 UV-I 0 W/m² 14,2 °C 16,4 °C 4,8 km/h (1 Bft)
15.06.2019 23:05 16,4 °C 88 % 1012,2 hPa 0,0 mm 2,3 km/h (1 Bft) W-NW 289 ° 0 min 0,000 mm 0,0 UV-I 0 W/m² 14,4 °C 16,4 °C 3,2 km/h (1 Bft)
15.06.2019 23:06 16,4 °C 88 % 1012,3 hPa 0,0 mm 3,3 km/h (1 Bft) W-SW 252 ° 0 min 0,000 mm 0,0 UV-I 0 W/m² 14,4 °C 16,4 °C 6,4 km/h (2 Bft)
15.06.2019 23:07 16,4 °C 88 % 1012,3 hPa 0,0 mm 5,4 km/h (1 Bft) W 262 ° 0 min 0,000 mm 0,0 UV-I 0 W/m² 14,4 °C 16,4 °C 9,7 km/h (2 Bft)
15.06.2019 23:08 16,4 °C 88 % 1012,3 hPa 0,0 mm 4,2 km/h (1 Bft) W 271 ° 0 min 0,000 mm 0,0 UV-I 0 W/m² 14,4 °C 16,4 °C 6,4 km/h (2 Bft)
15.06.2019 23:09 16,4 °C 88 % 1012,3 hPa 0,0 mm 3,6 km/h (1 Bft) W 275 ° 0 min 0,000 mm 0,0 UV-I 0 W/m² 14,4 °C 16,4 °C 4,8 km/h (1 Bft)
15.06.2019 23:10 16,4 °C 88 % 1012,4 hPa 0,0 mm 4,9 km/h (1 Bft) W-NW 289 ° 0 min 0,000 mm 0,0 UV-I 0 W/m² 14,4 °C 16,4 °C 8,0 km/h (2 Bft)
15.06.2019 23:11 16,4 °C 88 % 1012,5 hPa 0,0 mm 8,0 km/h (2 Bft) W-NW 288 ° 0 min 0,000 mm 0,0 UV-I 0 W/m² 14,4 °C 16,4 °C 12,9 km/h (3 Bft)
15.06.2019 23:12 16,4 °C 88 % 1012,6 hPa 0,0 mm 7,3 km/h (2 Bft) W 271 ° 0 min 0,000 mm 0,0 UV-I 0 W/m² 14,4 °C 16,4 °C 11,3 km/h (2 Bft)
15.06.2019 23:13 16,4 °C 88 % 1012,8 hPa 0,0 mm 5,0 km/h (1 Bft) W 266 ° 0 min 0,000 mm 0,0 UV-I 0 W/m² 14,4 °C 16,4 °C 9,7 km/h (2 Bft)
15.06.2019 23:14 16,4 °C 88 % 1012,9 hPa 0,0 mm 8,7 km/h (2 Bft) W 281 ° 0 min 0,000 mm 0,0 UV-I 0 W/m² 14,4 °C 16,4 °C 12,9 km/h (3 Bft)
15.06.2019 23:15 16,4 °C 87 % 1013,1 hPa 0,0 mm 9,5 km/h (2 Bft) W-NW 294 ° 0 min 0,000 mm 0,0 UV-I 0 W/m² 14,2 °C 16,4 °C 16,1 km/h (3 Bft)
15.06.2019 23:16 16,4 °C 87 % 1013,4 hPa 0,0 mm 12,2 km/h (2 Bft) W 274 ° 0 min 0,000 mm 0,0 UV-I 0 W/m² 14,2 °C 16,4 °C 20,9 km/h (4 Bft)
15.06.2019 23:17 16,4 °C 87 % 1013,6 hPa 0,0 mm 15,1 km/h (3 Bft) W 266 ° 0 min 0,000 mm 0,0 UV-I 0 W/m² 14,2 °C 16,4 °C 27,4 km/h (4 Bft)
15.06.2019 23:18 16,4 °C 86 % 1013,6 hPa 0,0 mm 22,7 km/h (4 Bft) W 273 ° 0 min 0,000 mm 0,0 UV-I 0 W/m² 14,1 °C 16,4 °C 33,8 km/h (5 Bft)
15.06.2019 23:19 16,2 °C 84 % 1013,9 hPa 0,0 mm 23,2 km/h (4 Bft) W-NW 289 ° 0 min 0,000 mm 0,0 UV-I 0 W/m² 13,5 °C 16,2 °C 41,8 km/h (6 Bft)
15.06.2019 23:20 16,1 °C 82 % 1013,9 hPa 0,0 mm 28,6 km/h (4 Bft) W 269 ° 0 min 0,000 mm 0,0 UV-I 0 W/m² 13,0 °C 16,1 °C 41,8 km/h (6 Bft)
15.06.2019 23:21 15,9 °C 79 % 1014,2 hPa 0,0 mm 24,6 km/h (4 Bft) W-NW 285 ° 0 min 0,000 mm 0,0 UV-I 0 W/m² 12,3 °C 15,9 °C 41,8 km/h (6 Bft)
15.06.2019 23:22 15,7 °C 78 % 1014,3 hPa 0,0 mm 39,1 km/h (6 Bft) W 269 ° 0 min 0,000 mm 0,0 UV-I 0 W/m² 11,9 °C 15,7 °C 49,9 km/h (6 Bft)
15.06.2019 23:23 15,4 °C 78 % 1014,3 hPa 0,0 mm 28,5 km/h (4 Bft) W 278 ° 0 min 0,000 mm 0,0 UV-I 0 W/m² 11,6 °C 15,4 °C 41,8 km/h (6 Bft)
15.06.2019 23:24 15,2 °C 79 % 1014,2 hPa 0,0 mm 28,6 km/h (4 Bft) W-NW 284 ° 0 min 0,000 mm 0,0 UV-I 0 W/m² 11,6 °C 15,2 °C 41,8 km/h (6 Bft)
15.06.2019 23:25 15,1 °C 79 % 1014,4 hPa 0,0 mm 22,9 km/h (4 Bft) W 264 ° 0 min 0,000 mm 0,0 UV-I 0 W/m² 11,5 °C 15,1 °C 30,6 km/h (5 Bft)
15.06.2019 23:26 14,8 °C 80 % 1014,4 hPa 0,0 mm 23,4 km/h (4 Bft) W-SW 248 ° 0 min 0,000 mm 0,0 UV-I 0 W/m² 11,4 °C 14,8 °C 38,6 km/h (5 Bft)
15.06.2019 23:27 14,6 °C 81 % 1014,4 hPa 0,0 mm 14,0 km/h (3 Bft) N-NW 331 ° 0 min 0,000 mm 0,0 UV-I 0 W/m² 11,4 °C 14,6 °C 32,2 km/h (5 Bft)
15.06.2019 23:28 14,3 °C 82 % 1014,3 hPa 0,2 mm 21,1 km/h (4 Bft) W-SW 251 ° 0 min 0,000 mm 0,0 UV-I 0 W/m² 11,3 °C 14,3 °C 33,8 km/h (5 Bft)
15.06.2019 23:29 14,2 °C 83 % 1014,5 hPa 0,2 mm 16,5 km/h (3 Bft) W-SW 248 ° 0 min 0,000 mm 0,0 UV-I 0 W/m² 11,4 °C 14,2 °C 30,6 km/h (5 Bft)
15.06.2019 23:30 14,0 °C 83 % 1014,4 hPa 0,2 mm 15,4 km/h (3 Bft) NW 307 ° 0 min 0,000 mm 0,0 UV-I 0 W/m² 11,2 °C 14,0 °C 27,4 km/h (4 Bft)
15.06.2019 23:31 13,8 °C 84 % 1014,4 hPa 0,0 mm 12,3 km/h (3 Bft) W-SW 254 ° 0 min 0,000 mm 0,0 UV-I 0 W/m² 11,1 °C 13,8 °C 16,1 km/h (3 Bft)
15.06.2019 23:32 13,6 °C 85 % 1014,5 hPa 0,2 mm 12,3 km/h (3 Bft) SW 234 ° 0 min 0,000 mm 0,0 UV-I 0 W/m² 11,1 °C 13,6 °C 20,9 km/h (4 Bft)
15.06.2019 23:33 13,4 °C 86 % 1014,4 hPa 0,4 mm 13,2 km/h (3 Bft) W 261 ° 0 min 0,000 mm 0,0 UV-I 0 W/m² 11,1 °C 13,4 °C 19,3 km/h (3 Bft)
15.06.2019 23:34 13,3 °C 86 % 1014,3 hPa 0,6 mm 14,1 km/h (3 Bft) W-NW 289 ° 0 min 0,000 mm 0,0 UV-I 0 W/m² 11,0 °C 13,3 °C 20,9 km/h (4 Bft)
15.06.2019 23:35 13,2 °C 87 % 1014,3 hPa 0,4 mm 10,5 km/h (2 Bft) W-NW 284 ° 0 min 0,000 mm 0,0 UV-I 0 W/m² 11,1 °C 13,2 °C 17,7 km/h (3 Bft)
15.06.2019 23:36 13,1 °C 87 % 1014,2 hPa 0,2 mm 23,8 km/h (4 Bft) NW 308 ° 0 min 0,000 mm 0,0 UV-I 0 W/m² 11,0 °C 13,1 °C 32,2 km/h (5 Bft)
15.06.2019 23:37 12,9 °C 88 % 1014,2 hPa 0,0 mm 20,6 km/h (4 Bft) W 268 ° 0 min 0,000 mm 0,0 UV-I 0 W/m² 11,0 °C 12,9 °C 53,1 km/h (7 Bft)
15.06.2019 23:38 12,9 °C 88 % 1014,2 hPa 0,2 mm 26,6 km/h (4 Bft) NW 311 ° 0 min 0,000 mm 0,0 UV-I 0 W/m² 11,0 °C 12,9 °C 38,6 km/h (5 Bft)
15.06.2019 23:39 12,8 °C 88 % 1014,1 hPa 0,2 mm 27,0 km/h (4 Bft) W 259 ° 0 min 0,000 mm 0,0 UV-I 0 W/m² 10,9 °C 12,8 °C 40,2 km/h (6 Bft)
15.06.2019 23:40 12,8 °C 89 % 1014,2 hPa 0,0 mm 22,0 km/h (4 Bft) W 273 ° 0 min 0,000 mm 0,0 UV-I 0 W/m² 11,0 °C 12,8 °C 35,4 km/h (5 Bft)
15.06.2019 23:41 12,7 °C 89 % 1014,2 hPa 0,0 mm 24,3 km/h (4 Bft) S-SW 205 ° 0 min 0,000 mm 0,0 UV-I 0 W/m² 10,9 °C 12,7 °C 43,5 km/h (6 Bft)
15.06.2019 23:42 12,7 °C 89 % 1014,2 hPa 0,0 mm 14,9 km/h (3 Bft) W 260 ° 0 min 0,000 mm 0,0 UV-I 0 W/m² 10,9 °C 12,7 °C 24,1 km/h (4 Bft)
15.06.2019 23:43 12,6 °C 89 % 1014,3 hPa 0,2 mm 28,8 km/h (4 Bft) W-NW 298 ° 0 min 0,000 mm 0,0 UV-I 0 W/m² 10,8 °C 12,6 °C 41,8 km/h (6 Bft)
15.06.2019 23:44 12,6 °C 89 % 1014,4 hPa 0,0 mm 15,8 km/h (3 Bft) SW 225 ° 0 min 0,000 mm 0,0 UV-I 0 W/m² 10,8 °C 12,6 °C 22,5 km/h (4 Bft)
15.06.2019 23:45 12,6 °C 89 % 1014,6 hPa 0,0 mm 22,8 km/h (4 Bft) W 262 ° 0 min 0,000 mm 0,0 UV-I 0 W/m² 10,8 °C 12,6 °C 33,8 km/h (5 Bft)
15.06.2019 23:46 12,6 °C 89 % 1014,7 hPa 0,0 mm 14,1 km/h (3 Bft) W-SW 251 ° 0 min 0,000 mm 0,0 UV-I 0 W/m² 10,8 °C 12,6 °C 22,5 km/h (4 Bft)
15.06.2019 23:47 12,5 °C 90 % 1014,7 hPa 0,0 mm 17,4 km/h (3 Bft) W 267 ° 0 min 0,000 mm 0,0 UV-I 0 W/m² 10,9 °C 12,5 °C 25,7 km/h (4 Bft)
15.06.2019 23:48 12,5 °C 90 % 1014,7 hPa 0,2 mm 15,4 km/h (3 Bft) W 277 ° 0 min 0,000 mm 0,0 UV-I 0 W/m² 10,9 °C 12,5 °C 22,5 km/h (4 Bft)
15.06.2019 23:49 12,5 °C 90 % 1014,6 hPa 0,0 mm 11,6 km/h (2 Bft) W 260 ° 0 min 0,000 mm 0,0 UV-I 0 W/m² 10,9 °C 12,5 °C 17,7 km/h (3 Bft)
15.06.2019 23:50 12,4 °C 90 % 1014,7 hPa 0,2 mm 16,8 km/h (3 Bft) W-SW 258 ° 0 min 0,000 mm 0,0 UV-I 0 W/m² 10,8 °C 12,4 °C 30,6 km/h (5 Bft)
15.06.2019 23:51 12,4 °C 90 % 1014,6 hPa 0,0 mm 9,1 km/h (2 Bft) W 270 ° 0 min 0,000 mm 0,0 UV-I 0 W/m² 10,8 °C 12,4 °C 17,7 km/h (3 Bft)
15.06.2019 23:52 12,4 °C 90 % 1014,6 hPa 0,2 mm 16,2 km/h (3 Bft) W 271 ° 0 min 0,000 mm 0,0 UV-I 0 W/m² 10,8 °C 12,4 °C 27,4 km/h (4 Bft)
15.06.2019 23:53 12,4 °C 90 % 1014,7 hPa 0,0 mm 15,3 km/h (3 Bft) W 279 ° 0 min 0,000 mm 0,0 UV-I 0 W/m² 10,8 °C 12,4 °C 20,9 km/h (4 Bft)
15.06.2019 23:54 12,4 °C 90 % 1014,6 hPa 0,0 mm 16,2 km/h (3 Bft) W 275 ° 0 min 0,000 mm 0,0 UV-I 0 W/m² 10,8 °C 12,4 °C 29,0 km/h (5 Bft)
15.06.2019 23:55 12,4 °C 90 % 1014,6 hPa 0,0 mm 20,5 km/h (4 Bft) W-NW 302 ° 0 min 0,000 mm 0,0 UV-I 0 W/m² 10,8 °C 12,4 °C 27,4 km/h (4 Bft)
15.06.2019 23:56 12,4 °C 91 % 1014,6 hPa 0,0 mm 19,9 km/h (4 Bft) W 277 ° 0 min 0,000 mm 0,0 UV-I 0 W/m² 11,0 °C 12,4 °C 33,8 km/h (5 Bft)
15.06.2019 23:57 12,4 °C 91 % 1014,6 hPa 0,0 mm 16,8 km/h (3 Bft) W 275 ° 0 min 0,000 mm 0,0 UV-I 0 W/m² 11,0 °C 12,4 °C 22,5 km/h (4 Bft)
15.06.2019 23:58 12,4 °C 91 % 1014,7 hPa 0,0 mm 13,1 km/h (3 Bft) SW 233 ° 0 min 0,000 mm 0,0 UV-I 0 W/m² 11,0 °C 12,4 °C 19,3 km/h (3 Bft)
15.06.2019 23:59 12,4 °C 91 % 1014,6 hPa 0,2 mm 17,0 km/h (3 Bft) W-SW 252 ° 0 min 0,000 mm 0,0 UV-I 0 W/m² 11,0 °C 12,4 °C 27,4 km/h (4 Bft)
_ Min-Zeit 23:59 16:38 04:37 - 22:51 - - - - - - 05:10 23:59 22:51
Minimum _ 12,3 °C 61 % 1006,8 hPa - 0,0 km/h (0 Bft) - - - - - - 10,4 °C 12,4 °C 0,0 km/h (0 Bft)
_ Max-Zeit 12:59 23:59 23:58 23:34 23:22 - - 13:22 12:01 12:54 12:40 12:40 12:59 23:37
Maximum _ 22,1 °C 91 % 1014,7 hPa 0,6 mm 39,1 km/h
W (6 Bft)
- - 1 min 0,457 mm 7,7 UV-I 926 W/m² 15,9 °C 22,1 °C 53,1 km/h
W (7 Bft)
Durchschnitt _ 19,0 °C 72 % 1010,3 hPa #3,8 mm 4,8 km/h (1 Bft) W-NW - #1:46 h #3,353 mm 2,7 UV-I 191 W/m² 13,7 °C 19,0 °C 8,0 km/h (2 Bft)